<?xml version="1.0" encoding="UTF-8"?>
<gpx version="1.0" creator="Trackator" xmlns:xsi="http://www.w3.org/2001/XMLSchema-instance" xmlns="http://www.topografix.com/GPX/1/0" xmlns:topografix="http://www.topografix.com/GPX/Private/TopoGrafix/0/1" xsi:schemaLocation="http://www.topografix.com/GPX/1/0 http://www.topografix.com/GPX/1/0/gpx.xsd http://www.topografix.com/GPX/Private/TopoGrafix/0/1 http://www.topografix.com/GPX/Private/TopoGrafix/0/1/topografix.xsd">
<metadata>
<link href="http://www.trackalia.com/trackatorweb.php">
<text>Trackator</text>
</link>
</metadata>
<time>2017-09-29T12:58:59Z</time>
<trk>
<name>Track: </name>
<desc>4x4-SUV</desc>
<trkseg>
<trkpt lat="53.3475862" lon="18.4359084">
<ele>116</ele>
<time>2017-09-29T12:58:59Z</time>
</trkpt>
<trkpt lat="53.3475862" lon="18.4359084">
<ele>116</ele>
<time>2017-09-29T12:59:05Z</time>
</trkpt>
<trkpt lat="53.3475862" lon="18.4359084">
<ele>116</ele>
<time>2017-09-29T12:59:11Z</time>
</trkpt>
<trkpt lat="53.3475862" lon="18.4359084">
<ele>116</ele>
<time>2017-09-29T12:59:17Z</time>
</trkpt>
<trkpt lat="53.3475862" lon="18.4359084">
<ele>116</ele>
<time>2017-09-29T12:59:23Z</time>
</trkpt>
<trkpt lat="53.3475862" lon="18.4359084">
<ele>116</ele>
<time>2017-09-29T12:59:29Z</time>
</trkpt>
<trkpt lat="53.3475862" lon="18.4359084">
<ele>116</ele>
<time>2017-09-29T12:59:41Z</time>
</trkpt>
<trkpt lat="53.3475862" lon="18.4359084">
<ele>116</ele>
<time>2017-09-29T12:59:47Z</time>
</trkpt>
<trkpt lat="53.3475862" lon="18.4359084">
<ele>116</ele>
<time>2017-09-29T12:59:53Z</time>
</trkpt>
<trkpt lat="53.3475862" lon="18.4359084">
<ele>116</ele>
<time>2017-09-29T12:59:59Z</time>
</trkpt>
<trkpt lat="53.3475862" lon="18.4359084">
<ele>116</ele>
<time>2017-09-29T13:00:05Z</time>
</trkpt>
<trkpt lat="53.3475862" lon="18.4359084">
<ele>116</ele>
<time>2017-09-29T13:00:11Z</time>
</trkpt>
<trkpt lat="53.3475862" lon="18.4359084">
<ele>116</ele>
<time>2017-09-29T13:00:17Z</time>
</trkpt>
<trkpt lat="53.3475862" lon="18.4359084">
<ele>116</ele>
<time>2017-09-29T13:00:23Z</time>
</trkpt>
<trkpt lat="53.3475862" lon="18.4359084">
<ele>116</ele>
<time>2017-09-29T13:00:29Z</time>
</trkpt>
<trkpt lat="53.3475862" lon="18.4359084">
<ele>116</ele>
<time>2017-09-29T13:00:35Z</time>
</trkpt>
<trkpt lat="53.3475862" lon="18.4359084">
<ele>116</ele>
<time>2017-09-29T13:00:41Z</time>
</trkpt>
<trkpt lat="53.3475862" lon="18.4359084">
<ele>116</ele>
<time>2017-09-29T13:00:47Z</time>
</trkpt>
<trkpt lat="53.3475862" lon="18.4359084">
<ele>116</ele>
<time>2017-09-29T13:00:53Z</time>
</trkpt>
<trkpt lat="53.3475862" lon="18.4359084">
<ele>116</ele>
<time>2017-09-29T13:00:59Z</time>
</trkpt>
<trkpt lat="53.3475862" lon="18.4359084">
<ele>116</ele>
<time>2017-09-29T13:01:05Z</time>
</trkpt>
<trkpt lat="53.3475862" lon="18.4359084">
<ele>116</ele>
<time>2017-09-29T13:01:11Z</time>
</trkpt>
<trkpt lat="53.3475862" lon="18.4359084">
<ele>116</ele>
<time>2017-09-29T13:01:17Z</time>
</trkpt>
<trkpt lat="53.3475862" lon="18.4359084">
<ele>116</ele>
<time>2017-09-29T13:01:23Z</time>
</trkpt>
<trkpt lat="53.3475862" lon="18.4359084">
<ele>116</ele>
<time>2017-09-29T13:01:29Z</time>
</trkpt>
<trkpt lat="53.3475862" lon="18.4359084">
<ele>116</ele>
<time>2017-09-29T13:01:35Z</time>
</trkpt>
<trkpt lat="53.3475696" lon="18.4359013">
<ele>115</ele>
<time>2017-09-29T13:01:41Z</time>
</trkpt>
<trkpt lat="53.3473792" lon="18.4358136">
<ele>104</ele>
<time>2017-09-29T13:01:47Z</time>
</trkpt>
<trkpt lat="53.3471524" lon="18.4357403">
<ele>97</ele>
<time>2017-09-29T13:01:53Z</time>
</trkpt>
<trkpt lat="53.3469275" lon="18.4357669">
<ele>91</ele>
<time>2017-09-29T13:01:59Z</time>
</trkpt>
<trkpt lat="53.3468774" lon="18.4361438">
<ele>89</ele>
<time>2017-09-29T13:02:05Z</time>
</trkpt>
<trkpt lat="53.3468491" lon="18.4365553">
<ele>87</ele>
<time>2017-09-29T13:02:11Z</time>
</trkpt>
<trkpt lat="53.3468478" lon="18.4368815">
<ele>86</ele>
<time>2017-09-29T13:02:17Z</time>
</trkpt>
<trkpt lat="53.3470481" lon="18.4370448">
<ele>87</ele>
<time>2017-09-29T13:02:23Z</time>
</trkpt>
<trkpt lat="53.3472438" lon="18.4371165">
<ele>87</ele>
<time>2017-09-29T13:02:29Z</time>
</trkpt>
<trkpt lat="53.3474689" lon="18.4372465">
<ele>87</ele>
<time>2017-09-29T13:02:35Z</time>
</trkpt>
<trkpt lat="53.3477052" lon="18.4373707">
<ele>87</ele>
<time>2017-09-29T13:02:41Z</time>
</trkpt>
<trkpt lat="53.3478588" lon="18.4374506">
<ele>88</ele>
<time>2017-09-29T13:02:47Z</time>
</trkpt>
<trkpt lat="53.3480452" lon="18.4375342">
<ele>89</ele>
<time>2017-09-29T13:02:53Z</time>
</trkpt>
<trkpt lat="53.3482820" lon="18.4377366">
<ele>91</ele>
<time>2017-09-29T13:02:59Z</time>
</trkpt>
<trkpt lat="53.3485439" lon="18.4378744">
<ele>90</ele>
<time>2017-09-29T13:03:05Z</time>
</trkpt>
<trkpt lat="53.3487854" lon="18.4380073">
<ele>88</ele>
<time>2017-09-29T13:03:11Z</time>
</trkpt>
<trkpt lat="53.3489786" lon="18.4381418">
<ele>87</ele>
<time>2017-09-29T13:03:17Z</time>
</trkpt>
<trkpt lat="53.3490217" lon="18.4381576">
<ele>86</ele>
<time>2017-09-29T13:03:23Z</time>
</trkpt>
<trkpt lat="53.3490585" lon="18.4382072">
<ele>84</ele>
<time>2017-09-29T13:03:29Z</time>
</trkpt>
<trkpt lat="53.3490062" lon="18.4385801">
<ele>84</ele>
<time>2017-09-29T13:03:35Z</time>
</trkpt>
<trkpt lat="53.3488923" lon="18.4390355">
<ele>82</ele>
<time>2017-09-29T13:03:41Z</time>
</trkpt>
<trkpt lat="53.3487627" lon="18.4394292">
<ele>82</ele>
<time>2017-09-29T13:03:47Z</time>
</trkpt>
<trkpt lat="53.3486329" lon="18.4398601">
<ele>80</ele>
<time>2017-09-29T13:03:53Z</time>
</trkpt>
<trkpt lat="53.3484369" lon="18.4404182">
<ele>77</ele>
<time>2017-09-29T13:03:59Z</time>
</trkpt>
<trkpt lat="53.3482510" lon="18.4409933">
<ele>75</ele>
<time>2017-09-29T13:04:05Z</time>
</trkpt>
<trkpt lat="53.3480825" lon="18.4415635">
<ele>77</ele>
<time>2017-09-29T13:04:11Z</time>
</trkpt>
<trkpt lat="53.3478096" lon="18.4421814">
<ele>79</ele>
<time>2017-09-29T13:04:17Z</time>
</trkpt>
<trkpt lat="53.3475576" lon="18.4427000">
<ele>79</ele>
<time>2017-09-29T13:04:23Z</time>
</trkpt>
<trkpt lat="53.3474419" lon="18.4428957">
<ele>83</ele>
<time>2017-09-29T13:04:29Z</time>
</trkpt>
<trkpt lat="53.3474419" lon="18.4428957">
<ele>83</ele>
<time>2017-09-29T13:04:35Z</time>
</trkpt>
<trkpt lat="53.3473377" lon="18.4430916">
<ele>84</ele>
<time>2017-09-29T13:04:41Z</time>
</trkpt>
<trkpt lat="53.3472115" lon="18.4434766">
<ele>84</ele>
<time>2017-09-29T13:04:47Z</time>
</trkpt>
<trkpt lat="53.3470505" lon="18.4439731">
<ele>83</ele>
<time>2017-09-29T13:04:53Z</time>
</trkpt>
<trkpt lat="53.3469980" lon="18.4445932">
<ele>81</ele>
<time>2017-09-29T13:04:59Z</time>
</trkpt>
<trkpt lat="53.3471728" lon="18.4449947">
<ele>77</ele>
<time>2017-09-29T13:05:05Z</time>
</trkpt>
<trkpt lat="53.3473803" lon="18.4449555">
<ele>80</ele>
<time>2017-09-29T13:05:11Z</time>
</trkpt>
<trkpt lat="53.3476135" lon="18.4445080">
<ele>78</ele>
<time>2017-09-29T13:05:17Z</time>
</trkpt>
<trkpt lat="53.3478798" lon="18.4444383">
<ele>80</ele>
<time>2017-09-29T13:05:23Z</time>
</trkpt>
<trkpt lat="53.3479979" lon="18.4446186">
<ele>80</ele>
<time>2017-09-29T13:05:29Z</time>
</trkpt>
<trkpt lat="53.3480049" lon="18.4446139">
<ele>81</ele>
<time>2017-09-29T13:05:35Z</time>
</trkpt>
<trkpt lat="53.3482165" lon="18.4447929">
<ele>81</ele>
<time>2017-09-29T13:05:41Z</time>
</trkpt>
<trkpt lat="53.3485797" lon="18.4449107">
<ele>80</ele>
<time>2017-09-29T13:05:47Z</time>
</trkpt>
<trkpt lat="53.3489386" lon="18.4449927">
<ele>79</ele>
<time>2017-09-29T13:05:53Z</time>
</trkpt>
<trkpt lat="53.3492409" lon="18.4453054">
<ele>78</ele>
<time>2017-09-29T13:05:59Z</time>
</trkpt>
<trkpt lat="53.3494517" lon="18.4457478">
<ele>79</ele>
<time>2017-09-29T13:06:05Z</time>
</trkpt>
<trkpt lat="53.3496263" lon="18.4460675">
<ele>80</ele>
<time>2017-09-29T13:06:11Z</time>
</trkpt>
<trkpt lat="53.3499033" lon="18.4466244">
<ele>80</ele>
<time>2017-09-29T13:06:17Z</time>
</trkpt>
<trkpt lat="53.3502818" lon="18.4473758">
<ele>79</ele>
<time>2017-09-29T13:06:23Z</time>
</trkpt>
<trkpt lat="53.3507360" lon="18.4482637">
<ele>73</ele>
<time>2017-09-29T13:06:29Z</time>
</trkpt>
<trkpt lat="53.3512508" lon="18.4492048">
<ele>69</ele>
<time>2017-09-29T13:06:35Z</time>
</trkpt>
<trkpt lat="53.3516347" lon="18.4500399">
<ele>65</ele>
<time>2017-09-29T13:06:41Z</time>
</trkpt>
<trkpt lat="53.3518628" lon="18.4506490">
<ele>64</ele>
<time>2017-09-29T13:06:47Z</time>
</trkpt>
<trkpt lat="53.3519014" lon="18.4507759">
<ele>62</ele>
<time>2017-09-29T13:06:53Z</time>
</trkpt>
<trkpt lat="53.3519014" lon="18.4507759">
<ele>62</ele>
<time>2017-09-29T13:07:05Z</time>
</trkpt>
<trkpt lat="53.3519732" lon="18.4509367">
<ele>61</ele>
<time>2017-09-29T13:07:11Z</time>
</trkpt>
<trkpt lat="53.3522290" lon="18.4509582">
<ele>63</ele>
<time>2017-09-29T13:07:17Z</time>
</trkpt>
<trkpt lat="53.3526587" lon="18.4505464">
<ele>60</ele>
<time>2017-09-29T13:07:23Z</time>
</trkpt>
<trkpt lat="53.3531772" lon="18.4499987">
<ele>57</ele>
<time>2017-09-29T13:07:29Z</time>
</trkpt>
<trkpt lat="53.3537815" lon="18.4491328">
<ele>54</ele>
<time>2017-09-29T13:07:35Z</time>
</trkpt>
<trkpt lat="53.3544310" lon="18.4480643">
<ele>49</ele>
<time>2017-09-29T13:07:41Z</time>
</trkpt>
<trkpt lat="53.3551613" lon="18.4467848">
<ele>45</ele>
<time>2017-09-29T13:07:47Z</time>
</trkpt>
<trkpt lat="53.3558662" lon="18.4455745">
<ele>46</ele>
<time>2017-09-29T13:07:53Z</time>
</trkpt>
<trkpt lat="53.3565699" lon="18.4443928">
<ele>45</ele>
<time>2017-09-29T13:07:59Z</time>
</trkpt>
<trkpt lat="53.3573371" lon="18.4431294">
<ele>44</ele>
<time>2017-09-29T13:08:05Z</time>
</trkpt>
<trkpt lat="53.3581349" lon="18.4418311">
<ele>43</ele>
<time>2017-09-29T13:08:11Z</time>
</trkpt>
<trkpt lat="53.3589381" lon="18.4404903">
<ele>42</ele>
<time>2017-09-29T13:08:17Z</time>
</trkpt>
<trkpt lat="53.3597383" lon="18.4391375">
<ele>43</ele>
<time>2017-09-29T13:08:23Z</time>
</trkpt>
<trkpt lat="53.3604302" lon="18.4379437">
<ele>44</ele>
<time>2017-09-29T13:08:29Z</time>
</trkpt>
<trkpt lat="53.3609957" lon="18.4370532">
<ele>45</ele>
<time>2017-09-29T13:08:35Z</time>
</trkpt>
<trkpt lat="53.3616259" lon="18.4362831">
<ele>45</ele>
<time>2017-09-29T13:08:41Z</time>
</trkpt>
<trkpt lat="53.3623519" lon="18.4355278">
<ele>46</ele>
<time>2017-09-29T13:08:47Z</time>
</trkpt>
<trkpt lat="53.3631428" lon="18.4347181">
<ele>47</ele>
<time>2017-09-29T13:08:53Z</time>
</trkpt>
<trkpt lat="53.3639978" lon="18.4338586">
<ele>49</ele>
<time>2017-09-29T13:08:59Z</time>
</trkpt>
<trkpt lat="53.3648709" lon="18.4329585">
<ele>51</ele>
<time>2017-09-29T13:09:05Z</time>
</trkpt>
<trkpt lat="53.3657649" lon="18.4320352">
<ele>53</ele>
<time>2017-09-29T13:09:11Z</time>
</trkpt>
<trkpt lat="53.3666866" lon="18.4310719">
<ele>55</ele>
<time>2017-09-29T13:09:17Z</time>
</trkpt>
<trkpt lat="53.3676207" lon="18.4301013">
<ele>57</ele>
<time>2017-09-29T13:09:23Z</time>
</trkpt>
<trkpt lat="53.3685730" lon="18.4291256">
<ele>59</ele>
<time>2017-09-29T13:09:29Z</time>
</trkpt>
<trkpt lat="53.3695437" lon="18.4281243">
<ele>60</ele>
<time>2017-09-29T13:09:35Z</time>
</trkpt>
<trkpt lat="53.3705170" lon="18.4271244">
<ele>60</ele>
<time>2017-09-29T13:09:41Z</time>
</trkpt>
<trkpt lat="53.3714574" lon="18.4261370">
<ele>61</ele>
<time>2017-09-29T13:09:47Z</time>
</trkpt>
<trkpt lat="53.3723793" lon="18.4251812">
<ele>60</ele>
<time>2017-09-29T13:09:53Z</time>
</trkpt>
<trkpt lat="53.3733216" lon="18.4242175">
<ele>61</ele>
<time>2017-09-29T13:09:59Z</time>
</trkpt>
<trkpt lat="53.3742758" lon="18.4232335">
<ele>61</ele>
<time>2017-09-29T13:10:05Z</time>
</trkpt>
<trkpt lat="53.3752256" lon="18.4222416">
<ele>59</ele>
<time>2017-09-29T13:10:11Z</time>
</trkpt>
<trkpt lat="53.3761864" lon="18.4212643">
<ele>58</ele>
<time>2017-09-29T13:10:17Z</time>
</trkpt>
<trkpt lat="53.3771486" lon="18.4202825">
<ele>59</ele>
<time>2017-09-29T13:10:23Z</time>
</trkpt>
<trkpt lat="53.3780907" lon="18.4192993">
<ele>59</ele>
<time>2017-09-29T13:10:29Z</time>
</trkpt>
<trkpt lat="53.3790596" lon="18.4182912">
<ele>59</ele>
<time>2017-09-29T13:10:35Z</time>
</trkpt>
<trkpt lat="53.3800303" lon="18.4172941">
<ele>59</ele>
<time>2017-09-29T13:10:41Z</time>
</trkpt>
<trkpt lat="53.3809909" lon="18.4162921">
<ele>58</ele>
<time>2017-09-29T13:10:47Z</time>
</trkpt>
<trkpt lat="53.3819480" lon="18.4153065">
<ele>57</ele>
<time>2017-09-29T13:10:53Z</time>
</trkpt>
<trkpt lat="53.3829120" lon="18.4143017">
<ele>58</ele>
<time>2017-09-29T13:10:59Z</time>
</trkpt>
<trkpt lat="53.3838801" lon="18.4133026">
<ele>57</ele>
<time>2017-09-29T13:11:05Z</time>
</trkpt>
<trkpt lat="53.3848545" lon="18.4122855">
<ele>56</ele>
<time>2017-09-29T13:11:11Z</time>
</trkpt>
<trkpt lat="53.3858379" lon="18.4112695">
<ele>57</ele>
<time>2017-09-29T13:11:17Z</time>
</trkpt>
<trkpt lat="53.3868066" lon="18.4102493">
<ele>56</ele>
<time>2017-09-29T13:11:23Z</time>
</trkpt>
<trkpt lat="53.3877681" lon="18.4092484">
<ele>55</ele>
<time>2017-09-29T13:11:29Z</time>
</trkpt>
<trkpt lat="53.3886925" lon="18.4082856">
<ele>55</ele>
<time>2017-09-29T13:11:35Z</time>
</trkpt>
<trkpt lat="53.3895918" lon="18.4073658">
<ele>56</ele>
<time>2017-09-29T13:11:41Z</time>
</trkpt>
<trkpt lat="53.3904807" lon="18.4064922">
<ele>56</ele>
<time>2017-09-29T13:11:47Z</time>
</trkpt>
<trkpt lat="53.3913764" lon="18.4055860">
<ele>55</ele>
<time>2017-09-29T13:11:53Z</time>
</trkpt>
<trkpt lat="53.3923086" lon="18.4046678">
<ele>54</ele>
<time>2017-09-29T13:11:59Z</time>
</trkpt>
<trkpt lat="53.3932742" lon="18.4037636">
<ele>55</ele>
<time>2017-09-29T13:12:05Z</time>
</trkpt>
<trkpt lat="53.3942584" lon="18.4029931">
<ele>55</ele>
<time>2017-09-29T13:12:11Z</time>
</trkpt>
<trkpt lat="53.3952443" lon="18.4023894">
<ele>57</ele>
<time>2017-09-29T13:12:17Z</time>
</trkpt>
<trkpt lat="53.3962470" lon="18.4018513">
<ele>60</ele>
<time>2017-09-29T13:12:23Z</time>
</trkpt>
<trkpt lat="53.3972504" lon="18.4013174">
<ele>61</ele>
<time>2017-09-29T13:12:29Z</time>
</trkpt>
<trkpt lat="53.3982532" lon="18.4007761">
<ele>64</ele>
<time>2017-09-29T13:12:35Z</time>
</trkpt>
<trkpt lat="53.3992730" lon="18.4002304">
<ele>65</ele>
<time>2017-09-29T13:12:41Z</time>
</trkpt>
<trkpt lat="53.4002963" lon="18.3996160">
<ele>65</ele>
<time>2017-09-29T13:12:47Z</time>
</trkpt>
<trkpt lat="53.4013082" lon="18.3987424">
<ele>66</ele>
<time>2017-09-29T13:12:53Z</time>
</trkpt>
<trkpt lat="53.4022479" lon="18.3976116">
<ele>65</ele>
<time>2017-09-29T13:12:59Z</time>
</trkpt>
<trkpt lat="53.4030313" lon="18.3963197">
<ele>65</ele>
<time>2017-09-29T13:13:05Z</time>
</trkpt>
<trkpt lat="53.4035940" lon="18.3952406">
<ele>66</ele>
<time>2017-09-29T13:13:11Z</time>
</trkpt>
<trkpt lat="53.4039685" lon="18.3944706">
<ele>64</ele>
<time>2017-09-29T13:13:17Z</time>
</trkpt>
<trkpt lat="53.4042520" lon="18.3939109">
<ele>64</ele>
<time>2017-09-29T13:13:23Z</time>
</trkpt>
<trkpt lat="53.4046068" lon="18.3932135">
<ele>64</ele>
<time>2017-09-29T13:13:29Z</time>
</trkpt>
<trkpt lat="53.4051018" lon="18.3923236">
<ele>64</ele>
<time>2017-09-29T13:13:35Z</time>
</trkpt>
<trkpt lat="53.4056138" lon="18.3912958">
<ele>64</ele>
<time>2017-09-29T13:13:41Z</time>
</trkpt>
<trkpt lat="53.4061411" lon="18.3899938">
<ele>64</ele>
<time>2017-09-29T13:13:47Z</time>
</trkpt>
<trkpt lat="53.4065932" lon="18.3884864">
<ele>65</ele>
<time>2017-09-29T13:13:53Z</time>
</trkpt>
<trkpt lat="53.4069557" lon="18.3869577">
<ele>64</ele>
<time>2017-09-29T13:13:59Z</time>
</trkpt>
<trkpt lat="53.4073377" lon="18.3854004">
<ele>65</ele>
<time>2017-09-29T13:14:05Z</time>
</trkpt>
<trkpt lat="53.4077464" lon="18.3838242">
<ele>68</ele>
<time>2017-09-29T13:14:11Z</time>
</trkpt>
<trkpt lat="53.4081438" lon="18.3822621">
<ele>68</ele>
<time>2017-09-29T13:14:17Z</time>
</trkpt>
<trkpt lat="53.4085299" lon="18.3807155">
<ele>67</ele>
<time>2017-09-29T13:14:23Z</time>
</trkpt>
<trkpt lat="53.4089092" lon="18.3790621">
<ele>66</ele>
<time>2017-09-29T13:14:29Z</time>
</trkpt>
<trkpt lat="53.4093911" lon="18.3775335">
<ele>67</ele>
<time>2017-09-29T13:14:35Z</time>
</trkpt>
<trkpt lat="53.4099831" lon="18.3762834">
<ele>68</ele>
<time>2017-09-29T13:14:41Z</time>
</trkpt>
<trkpt lat="53.4105832" lon="18.3751393">
<ele>69</ele>
<time>2017-09-29T13:14:47Z</time>
</trkpt>
<trkpt lat="53.4111893" lon="18.3740110">
<ele>70</ele>
<time>2017-09-29T13:14:53Z</time>
</trkpt>
<trkpt lat="53.4118327" lon="18.3728409">
<ele>72</ele>
<time>2017-09-29T13:14:59Z</time>
</trkpt>
<trkpt lat="53.4124564" lon="18.3715202">
<ele>73</ele>
<time>2017-09-29T13:15:05Z</time>
</trkpt>
<trkpt lat="53.4129692" lon="18.3700006">
<ele>74</ele>
<time>2017-09-29T13:15:11Z</time>
</trkpt>
<trkpt lat="53.4133324" lon="18.3683832">
<ele>75</ele>
<time>2017-09-29T13:15:17Z</time>
</trkpt>
<trkpt lat="53.4136323" lon="18.3667270">
<ele>75</ele>
<time>2017-09-29T13:15:23Z</time>
</trkpt>
<trkpt lat="53.4139538" lon="18.3651377">
<ele>76</ele>
<time>2017-09-29T13:15:29Z</time>
</trkpt>
<trkpt lat="53.4143232" lon="18.3635806">
<ele>77</ele>
<time>2017-09-29T13:15:35Z</time>
</trkpt>
<trkpt lat="53.4148521" lon="18.3622618">
<ele>80</ele>
<time>2017-09-29T13:15:41Z</time>
</trkpt>
<trkpt lat="53.4154746" lon="18.3609882">
<ele>82</ele>
<time>2017-09-29T13:15:47Z</time>
</trkpt>
<trkpt lat="53.4161407" lon="18.3596820">
<ele>84</ele>
<time>2017-09-29T13:15:53Z</time>
</trkpt>
<trkpt lat="53.4167802" lon="18.3582617">
<ele>85</ele>
<time>2017-09-29T13:15:59Z</time>
</trkpt>
<trkpt lat="53.4172982" lon="18.3566777">
<ele>86</ele>
<time>2017-09-29T13:16:05Z</time>
</trkpt>
<trkpt lat="53.4176721" lon="18.3549472">
<ele>88</ele>
<time>2017-09-29T13:16:11Z</time>
</trkpt>
<trkpt lat="53.4179748" lon="18.3531455">
<ele>89</ele>
<time>2017-09-29T13:16:17Z</time>
</trkpt>
<trkpt lat="53.4182519" lon="18.3513464">
<ele>90</ele>
<time>2017-09-29T13:16:23Z</time>
</trkpt>
<trkpt lat="53.4189736" lon="18.3478940">
<ele>95</ele>
<time>2017-09-29T13:16:35Z</time>
</trkpt>
<trkpt lat="53.4185686" lon="18.3495846">
<ele>92</ele>
<time>2017-09-29T13:16:29Z</time>
</trkpt>
<trkpt lat="53.4194611" lon="18.3462539">
<ele>99</ele>
<time>2017-09-29T13:16:41Z</time>
</trkpt>
<trkpt lat="53.4199839" lon="18.3446291">
<ele>101</ele>
<time>2017-09-29T13:16:47Z</time>
</trkpt>
<trkpt lat="53.4205147" lon="18.3429535">
<ele>101</ele>
<time>2017-09-29T13:16:53Z</time>
</trkpt>
<trkpt lat="53.4210636" lon="18.3412599">
<ele>103</ele>
<time>2017-09-29T13:16:59Z</time>
</trkpt>
<trkpt lat="53.4216175" lon="18.3395724">
<ele>105</ele>
<time>2017-09-29T13:17:05Z</time>
</trkpt>
<trkpt lat="53.4221762" lon="18.3378694">
<ele>105</ele>
<time>2017-09-29T13:17:11Z</time>
</trkpt>
<trkpt lat="53.4227352" lon="18.3361542">
<ele>104</ele>
<time>2017-09-29T13:17:17Z</time>
</trkpt>
<trkpt lat="53.4232895" lon="18.3344220">
<ele>104</ele>
<time>2017-09-29T13:17:23Z</time>
</trkpt>
<trkpt lat="53.4238696" lon="18.3326473">
<ele>103</ele>
<time>2017-09-29T13:17:29Z</time>
</trkpt>
<trkpt lat="53.4244372" lon="18.3308822">
<ele>104</ele>
<time>2017-09-29T13:17:35Z</time>
</trkpt>
<trkpt lat="53.4250076" lon="18.3291241">
<ele>105</ele>
<time>2017-09-29T13:17:41Z</time>
</trkpt>
<trkpt lat="53.4255891" lon="18.3273370">
<ele>107</ele>
<time>2017-09-29T13:17:47Z</time>
</trkpt>
<trkpt lat="53.4261834" lon="18.3254978">
<ele>106</ele>
<time>2017-09-29T13:17:53Z</time>
</trkpt>
<trkpt lat="53.4267910" lon="18.3236572">
<ele>107</ele>
<time>2017-09-29T13:17:59Z</time>
</trkpt>
<trkpt lat="53.4273740" lon="18.3218601">
<ele>107</ele>
<time>2017-09-29T13:18:05Z</time>
</trkpt>
<trkpt lat="53.4279307" lon="18.3201232">
<ele>104</ele>
<time>2017-09-29T13:18:11Z</time>
</trkpt>
<trkpt lat="53.4284933" lon="18.3183744">
<ele>103</ele>
<time>2017-09-29T13:18:17Z</time>
</trkpt>
<trkpt lat="53.4290495" lon="18.3166874">
<ele>106</ele>
<time>2017-09-29T13:18:23Z</time>
</trkpt>
<trkpt lat="53.4295603" lon="18.3151118">
<ele>111</ele>
<time>2017-09-29T13:18:29Z</time>
</trkpt>
<trkpt lat="53.4300584" lon="18.3135847">
<ele>113</ele>
<time>2017-09-29T13:18:35Z</time>
</trkpt>
<trkpt lat="53.4305478" lon="18.3120599">
<ele>114</ele>
<time>2017-09-29T13:18:41Z</time>
</trkpt>
<trkpt lat="53.4309722" lon="18.3107944">
<ele>113</ele>
<time>2017-09-29T13:18:47Z</time>
</trkpt>
<trkpt lat="53.4313090" lon="18.3097015">
<ele>115</ele>
<time>2017-09-29T13:18:53Z</time>
</trkpt>
<trkpt lat="53.4316342" lon="18.3086146">
<ele>113</ele>
<time>2017-09-29T13:18:59Z</time>
</trkpt>
<trkpt lat="53.4319837" lon="18.3075277">
<ele>113</ele>
<time>2017-09-29T13:19:05Z</time>
</trkpt>
<trkpt lat="53.4323568" lon="18.3063594">
<ele>112</ele>
<time>2017-09-29T13:19:11Z</time>
</trkpt>
<trkpt lat="53.4327641" lon="18.3050935">
<ele>112</ele>
<time>2017-09-29T13:19:17Z</time>
</trkpt>
<trkpt lat="53.4331783" lon="18.3038260">
<ele>110</ele>
<time>2017-09-29T13:19:23Z</time>
</trkpt>
<trkpt lat="53.4334938" lon="18.3028449">
<ele>111</ele>
<time>2017-09-29T13:19:29Z</time>
</trkpt>
<trkpt lat="53.4338820" lon="18.3016249">
<ele>110</ele>
<time>2017-09-29T13:19:35Z</time>
</trkpt>
<trkpt lat="53.4343219" lon="18.3002343">
<ele>111</ele>
<time>2017-09-29T13:19:41Z</time>
</trkpt>
<trkpt lat="53.4347716" lon="18.2988102">
<ele>110</ele>
<time>2017-09-29T13:19:47Z</time>
</trkpt>
<trkpt lat="53.4352454" lon="18.2973366">
<ele>109</ele>
<time>2017-09-29T13:19:53Z</time>
</trkpt>
<trkpt lat="53.4357456" lon="18.2957799">
<ele>108</ele>
<time>2017-09-29T13:19:59Z</time>
</trkpt>
<trkpt lat="53.4362308" lon="18.2942487">
<ele>107</ele>
<time>2017-09-29T13:20:05Z</time>
</trkpt>
<trkpt lat="53.4367425" lon="18.2926925">
<ele>109</ele>
<time>2017-09-29T13:20:11Z</time>
</trkpt>
<trkpt lat="53.4372643" lon="18.2910949">
<ele>111</ele>
<time>2017-09-29T13:20:17Z</time>
</trkpt>
<trkpt lat="53.4377933" lon="18.2894361">
<ele>113</ele>
<time>2017-09-29T13:20:23Z</time>
</trkpt>
<trkpt lat="53.4383291" lon="18.2878041">
<ele>114</ele>
<time>2017-09-29T13:20:29Z</time>
</trkpt>
<trkpt lat="53.4387702" lon="18.2865165">
<ele>112</ele>
<time>2017-09-29T13:20:35Z</time>
</trkpt>
<trkpt lat="53.4389766" lon="18.2858939">
<ele>114</ele>
<time>2017-09-29T13:20:41Z</time>
</trkpt>
<trkpt lat="53.4390186" lon="18.2856896">
<ele>114</ele>
<time>2017-09-29T13:20:47Z</time>
</trkpt>
<trkpt lat="53.4390055" lon="18.2856914">
<ele>114</ele>
<time>2017-09-29T13:20:53Z</time>
</trkpt>
<trkpt lat="53.4390504" lon="18.2855529">
<ele>115</ele>
<time>2017-09-29T13:20:59Z</time>
</trkpt>
<trkpt lat="53.4392202" lon="18.2850261">
<ele>115</ele>
<time>2017-09-29T13:21:05Z</time>
</trkpt>
<trkpt lat="53.4394436" lon="18.2841730">
<ele>116</ele>
<time>2017-09-29T13:21:11Z</time>
</trkpt>
<trkpt lat="53.4396947" lon="18.2833755">
<ele>117</ele>
<time>2017-09-29T13:21:17Z</time>
</trkpt>
<trkpt lat="53.4400093" lon="18.2824475">
<ele>118</ele>
<time>2017-09-29T13:21:23Z</time>
</trkpt>
<trkpt lat="53.4403687" lon="18.2813925">
<ele>119</ele>
<time>2017-09-29T13:21:29Z</time>
</trkpt>
<trkpt lat="53.4407660" lon="18.2802149">
<ele>120</ele>
<time>2017-09-29T13:21:35Z</time>
</trkpt>
<trkpt lat="53.4412129" lon="18.2787861">
<ele>119</ele>
<time>2017-09-29T13:21:41Z</time>
</trkpt>
<trkpt lat="53.4416926" lon="18.2773307">
<ele>117</ele>
<time>2017-09-29T13:21:47Z</time>
</trkpt>
<trkpt lat="53.4421888" lon="18.2757992">
<ele>115</ele>
<time>2017-09-29T13:21:53Z</time>
</trkpt>
<trkpt lat="53.4427239" lon="18.2741412">
<ele>114</ele>
<time>2017-09-29T13:21:59Z</time>
</trkpt>
<trkpt lat="53.4432609" lon="18.2724284">
<ele>113</ele>
<time>2017-09-29T13:22:05Z</time>
</trkpt>
<trkpt lat="53.4438185" lon="18.2707125">
<ele>113</ele>
<time>2017-09-29T13:22:11Z</time>
</trkpt>
<trkpt lat="53.4443648" lon="18.2689841">
<ele>114</ele>
<time>2017-09-29T13:22:17Z</time>
</trkpt>
<trkpt lat="53.4449047" lon="18.2672354">
<ele>114</ele>
<time>2017-09-29T13:22:23Z</time>
</trkpt>
<trkpt lat="53.4454613" lon="18.2654484">
<ele>114</ele>
<time>2017-09-29T13:22:29Z</time>
</trkpt>
<trkpt lat="53.4460102" lon="18.2636408">
<ele>112</ele>
<time>2017-09-29T13:22:35Z</time>
</trkpt>
<trkpt lat="53.4465618" lon="18.2618251">
<ele>111</ele>
<time>2017-09-29T13:22:41Z</time>
</trkpt>
<trkpt lat="53.4469089" lon="18.2599073">
<ele>113</ele>
<time>2017-09-29T13:22:47Z</time>
</trkpt>
<trkpt lat="53.4472663" lon="18.2559934">
<ele>114</ele>
<time>2017-09-29T13:22:59Z</time>
</trkpt>
<trkpt lat="53.4474665" lon="18.2540868">
<ele>116</ele>
<time>2017-09-29T13:23:05Z</time>
</trkpt>
<trkpt lat="53.4477342" lon="18.2522986">
<ele>117</ele>
<time>2017-09-29T13:23:11Z</time>
</trkpt>
<trkpt lat="53.4480207" lon="18.2505498">
<ele>119</ele>
<time>2017-09-29T13:23:17Z</time>
</trkpt>
<trkpt lat="53.4482965" lon="18.2488798">
<ele>121</ele>
<time>2017-09-29T13:23:23Z</time>
</trkpt>
<trkpt lat="53.4485570" lon="18.2472538">
<ele>123</ele>
<time>2017-09-29T13:23:29Z</time>
</trkpt>
<trkpt lat="53.4488214" lon="18.2457411">
<ele>124</ele>
<time>2017-09-29T13:23:35Z</time>
</trkpt>
<trkpt lat="53.4490761" lon="18.2442294">
<ele>125</ele>
<time>2017-09-29T13:23:41Z</time>
</trkpt>
<trkpt lat="53.4493347" lon="18.2425793">
<ele>124</ele>
<time>2017-09-29T13:23:47Z</time>
</trkpt>
<trkpt lat="53.4496188" lon="18.2407477">
<ele>122</ele>
<time>2017-09-29T13:23:53Z</time>
</trkpt>
<trkpt lat="53.4499296" lon="18.2387759">
<ele>122</ele>
<time>2017-09-29T13:23:59Z</time>
</trkpt>
<trkpt lat="53.4502286" lon="18.2368052">
<ele>122</ele>
<time>2017-09-29T13:24:05Z</time>
</trkpt>
<trkpt lat="53.4505441" lon="18.2347984">
<ele>122</ele>
<time>2017-09-29T13:24:11Z</time>
</trkpt>
<trkpt lat="53.4508646" lon="18.2327670">
<ele>122</ele>
<time>2017-09-29T13:24:17Z</time>
</trkpt>
<trkpt lat="53.4511806" lon="18.2307673">
<ele>122</ele>
<time>2017-09-29T13:24:23Z</time>
</trkpt>
<trkpt lat="53.4513677" lon="18.2294201">
<ele>121</ele>
<time>2017-09-29T13:24:29Z</time>
</trkpt>
<trkpt lat="53.4515758" lon="18.2280645">
<ele>121</ele>
<time>2017-09-29T13:24:35Z</time>
</trkpt>
<trkpt lat="53.4518181" lon="18.2265450">
<ele>121</ele>
<time>2017-09-29T13:24:41Z</time>
</trkpt>
<trkpt lat="53.4523388" lon="18.2232203">
<ele>122</ele>
<time>2017-09-29T13:24:53Z</time>
</trkpt>
<trkpt lat="53.4526327" lon="18.2213723">
<ele>122</ele>
<time>2017-09-29T13:24:59Z</time>
</trkpt>
<trkpt lat="53.4528747" lon="18.2193907">
<ele>122</ele>
<time>2017-09-29T13:25:05Z</time>
</trkpt>
<trkpt lat="53.4530414" lon="18.2173590">
<ele>124</ele>
<time>2017-09-29T13:25:11Z</time>
</trkpt>
<trkpt lat="53.4532224" lon="18.2153499">
<ele>124</ele>
<time>2017-09-29T13:25:17Z</time>
</trkpt>
<trkpt lat="53.4534046" lon="18.2132977">
<ele>124</ele>
<time>2017-09-29T13:25:23Z</time>
</trkpt>
<trkpt lat="53.4535909" lon="18.2112538">
<ele>125</ele>
<time>2017-09-29T13:25:29Z</time>
</trkpt>
<trkpt lat="53.4537551" lon="18.2093078">
<ele>125</ele>
<time>2017-09-29T13:25:35Z</time>
</trkpt>
<trkpt lat="53.4539395" lon="18.2074007">
<ele>124</ele>
<time>2017-09-29T13:25:41Z</time>
</trkpt>
<trkpt lat="53.4541080" lon="18.2054286">
<ele>122</ele>
<time>2017-09-29T13:25:47Z</time>
</trkpt>
<trkpt lat="53.4543328" lon="18.2035132">
<ele>121</ele>
<time>2017-09-29T13:25:53Z</time>
</trkpt>
<trkpt lat="53.4548902" lon="18.2018823">
<ele>123</ele>
<time>2017-09-29T13:25:59Z</time>
</trkpt>
<trkpt lat="53.4555642" lon="18.2002793">
<ele>124</ele>
<time>2017-09-29T13:26:05Z</time>
</trkpt>
<trkpt lat="53.4562473" lon="18.1985813">
<ele>124</ele>
<time>2017-09-29T13:26:11Z</time>
</trkpt>
<trkpt lat="53.4569514" lon="18.1968339">
<ele>125</ele>
<time>2017-09-29T13:26:17Z</time>
</trkpt>
<trkpt lat="53.4576408" lon="18.1951064">
<ele>126</ele>
<time>2017-09-29T13:26:23Z</time>
</trkpt>
<trkpt lat="53.4583143" lon="18.1934529">
<ele>125</ele>
<time>2017-09-29T13:26:29Z</time>
</trkpt>
<trkpt lat="53.4589939" lon="18.1917644">
<ele>127</ele>
<time>2017-09-29T13:26:35Z</time>
</trkpt>
<trkpt lat="53.4596890" lon="18.1900542">
<ele>128</ele>
<time>2017-09-29T13:26:41Z</time>
</trkpt>
<trkpt lat="53.4603760" lon="18.1883567">
<ele>128</ele>
<time>2017-09-29T13:26:47Z</time>
</trkpt>
<trkpt lat="53.4610383" lon="18.1866773">
<ele>131</ele>
<time>2017-09-29T13:26:53Z</time>
</trkpt>
<trkpt lat="53.4617121" lon="18.1850212">
<ele>133</ele>
<time>2017-09-29T13:26:59Z</time>
</trkpt>
<trkpt lat="53.4623801" lon="18.1833568">
<ele>134</ele>
<time>2017-09-29T13:27:05Z</time>
</trkpt>
<trkpt lat="53.4630579" lon="18.1816986">
<ele>135</ele>
<time>2017-09-29T13:27:11Z</time>
</trkpt>
<trkpt lat="53.4637441" lon="18.1800147">
<ele>135</ele>
<time>2017-09-29T13:27:17Z</time>
</trkpt>
<trkpt lat="53.4644516" lon="18.1782746">
<ele>135</ele>
<time>2017-09-29T13:27:23Z</time>
</trkpt>
<trkpt lat="53.4651766" lon="18.1764616">
<ele>132</ele>
<time>2017-09-29T13:27:29Z</time>
</trkpt>
<trkpt lat="53.4659368" lon="18.1746108">
<ele>135</ele>
<time>2017-09-29T13:27:35Z</time>
</trkpt>
<trkpt lat="53.4666403" lon="18.1728759">
<ele>135</ele>
<time>2017-09-29T13:27:41Z</time>
</trkpt>
<trkpt lat="53.4687" lon="18.1679">
<ele>131</ele>
<time>2017-09-29T13:27:59Z</time>
</trkpt>
<trkpt lat="53.4693" lon="18.1663">
<ele>131</ele>
<time>2017-09-29T13:28:05Z</time>
</trkpt>
<trkpt lat="53.47" lon="18.1647">
<ele>131</ele>
<time>2017-09-29T13:28:11Z</time>
</trkpt>
<trkpt lat="53.4707" lon="18.1631">
<ele>131</ele>
<time>2017-09-29T13:28:17Z</time>
</trkpt>
<trkpt lat="53.4714" lon="18.1613">
<ele>129</ele>
<time>2017-09-29T13:28:23Z</time>
</trkpt>
<trkpt lat="53.4722" lon="18.1593">
<ele>127</ele>
<time>2017-09-29T13:28:30Z</time>
</trkpt>
<trkpt lat="53.4729" lon="18.1577">
<ele>125</ele>
<time>2017-09-29T13:28:36Z</time>
</trkpt>
<trkpt lat="53.4736" lon="18.156">
<ele>126</ele>
<time>2017-09-29T13:28:42Z</time>
</trkpt>
<trkpt lat="53.4743" lon="18.1543">
<ele>127</ele>
<time>2017-09-29T13:28:48Z</time>
</trkpt>
<trkpt lat="53.4749430" lon="18.1526567">
<ele>127</ele>
<time>2017-09-29T13:28:54Z</time>
</trkpt>
<trkpt lat="53.4755857" lon="18.1510352">
<ele>127</ele>
<time>2017-09-29T13:29:00Z</time>
</trkpt>
<trkpt lat="53.4768571" lon="18.1477772">
<ele>128</ele>
<time>2017-09-29T13:29:12Z</time>
</trkpt>
<trkpt lat="53.4775115" lon="18.1461223">
<ele>126</ele>
<time>2017-09-29T13:29:18Z</time>
</trkpt>
<trkpt lat="53.4781703" lon="18.1444574">
<ele>125</ele>
<time>2017-09-29T13:29:24Z</time>
</trkpt>
<trkpt lat="53.4788018" lon="18.1428582">
<ele>125</ele>
<time>2017-09-29T13:29:30Z</time>
</trkpt>
<trkpt lat="53.4794674" lon="18.1411501">
<ele>125</ele>
<time>2017-09-29T13:29:36Z</time>
</trkpt>
<trkpt lat="53.4801452" lon="18.1394547">
<ele>124</ele>
<time>2017-09-29T13:29:42Z</time>
</trkpt>
<trkpt lat="53.4807962" lon="18.1378090">
<ele>124</ele>
<time>2017-09-29T13:29:48Z</time>
</trkpt>
<trkpt lat="53.4814381" lon="18.1361601">
<ele>124</ele>
<time>2017-09-29T13:29:54Z</time>
</trkpt>
<trkpt lat="53.4820916" lon="18.1345289">
<ele>124</ele>
<time>2017-09-29T13:30:00Z</time>
</trkpt>
<trkpt lat="53.4827606" lon="18.1328369">
<ele>123</ele>
<time>2017-09-29T13:30:06Z</time>
</trkpt>
<trkpt lat="53.4834338" lon="18.1311372">
<ele>122</ele>
<time>2017-09-29T13:30:12Z</time>
</trkpt>
<trkpt lat="53.4840965" lon="18.1294291">
<ele>120</ele>
<time>2017-09-29T13:30:18Z</time>
</trkpt>
<trkpt lat="53.4847594" lon="18.1277189">
<ele>120</ele>
<time>2017-09-29T13:30:24Z</time>
</trkpt>
<trkpt lat="53.4853096" lon="18.1259595">
<ele>119</ele>
<time>2017-09-29T13:30:30Z</time>
</trkpt>
<trkpt lat="53.4856405" lon="18.1239983">
<ele>119</ele>
<time>2017-09-29T13:30:36Z</time>
</trkpt>
<trkpt lat="53.4859860" lon="18.1219996">
<ele>120</ele>
<time>2017-09-29T13:30:42Z</time>
</trkpt>
<trkpt lat="53.4863052" lon="18.1200272">
<ele>124</ele>
<time>2017-09-29T13:30:48Z</time>
</trkpt>
<trkpt lat="53.4866337" lon="18.1181556">
<ele>125</ele>
<time>2017-09-29T13:30:54Z</time>
</trkpt>
<trkpt lat="53.4869373" lon="18.1163895">
<ele>124</ele>
<time>2017-09-29T13:31:00Z</time>
</trkpt>
<trkpt lat="53.4872222" lon="18.1146738">
<ele>122</ele>
<time>2017-09-29T13:31:06Z</time>
</trkpt>
<trkpt lat="53.4875099" lon="18.1128919">
<ele>120</ele>
<time>2017-09-29T13:31:12Z</time>
</trkpt>
<trkpt lat="53.4878144" lon="18.1110038">
<ele>121</ele>
<time>2017-09-29T13:31:18Z</time>
</trkpt>
<trkpt lat="53.4881128" lon="18.1090743">
<ele>120</ele>
<time>2017-09-29T13:31:24Z</time>
</trkpt>
<trkpt lat="53.4883876" lon="18.1072212">
<ele>119</ele>
<time>2017-09-29T13:31:30Z</time>
</trkpt>
<trkpt lat="53.4887265" lon="18.1053494">
<ele>119</ele>
<time>2017-09-29T13:31:36Z</time>
</trkpt>
<trkpt lat="53.4890521" lon="18.1034531">
<ele>118</ele>
<time>2017-09-29T13:31:42Z</time>
</trkpt>
<trkpt lat="53.4893689" lon="18.1014813">
<ele>117</ele>
<time>2017-09-29T13:31:48Z</time>
</trkpt>
<trkpt lat="53.4896757" lon="18.0995702">
<ele>116</ele>
<time>2017-09-29T13:31:54Z</time>
</trkpt>
<trkpt lat="53.4899760" lon="18.0976727">
<ele>116</ele>
<time>2017-09-29T13:32:00Z</time>
</trkpt>
<trkpt lat="53.4908170" lon="18.0939813">
<ele>119</ele>
<time>2017-09-29T13:32:12Z</time>
</trkpt>
<trkpt lat="53.4912988" lon="18.0921598">
<ele>121</ele>
<time>2017-09-29T13:32:18Z</time>
</trkpt>
<trkpt lat="53.4917739" lon="18.0903350">
<ele>121</ele>
<time>2017-09-29T13:32:24Z</time>
</trkpt>
<trkpt lat="53.4927612" lon="18.0867200">
<ele>122</ele>
<time>2017-09-29T13:32:36Z</time>
</trkpt>
<trkpt lat="53.4932386" lon="18.0849123">
<ele>123</ele>
<time>2017-09-29T13:32:42Z</time>
</trkpt>
<trkpt lat="53.4937149" lon="18.0830995">
<ele>123</ele>
<time>2017-09-29T13:32:48Z</time>
</trkpt>
<trkpt lat="53.4941999" lon="18.0812125">
<ele>124</ele>
<time>2017-09-29T13:32:54Z</time>
</trkpt>
<trkpt lat="53.4944505" lon="18.0791631">
<ele>124</ele>
<time>2017-09-29T13:33:00Z</time>
</trkpt>
<trkpt lat="53.4948626" lon="18.0749627">
<ele>125</ele>
<time>2017-09-29T13:33:12Z</time>
</trkpt>
<trkpt lat="53.4950770" lon="18.0729164">
<ele>127</ele>
<time>2017-09-29T13:33:18Z</time>
</trkpt>
<trkpt lat="53.4953023" lon="18.0708567">
<ele>126</ele>
<time>2017-09-29T13:33:24Z</time>
</trkpt>
<trkpt lat="53.4955023" lon="18.0688609">
<ele>128</ele>
<time>2017-09-29T13:33:30Z</time>
</trkpt>
<trkpt lat="53.4956944" lon="18.0668944">
<ele>128</ele>
<time>2017-09-29T13:33:36Z</time>
</trkpt>
<trkpt lat="53.4959109" lon="18.0648192">
<ele>128</ele>
<time>2017-09-29T13:33:42Z</time>
</trkpt>
<trkpt lat="53.4961243" lon="18.0627104">
<ele>124</ele>
<time>2017-09-29T13:33:48Z</time>
</trkpt>
<trkpt lat="53.4962106" lon="18.0605983">
<ele>126</ele>
<time>2017-09-29T13:33:54Z</time>
</trkpt>
<trkpt lat="53.4962971" lon="18.0585566">
<ele>129</ele>
<time>2017-09-29T13:34:00Z</time>
</trkpt>
<trkpt lat="53.4963790" lon="18.0565803">
<ele>132</ele>
<time>2017-09-29T13:34:06Z</time>
</trkpt>
<trkpt lat="53.4964495" lon="18.0547153">
<ele>136</ele>
<time>2017-09-29T13:34:12Z</time>
</trkpt>
<trkpt lat="53.4966780" lon="18.0510293">
<ele>136</ele>
<time>2017-09-29T13:34:24Z</time>
</trkpt>
<trkpt lat="53.4969407" lon="18.0491049">
<ele>135</ele>
<time>2017-09-29T13:34:30Z</time>
</trkpt>
<trkpt lat="53.4972968" lon="18.0471826">
<ele>135</ele>
<time>2017-09-29T13:34:36Z</time>
</trkpt>
<trkpt lat="53.4976566" lon="18.0452603">
<ele>134</ele>
<time>2017-09-29T13:34:42Z</time>
</trkpt>
<trkpt lat="53.4980109" lon="18.0433064">
<ele>132</ele>
<time>2017-09-29T13:34:48Z</time>
</trkpt>
<trkpt lat="53.4983759" lon="18.0413469">
<ele>132</ele>
<time>2017-09-29T13:34:54Z</time>
</trkpt>
<trkpt lat="53.4987427" lon="18.0393925">
<ele>132</ele>
<time>2017-09-29T13:35:00Z</time>
</trkpt>
<trkpt lat="53.4991004" lon="18.0374818">
<ele>131</ele>
<time>2017-09-29T13:35:06Z</time>
</trkpt>
<trkpt lat="53.4994537" lon="18.0355788">
<ele>130</ele>
<time>2017-09-29T13:35:12Z</time>
</trkpt>
<trkpt lat="53.4998106" lon="18.0336683">
<ele>130</ele>
<time>2017-09-29T13:35:18Z</time>
</trkpt>
<trkpt lat="53.5001711" lon="18.0317706">
<ele>128</ele>
<time>2017-09-29T13:35:24Z</time>
</trkpt>
<trkpt lat="53.5005363" lon="18.0298439">
<ele>126</ele>
<time>2017-09-29T13:35:30Z</time>
</trkpt>
<trkpt lat="53.5009168" lon="18.0278407">
<ele>125</ele>
<time>2017-09-29T13:35:36Z</time>
</trkpt>
<trkpt lat="53.5012991" lon="18.0257850">
<ele>125</ele>
<time>2017-09-29T13:35:42Z</time>
</trkpt>
<trkpt lat="53.5016705" lon="18.0237698">
<ele>125</ele>
<time>2017-09-29T13:35:48Z</time>
</trkpt>
<trkpt lat="53.5020198" lon="18.0218622">
<ele>125</ele>
<time>2017-09-29T13:35:54Z</time>
</trkpt>
<trkpt lat="53.5023426" lon="18.0201244">
<ele>125</ele>
<time>2017-09-29T13:36:00Z</time>
</trkpt>
<trkpt lat="53.5026661" lon="18.0183907">
<ele>125</ele>
<time>2017-09-29T13:36:06Z</time>
</trkpt>
<trkpt lat="53.5029999" lon="18.0165774">
<ele>126</ele>
<time>2017-09-29T13:36:12Z</time>
</trkpt>
<trkpt lat="53.5033399" lon="18.0147028">
<ele>127</ele>
<time>2017-09-29T13:36:18Z</time>
</trkpt>
<trkpt lat="53.5036869" lon="18.0128149">
<ele>128</ele>
<time>2017-09-29T13:36:24Z</time>
</trkpt>
<trkpt lat="53.5040043" lon="18.0111308">
<ele>128</ele>
<time>2017-09-29T13:36:30Z</time>
</trkpt>
<trkpt lat="53.5042667" lon="18.0096602">
<ele>127</ele>
<time>2017-09-29T13:36:36Z</time>
</trkpt>
<trkpt lat="53.5045019" lon="18.0083671">
<ele>126</ele>
<time>2017-09-29T13:36:42Z</time>
</trkpt>
<trkpt lat="53.5047243" lon="18.0071814">
<ele>126</ele>
<time>2017-09-29T13:36:48Z</time>
</trkpt>
<trkpt lat="53.5049519" lon="18.0059499">
<ele>126</ele>
<time>2017-09-29T13:36:54Z</time>
</trkpt>
<trkpt lat="53.5051682" lon="18.0046206">
<ele>124</ele>
<time>2017-09-29T13:37:00Z</time>
</trkpt>
<trkpt lat="53.5053918" lon="18.0032072">
<ele>123</ele>
<time>2017-09-29T13:37:06Z</time>
</trkpt>
<trkpt lat="53.5056289" lon="18.0018045">
<ele>122</ele>
<time>2017-09-29T13:37:12Z</time>
</trkpt>
<trkpt lat="53.5058678" lon="18.0005010">
<ele>122</ele>
<time>2017-09-29T13:37:18Z</time>
</trkpt>
<trkpt lat="53.5060908" lon="17.9992775">
<ele>121</ele>
<time>2017-09-29T13:37:24Z</time>
</trkpt>
<trkpt lat="53.5061809" lon="17.9981789">
<ele>120</ele>
<time>2017-09-29T13:37:30Z</time>
</trkpt>
<trkpt lat="53.5063004" lon="17.9971412">
<ele>121</ele>
<time>2017-09-29T13:37:36Z</time>
</trkpt>
<trkpt lat="53.5066229" lon="17.9961006">
<ele>120</ele>
<time>2017-09-29T13:37:42Z</time>
</trkpt>
<trkpt lat="53.5069640" lon="17.9949482">
<ele>118</ele>
<time>2017-09-29T13:37:48Z</time>
</trkpt>
<trkpt lat="53.5072946" lon="17.9938070">
<ele>118</ele>
<time>2017-09-29T13:37:54Z</time>
</trkpt>
<trkpt lat="53.5073095" lon="17.9924737">
<ele>115</ele>
<time>2017-09-29T13:38:00Z</time>
</trkpt>
<trkpt lat="53.5072881" lon="17.9911119">
<ele>114</ele>
<time>2017-09-29T13:38:06Z</time>
</trkpt>
<trkpt lat="53.5071345" lon="17.9898421">
<ele>113</ele>
<time>2017-09-29T13:38:12Z</time>
</trkpt>
<trkpt lat="53.5065232" lon="17.9889736">
<ele>116</ele>
<time>2017-09-29T13:38:18Z</time>
</trkpt>
<trkpt lat="53.5061317" lon="17.9883996">
<ele>116</ele>
<time>2017-09-29T13:38:24Z</time>
</trkpt>
<trkpt lat="53.5060339" lon="17.9882250">
<ele>122</ele>
<time>2017-09-29T13:38:30Z</time>
</trkpt>
<trkpt lat="53.5058111" lon="17.9876116">
<ele>125</ele>
<time>2017-09-29T13:38:36Z</time>
</trkpt>
<trkpt lat="53.5055732" lon="17.9867889">
<ele>126</ele>
<time>2017-09-29T13:38:42Z</time>
</trkpt>
<trkpt lat="53.5054915" lon="17.9855851">
<ele>127</ele>
<time>2017-09-29T13:38:48Z</time>
</trkpt>
<trkpt lat="53.5057954" lon="17.9842905">
<ele>128</ele>
<time>2017-09-29T13:38:54Z</time>
</trkpt>
<trkpt lat="53.5061627" lon="17.9827598">
<ele>126</ele>
<time>2017-09-29T13:39:00Z</time>
</trkpt>
<trkpt lat="53.5065674" lon="17.9810405">
<ele>126</ele>
<time>2017-09-29T13:39:06Z</time>
</trkpt>
<trkpt lat="53.5069693" lon="17.9793133">
<ele>125</ele>
<time>2017-09-29T13:39:12Z</time>
</trkpt>
<trkpt lat="53.5073993" lon="17.9775859">
<ele>123</ele>
<time>2017-09-29T13:39:18Z</time>
</trkpt>
<trkpt lat="53.5082796" lon="17.9764730">
<ele>122</ele>
<time>2017-09-29T13:39:24Z</time>
</trkpt>
<trkpt lat="53.5104810" lon="17.9750118">
<ele>118</ele>
<time>2017-09-29T13:39:36Z</time>
</trkpt>
<trkpt lat="53.5114562" lon="17.9739565">
<ele>118</ele>
<time>2017-09-29T13:39:42Z</time>
</trkpt>
<trkpt lat="53.5121626" lon="17.9722968">
<ele>120</ele>
<time>2017-09-29T13:39:48Z</time>
</trkpt>
<trkpt lat="53.5129136" lon="17.9706512">
<ele>120</ele>
<time>2017-09-29T13:39:54Z</time>
</trkpt>
<trkpt lat="53.5136748" lon="17.9690079">
<ele>121</ele>
<time>2017-09-29T13:40:00Z</time>
</trkpt>
<trkpt lat="53.5144100" lon="17.9673684">
<ele>122</ele>
<time>2017-09-29T13:40:06Z</time>
</trkpt>
<trkpt lat="53.5148469" lon="17.9656735">
<ele>123</ele>
<time>2017-09-29T13:40:12Z</time>
</trkpt>
<trkpt lat="53.5150688" lon="17.9643637">
<ele>121</ele>
<time>2017-09-29T13:40:18Z</time>
</trkpt>
<trkpt lat="53.5153388" lon="17.9630174">
<ele>124</ele>
<time>2017-09-29T13:40:24Z</time>
</trkpt>
<trkpt lat="53.5156401" lon="17.9614537">
<ele>125</ele>
<time>2017-09-29T13:40:30Z</time>
</trkpt>
<trkpt lat="53.5159703" lon="17.9597264">
<ele>125</ele>
<time>2017-09-29T13:40:36Z</time>
</trkpt>
<trkpt lat="53.5166728" lon="17.9561182">
<ele>123</ele>
<time>2017-09-29T13:40:48Z</time>
</trkpt>
<trkpt lat="53.5172034" lon="17.9544341">
<ele>121</ele>
<time>2017-09-29T13:40:54Z</time>
</trkpt>
<trkpt lat="53.5188246" lon="17.9525024">
<ele>121</ele>
<time>2017-09-29T13:41:06Z</time>
</trkpt>
<trkpt lat="53.5208066" lon="17.9513730">
<ele>123</ele>
<time>2017-09-29T13:41:18Z</time>
</trkpt>
<trkpt lat="53.5218925" lon="17.9507803">
<ele>122</ele>
<time>2017-09-29T13:41:24Z</time>
</trkpt>
<trkpt lat="53.5230298" lon="17.9501609">
<ele>122</ele>
<time>2017-09-29T13:41:30Z</time>
</trkpt>
<trkpt lat="53.5241885" lon="17.9495021">
<ele>120</ele>
<time>2017-09-29T13:41:36Z</time>
</trkpt>
<trkpt lat="53.5253393" lon="17.9488408">
<ele>118</ele>
<time>2017-09-29T13:41:42Z</time>
</trkpt>
<trkpt lat="53.5263636" lon="17.9482553">
<ele>121</ele>
<time>2017-09-29T13:41:48Z</time>
</trkpt>
<trkpt lat="53.5265844" lon="17.9481558">
<ele>115</ele>
<time>2017-09-29T13:41:54Z</time>
</trkpt>
<trkpt lat="53.5265901" lon="17.9481515">
<ele>115</ele>
<time>2017-09-29T13:42:00Z</time>
</trkpt>
<trkpt lat="53.5266195" lon="17.9481314">
<ele>113</ele>
<time>2017-09-29T13:42:06Z</time>
</trkpt>
<trkpt lat="53.5267667" lon="17.9480484">
<ele>114</ele>
<time>2017-09-29T13:42:12Z</time>
</trkpt>
<trkpt lat="53.5270463" lon="17.9478658">
<ele>114</ele>
<time>2017-09-29T13:42:18Z</time>
</trkpt>
<trkpt lat="53.5275554" lon="17.9475900">
<ele>114</ele>
<time>2017-09-29T13:42:24Z</time>
</trkpt>
<trkpt lat="53.5282213" lon="17.9472137">
<ele>113</ele>
<time>2017-09-29T13:42:30Z</time>
</trkpt>
<trkpt lat="53.5290596" lon="17.9467283">
<ele>115</ele>
<time>2017-09-29T13:42:36Z</time>
</trkpt>
<trkpt lat="53.5299694" lon="17.9461683">
<ele>113</ele>
<time>2017-09-29T13:42:42Z</time>
</trkpt>
<trkpt lat="53.5308647" lon="17.9453336">
<ele>113</ele>
<time>2017-09-29T13:42:48Z</time>
</trkpt>
<trkpt lat="53.5317349" lon="17.9448361">
<ele>115</ele>
<time>2017-09-29T13:42:54Z</time>
</trkpt>
<trkpt lat="53.5326989" lon="17.9444536">
<ele>114</ele>
<time>2017-09-29T13:43:00Z</time>
</trkpt>
<trkpt lat="53.5336144" lon="17.9437314">
<ele>114</ele>
<time>2017-09-29T13:43:06Z</time>
</trkpt>
<trkpt lat="53.5344102" lon="17.9428600">
<ele>116</ele>
<time>2017-09-29T13:43:12Z</time>
</trkpt>
<trkpt lat="53.5352870" lon="17.9424760">
<ele>116</ele>
<time>2017-09-29T13:43:18Z</time>
</trkpt>
<trkpt lat="53.5361162" lon="17.9416116">
<ele>116</ele>
<time>2017-09-29T13:43:24Z</time>
</trkpt>
<trkpt lat="53.5369596" lon="17.9405920">
<ele>118</ele>
<time>2017-09-29T13:43:30Z</time>
</trkpt>
<trkpt lat="53.5378837" lon="17.9394838">
<ele>120</ele>
<time>2017-09-29T13:43:36Z</time>
</trkpt>
<trkpt lat="53.5388563" lon="17.9383390">
<ele>120</ele>
<time>2017-09-29T13:43:42Z</time>
</trkpt>
<trkpt lat="53.5398477" lon="17.9371765">
<ele>120</ele>
<time>2017-09-29T13:43:48Z</time>
</trkpt>
<trkpt lat="53.5408388" lon="17.9359777">
<ele>120</ele>
<time>2017-09-29T13:43:54Z</time>
</trkpt>
<trkpt lat="53.5418498" lon="17.9348014">
<ele>120</ele>
<time>2017-09-29T13:44:00Z</time>
</trkpt>
<trkpt lat="53.5428490" lon="17.9336094">
<ele>120</ele>
<time>2017-09-29T13:44:06Z</time>
</trkpt>
<trkpt lat="53.5438856" lon="17.9324849">
<ele>121</ele>
<time>2017-09-29T13:44:12Z</time>
</trkpt>
<trkpt lat="53.5448920" lon="17.9313618">
<ele>120</ele>
<time>2017-09-29T13:44:18Z</time>
</trkpt>
<trkpt lat="53.5458876" lon="17.9302388">
<ele>118</ele>
<time>2017-09-29T13:44:24Z</time>
</trkpt>
<trkpt lat="53.5468679" lon="17.9290921">
<ele>117</ele>
<time>2017-09-29T13:44:30Z</time>
</trkpt>
<trkpt lat="53.5478360" lon="17.9279709">
<ele>117</ele>
<time>2017-09-29T13:44:36Z</time>
</trkpt>
<trkpt lat="53.5488110" lon="17.9268425">
<ele>112</ele>
<time>2017-09-29T13:44:42Z</time>
</trkpt>
<trkpt lat="53.5498367" lon="17.9256769">
<ele>108</ele>
<time>2017-09-29T13:44:48Z</time>
</trkpt>
<trkpt lat="53.5508405" lon="17.9245144">
<ele>114</ele>
<time>2017-09-29T13:44:54Z</time>
</trkpt>
<trkpt lat="53.5515161" lon="17.9229043">
<ele>119</ele>
<time>2017-09-29T13:45:00Z</time>
</trkpt>
<trkpt lat="53.5519071" lon="17.9209918">
<ele>117</ele>
<time>2017-09-29T13:45:06Z</time>
</trkpt>
<trkpt lat="53.5523076" lon="17.9190337">
<ele>116</ele>
<time>2017-09-29T13:45:12Z</time>
</trkpt>
<trkpt lat="53.5527298" lon="17.9170551">
<ele>117</ele>
<time>2017-09-29T13:45:18Z</time>
</trkpt>
<trkpt lat="53.5531223" lon="17.9150854">
<ele>119</ele>
<time>2017-09-29T13:45:24Z</time>
</trkpt>
<trkpt lat="53.5534821" lon="17.9131105">
<ele>119</ele>
<time>2017-09-29T13:45:30Z</time>
</trkpt>
<trkpt lat="53.5538354" lon="17.9112126">
<ele>119</ele>
<time>2017-09-29T13:45:36Z</time>
</trkpt>
<trkpt lat="53.5542016" lon="17.9092781">
<ele>119</ele>
<time>2017-09-29T13:45:42Z</time>
</trkpt>
<trkpt lat="53.5545108" lon="17.9073934">
<ele>119</ele>
<time>2017-09-29T13:45:48Z</time>
</trkpt>
<trkpt lat="53.5544840" lon="17.9055389">
<ele>118</ele>
<time>2017-09-29T13:45:54Z</time>
</trkpt>
<trkpt lat="53.5543704" lon="17.9037223">
<ele>112</ele>
<time>2017-09-29T13:46:00Z</time>
</trkpt>
<trkpt lat="53.5547225" lon="17.9021251">
<ele>115</ele>
<time>2017-09-29T13:46:06Z</time>
</trkpt>
<trkpt lat="53.5553681" lon="17.9012721">
<ele>114</ele>
<time>2017-09-29T13:46:12Z</time>
</trkpt>
<trkpt lat="53.5561189" lon="17.9012851">
<ele>114</ele>
<time>2017-09-29T13:46:18Z</time>
</trkpt>
<trkpt lat="53.5569027" lon="17.9014132">
<ele>114</ele>
<time>2017-09-29T13:46:24Z</time>
</trkpt>
<trkpt lat="53.5577082" lon="17.9015168">
<ele>114</ele>
<time>2017-09-29T13:46:30Z</time>
</trkpt>
<trkpt lat="53.5584690" lon="17.9016154">
<ele>113</ele>
<time>2017-09-29T13:46:36Z</time>
</trkpt>
<trkpt lat="53.5592676" lon="17.9017265">
<ele>110</ele>
<time>2017-09-29T13:46:42Z</time>
</trkpt>
<trkpt lat="53.5600091" lon="17.9017627">
<ele>111</ele>
<time>2017-09-29T13:46:48Z</time>
</trkpt>
<trkpt lat="53.5607112" lon="17.9015136">
<ele>108</ele>
<time>2017-09-29T13:46:54Z</time>
</trkpt>
<trkpt lat="53.5613933" lon="17.9012327">
<ele>106</ele>
<time>2017-09-29T13:47:00Z</time>
</trkpt>
<trkpt lat="53.5619849" lon="17.9010483">
<ele>103</ele>
<time>2017-09-29T13:47:06Z</time>
</trkpt>
<trkpt lat="53.5626095" lon="17.9010076">
<ele>103</ele>
<time>2017-09-29T13:47:12Z</time>
</trkpt>
<trkpt lat="53.5632214" lon="17.9008354">
<ele>106</ele>
<time>2017-09-29T13:47:18Z</time>
</trkpt>
<trkpt lat="53.5636306" lon="17.9000489">
<ele>106</ele>
<time>2017-09-29T13:47:24Z</time>
</trkpt>
<trkpt lat="53.5639492" lon="17.8990898">
<ele>104</ele>
<time>2017-09-29T13:47:30Z</time>
</trkpt>
<trkpt lat="53.5644166" lon="17.8982310">
<ele>106</ele>
<time>2017-09-29T13:47:36Z</time>
</trkpt>
<trkpt lat="53.5649462" lon="17.8974595">
<ele>109</ele>
<time>2017-09-29T13:47:42Z</time>
</trkpt>
<trkpt lat="53.5655067" lon="17.8966676">
<ele>112</ele>
<time>2017-09-29T13:47:48Z</time>
</trkpt>
<trkpt lat="53.5660683" lon="17.8958386">
<ele>114</ele>
<time>2017-09-29T13:47:54Z</time>
</trkpt>
<trkpt lat="53.5666538" lon="17.8949686">
<ele>116</ele>
<time>2017-09-29T13:48:00Z</time>
</trkpt>
<trkpt lat="53.5672276" lon="17.8941040">
<ele>118</ele>
<time>2017-09-29T13:48:06Z</time>
</trkpt>
<trkpt lat="53.5677603" lon="17.8932972">
<ele>121</ele>
<time>2017-09-29T13:48:12Z</time>
</trkpt>
<trkpt lat="53.5682801" lon="17.8925055">
<ele>123</ele>
<time>2017-09-29T13:48:18Z</time>
</trkpt>
<trkpt lat="53.5688202" lon="17.8917134">
<ele>124</ele>
<time>2017-09-29T13:48:24Z</time>
</trkpt>
<trkpt lat="53.5693748" lon="17.8909106">
<ele>125</ele>
<time>2017-09-29T13:48:30Z</time>
</trkpt>
<trkpt lat="53.5699313" lon="17.8900889">
<ele>126</ele>
<time>2017-09-29T13:48:36Z</time>
</trkpt>
<trkpt lat="53.5705107" lon="17.8892235">
<ele>127</ele>
<time>2017-09-29T13:48:42Z</time>
</trkpt>
<trkpt lat="53.5710961" lon="17.8883496">
<ele>128</ele>
<time>2017-09-29T13:48:48Z</time>
</trkpt>
<trkpt lat="53.5716693" lon="17.8875010">
<ele>128</ele>
<time>2017-09-29T13:48:54Z</time>
</trkpt>
<trkpt lat="53.5722447" lon="17.8866438">
<ele>129</ele>
<time>2017-09-29T13:49:00Z</time>
</trkpt>
<trkpt lat="53.5728393" lon="17.8857704">
<ele>129</ele>
<time>2017-09-29T13:49:06Z</time>
</trkpt>
<trkpt lat="53.5734487" lon="17.8848781">
<ele>129</ele>
<time>2017-09-29T13:49:12Z</time>
</trkpt>
<trkpt lat="53.5740462" lon="17.8839870">
<ele>128</ele>
<time>2017-09-29T13:49:18Z</time>
</trkpt>
<trkpt lat="53.5746493" lon="17.8830859">
<ele>128</ele>
<time>2017-09-29T13:49:24Z</time>
</trkpt>
<trkpt lat="53.5752700" lon="17.8821629">
<ele>127</ele>
<time>2017-09-29T13:49:30Z</time>
</trkpt>
<trkpt lat="53.5759117" lon="17.8812369">
<ele>127</ele>
<time>2017-09-29T13:49:36Z</time>
</trkpt>
<trkpt lat="53.5764940" lon="17.8803562">
<ele>126</ele>
<time>2017-09-29T13:49:42Z</time>
</trkpt>
<trkpt lat="53.5770624" lon="17.8795294">
<ele>125</ele>
<time>2017-09-29T13:49:48Z</time>
</trkpt>
<trkpt lat="53.5776334" lon="17.8786949">
<ele>125</ele>
<time>2017-09-29T13:49:54Z</time>
</trkpt>
<trkpt lat="53.5781448" lon="17.8779238">
<ele>125</ele>
<time>2017-09-29T13:50:00Z</time>
</trkpt>
<trkpt lat="53.5786602" lon="17.8771301">
<ele>126</ele>
<time>2017-09-29T13:50:06Z</time>
</trkpt>
<trkpt lat="53.5790899" lon="17.8761631">
<ele>128</ele>
<time>2017-09-29T13:50:12Z</time>
</trkpt>
<trkpt lat="53.5794697" lon="17.8752679">
<ele>131</ele>
<time>2017-09-29T13:50:18Z</time>
</trkpt>
<trkpt lat="53.5798485" lon="17.8743860">
<ele>134</ele>
<time>2017-09-29T13:50:24Z</time>
</trkpt>
<trkpt lat="53.5802221" lon="17.8735408">
<ele>135</ele>
<time>2017-09-29T13:50:30Z</time>
</trkpt>
<trkpt lat="53.5805714" lon="17.8727432">
<ele>136</ele>
<time>2017-09-29T13:50:36Z</time>
</trkpt>
<trkpt lat="53.5809115" lon="17.8720203">
<ele>137</ele>
<time>2017-09-29T13:50:42Z</time>
</trkpt>
<trkpt lat="53.5811559" lon="17.8715273">
<ele>136</ele>
<time>2017-09-29T13:50:48Z</time>
</trkpt>
<trkpt lat="53.5813285" lon="17.8713753">
<ele>140</ele>
<time>2017-09-29T13:50:54Z</time>
</trkpt>
<trkpt lat="53.5816029" lon="17.8716793">
<ele>141</ele>
<time>2017-09-29T13:51:00Z</time>
</trkpt>
<trkpt lat="53.5819612" lon="17.8721447">
<ele>142</ele>
<time>2017-09-29T13:51:06Z</time>
</trkpt>
<trkpt lat="53.5824285" lon="17.8727220">
<ele>143</ele>
<time>2017-09-29T13:51:12Z</time>
</trkpt>
<trkpt lat="53.5834100" lon="17.8739764">
<ele>147</ele>
<time>2017-09-29T13:51:24Z</time>
</trkpt>
<trkpt lat="53.5838732" lon="17.8745816">
<ele>148</ele>
<time>2017-09-29T13:51:30Z</time>
</trkpt>
<trkpt lat="53.5843298" lon="17.8751441">
<ele>150</ele>
<time>2017-09-29T13:51:36Z</time>
</trkpt>
<trkpt lat="53.5847840" lon="17.8757320">
<ele>152</ele>
<time>2017-09-29T13:51:42Z</time>
</trkpt>
<trkpt lat="53.5851822" lon="17.8761535">
<ele>154</ele>
<time>2017-09-29T13:51:48Z</time>
</trkpt>
<trkpt lat="53.5855611" lon="17.8756162">
<ele>153</ele>
<time>2017-09-29T13:51:54Z</time>
</trkpt>
<trkpt lat="53.5857857" lon="17.8748904">
<ele>151</ele>
<time>2017-09-29T13:52:00Z</time>
</trkpt>
<trkpt lat="53.5859883" lon="17.8742551">
<ele>150</ele>
<time>2017-09-29T13:52:06Z</time>
</trkpt>
<trkpt lat="53.5861753" lon="17.8738450">
<ele>149</ele>
<time>2017-09-29T13:52:12Z</time>
</trkpt>
<trkpt lat="53.5863805" lon="17.8741122">
<ele>149</ele>
<time>2017-09-29T13:52:18Z</time>
</trkpt>
<trkpt lat="53.5864050" lon="17.8743826">
<ele>148</ele>
<time>2017-09-29T13:52:24Z</time>
</trkpt>
<trkpt lat="53.5863387" lon="17.8745483">
<ele>149</ele>
<time>2017-09-29T13:52:30Z</time>
</trkpt>
<trkpt lat="53.5862714" lon="17.8747501">
<ele>148</ele>
<time>2017-09-29T13:52:36Z</time>
</trkpt>
<trkpt lat="53.5861703" lon="17.8749993">
<ele>148</ele>
<time>2017-09-29T13:52:42Z</time>
</trkpt>
<trkpt lat="53.5860796" lon="17.8752175">
<ele>148</ele>
<time>2017-09-29T13:52:48Z</time>
</trkpt>
<trkpt lat="53.5860705" lon="17.8753079">
<ele>148</ele>
<time>2017-09-29T13:52:54Z</time>
</trkpt>
<trkpt lat="53.5860799" lon="17.8753826">
<ele>147</ele>
<time>2017-09-29T13:53:00Z</time>
</trkpt>
<trkpt lat="53.5860799" lon="17.8753826">
<ele>147</ele>
<time>2017-09-29T13:53:06Z</time>
</trkpt>
<trkpt lat="53.5860799" lon="17.8753826">
<ele>147</ele>
<time>2017-09-29T13:53:12Z</time>
</trkpt>
<trkpt lat="53.5860799" lon="17.8753826">
<ele>147</ele>
<time>2017-09-29T13:53:18Z</time>
</trkpt>
<trkpt lat="53.5860799" lon="17.8753826">
<ele>147</ele>
<time>2017-09-29T13:53:24Z</time>
</trkpt>
<trkpt lat="53.5860538" lon="17.8753691">
<ele>148</ele>
<time>2017-09-29T13:53:30Z</time>
</trkpt>
<trkpt lat="53.5860941" lon="17.8753450">
<ele>147</ele>
<time>2017-09-29T13:53:36Z</time>
</trkpt>
<trkpt lat="53.5861647" lon="17.8750863">
<ele>148</ele>
<time>2017-09-29T13:53:42Z</time>
</trkpt>
<trkpt lat="53.5862317" lon="17.8748531">
<ele>147</ele>
<time>2017-09-29T13:53:48Z</time>
</trkpt>
<trkpt lat="53.5863024" lon="17.8746310">
<ele>147</ele>
<time>2017-09-29T13:53:54Z</time>
</trkpt>
<trkpt lat="53.5863949" lon="17.8744206">
<ele>147</ele>
<time>2017-09-29T13:54:00Z</time>
</trkpt>
<trkpt lat="53.5864555" lon="17.8741999">
<ele>146</ele>
<time>2017-09-29T13:54:06Z</time>
</trkpt>
<trkpt lat="53.5864173" lon="17.8739870">
<ele>144</ele>
<time>2017-09-29T13:54:12Z</time>
</trkpt>
<trkpt lat="53.5862854" lon="17.8737985">
<ele>143</ele>
<time>2017-09-29T13:54:18Z</time>
</trkpt>
<trkpt lat="53.5862016" lon="17.8735268">
<ele>143</ele>
<time>2017-09-29T13:54:24Z</time>
</trkpt>
<trkpt lat="53.5863885" lon="17.8729326">
<ele>142</ele>
<time>2017-09-29T13:54:30Z</time>
</trkpt>
<trkpt lat="53.5866301" lon="17.8722107">
<ele>142</ele>
<time>2017-09-29T13:54:36Z</time>
</trkpt>
<trkpt lat="53.5868440" lon="17.8717341">
<ele>141</ele>
<time>2017-09-29T13:54:42Z</time>
</trkpt>
<trkpt lat="53.5870020" lon="17.8715974">
<ele>142</ele>
<time>2017-09-29T13:54:48Z</time>
</trkpt>
<trkpt lat="53.5870721" lon="17.8717256">
<ele>144</ele>
<time>2017-09-29T13:54:54Z</time>
</trkpt>
<trkpt lat="53.5871687" lon="17.8717563">
<ele>145</ele>
<time>2017-09-29T13:55:00Z</time>
</trkpt>
<trkpt lat="53.5872331" lon="17.8718024">
<ele>145</ele>
<time>2017-09-29T13:55:06Z</time>
</trkpt>
<trkpt lat="53.5872335" lon="17.8718078">
<ele>145</ele>
<time>2017-09-29T13:55:12Z</time>
</trkpt>
<trkpt lat="53.5872335" lon="17.8718078">
<ele>145</ele>
<time>2017-09-29T13:55:18Z</time>
</trkpt>
<trkpt lat="53.5872335" lon="17.8718078">
<ele>145</ele>
<time>2017-09-29T13:55:24Z</time>
</trkpt>
<trkpt lat="53.5872335" lon="17.8718078">
<ele>145</ele>
<time>2017-09-29T13:55:30Z</time>
</trkpt>
<trkpt lat="53.5872335" lon="17.8718078">
<ele>145</ele>
<time>2017-09-29T13:55:36Z</time>
</trkpt>
<trkpt lat="53.5872335" lon="17.8718078">
<ele>145</ele>
<time>2017-09-29T13:55:42Z</time>
</trkpt>
<trkpt lat="53.5872335" lon="17.8718078">
<ele>145</ele>
<time>2017-09-29T13:55:48Z</time>
</trkpt>
<trkpt lat="53.5872335" lon="17.8718078">
<ele>145</ele>
<time>2017-09-29T13:55:54Z</time>
</trkpt>
<trkpt lat="53.5872335" lon="17.8718078">
<ele>145</ele>
<time>2017-09-29T13:56:00Z</time>
</trkpt>
<trkpt lat="53.5872335" lon="17.8718078">
<ele>145</ele>
<time>2017-09-29T13:56:06Z</time>
</trkpt>
<trkpt lat="53.5872335" lon="17.8718078">
<ele>145</ele>
<time>2017-09-29T13:56:12Z</time>
</trkpt>
<trkpt lat="53.5872335" lon="17.8718078">
<ele>145</ele>
<time>2017-09-29T13:56:18Z</time>
</trkpt>
<trkpt lat="53.5872335" lon="17.8718078">
<ele>145</ele>
<time>2017-09-29T13:56:24Z</time>
</trkpt>
<trkpt lat="53.5872335" lon="17.8718078">
<ele>145</ele>
<time>2017-09-29T13:56:30Z</time>
</trkpt>
<trkpt lat="53.5872335" lon="17.8718078">
<ele>145</ele>
<time>2017-09-29T13:56:36Z</time>
</trkpt>
<trkpt lat="53.5872335" lon="17.8718078">
<ele>145</ele>
<time>2017-09-29T13:56:42Z</time>
</trkpt>
<trkpt lat="53.5872335" lon="17.8718078">
<ele>145</ele>
<time>2017-09-29T13:56:48Z</time>
</trkpt>
<trkpt lat="53.5872335" lon="17.8718078">
<ele>145</ele>
<time>2017-09-29T13:56:54Z</time>
</trkpt>
<trkpt lat="53.5872335" lon="17.8718078">
<ele>145</ele>
<time>2017-09-29T13:57:00Z</time>
</trkpt>
<trkpt lat="53.5872335" lon="17.8718078">
<ele>145</ele>
<time>2017-09-29T13:57:06Z</time>
</trkpt>
<trkpt lat="53.5872335" lon="17.8718078">
<ele>145</ele>
<time>2017-09-29T13:57:12Z</time>
</trkpt>
<trkpt lat="53.5872335" lon="17.8718078">
<ele>145</ele>
<time>2017-09-29T13:57:18Z</time>
</trkpt>
<trkpt lat="53.5872335" lon="17.8718078">
<ele>145</ele>
<time>2017-09-29T13:57:24Z</time>
</trkpt>
<trkpt lat="53.5872335" lon="17.8718078">
<ele>145</ele>
<time>2017-09-29T13:57:30Z</time>
</trkpt>
<trkpt lat="53.5872335" lon="17.8718078">
<ele>145</ele>
<time>2017-09-29T13:57:36Z</time>
</trkpt>
<trkpt lat="53.5872335" lon="17.8718078">
<ele>145</ele>
<time>2017-09-29T13:57:42Z</time>
</trkpt>
<trkpt lat="53.5872335" lon="17.8718078">
<ele>145</ele>
<time>2017-09-29T13:57:48Z</time>
</trkpt>
<trkpt lat="53.5872335" lon="17.8718078">
<ele>145</ele>
<time>2017-09-29T13:57:54Z</time>
</trkpt>
<trkpt lat="53.5872335" lon="17.8718078">
<ele>145</ele>
<time>2017-09-29T13:58:00Z</time>
</trkpt>
<trkpt lat="53.5872335" lon="17.8718078">
<ele>145</ele>
<time>2017-09-29T13:58:06Z</time>
</trkpt>
<trkpt lat="53.5872335" lon="17.8718078">
<ele>145</ele>
<time>2017-09-29T13:58:12Z</time>
</trkpt>
<trkpt lat="53.5872335" lon="17.8718078">
<ele>145</ele>
<time>2017-09-29T13:58:18Z</time>
</trkpt>
<trkpt lat="53.5872335" lon="17.8718078">
<ele>145</ele>
<time>2017-09-29T13:58:24Z</time>
</trkpt>
<trkpt lat="53.5872335" lon="17.8718078">
<ele>145</ele>
<time>2017-09-29T13:58:30Z</time>
</trkpt>
<trkpt lat="53.5872335" lon="17.8718078">
<ele>145</ele>
<time>2017-09-29T13:58:36Z</time>
</trkpt>
<trkpt lat="53.5872335" lon="17.8718078">
<ele>145</ele>
<time>2017-09-29T13:58:42Z</time>
</trkpt>
<trkpt lat="53.5872335" lon="17.8718078">
<ele>145</ele>
<time>2017-09-29T13:58:48Z</time>
</trkpt>
<trkpt lat="53.5872335" lon="17.8718078">
<ele>145</ele>
<time>2017-09-29T13:58:54Z</time>
</trkpt>
<trkpt lat="53.5872335" lon="17.8718078">
<ele>145</ele>
<time>2017-09-29T13:59:00Z</time>
</trkpt>
<trkpt lat="53.5872335" lon="17.8718078">
<ele>145</ele>
<time>2017-09-29T13:59:06Z</time>
</trkpt>
<trkpt lat="53.5872335" lon="17.8718078">
<ele>145</ele>
<time>2017-09-29T13:59:12Z</time>
</trkpt>
<trkpt lat="53.5872335" lon="17.8718078">
<ele>145</ele>
<time>2017-09-29T13:59:18Z</time>
</trkpt>
<trkpt lat="53.5872335" lon="17.8718078">
<ele>145</ele>
<time>2017-09-29T13:59:24Z</time>
</trkpt>
<trkpt lat="53.5872335" lon="17.8718078">
<ele>145</ele>
<time>2017-09-29T13:59:30Z</time>
</trkpt>
<trkpt lat="53.5872335" lon="17.8718078">
<ele>145</ele>
<time>2017-09-29T13:59:36Z</time>
</trkpt>
<trkpt lat="53.5872335" lon="17.8718078">
<ele>145</ele>
<time>2017-09-29T13:59:42Z</time>
</trkpt>
<trkpt lat="53.5872335" lon="17.8718078">
<ele>145</ele>
<time>2017-09-29T13:59:48Z</time>
</trkpt>
<trkpt lat="53.5872335" lon="17.8718078">
<ele>145</ele>
<time>2017-09-29T13:59:54Z</time>
</trkpt>
<trkpt lat="53.5872335" lon="17.8718078">
<ele>145</ele>
<time>2017-09-29T14:00:00Z</time>
</trkpt>
<trkpt lat="53.5872335" lon="17.8718078">
<ele>145</ele>
<time>2017-09-29T14:00:06Z</time>
</trkpt>
<trkpt lat="53.5872335" lon="17.8718078">
<ele>145</ele>
<time>2017-09-29T14:00:12Z</time>
</trkpt>
<trkpt lat="53.5872335" lon="17.8718078">
<ele>145</ele>
<time>2017-09-29T14:00:18Z</time>
</trkpt>
<trkpt lat="53.5872335" lon="17.8718078">
<ele>145</ele>
<time>2017-09-29T14:00:24Z</time>
</trkpt>
<trkpt lat="53.5872335" lon="17.8718078">
<ele>145</ele>
<time>2017-09-29T14:00:30Z</time>
</trkpt>
<trkpt lat="53.5872335" lon="17.8718078">
<ele>145</ele>
<time>2017-09-29T14:00:36Z</time>
</trkpt>
<trkpt lat="53.5872335" lon="17.8718078">
<ele>145</ele>
<time>2017-09-29T14:00:42Z</time>
</trkpt>
<trkpt lat="53.5872335" lon="17.8718078">
<ele>145</ele>
<time>2017-09-29T14:00:48Z</time>
</trkpt>
<trkpt lat="53.5872335" lon="17.8718078">
<ele>145</ele>
<time>2017-09-29T14:00:54Z</time>
</trkpt>
<trkpt lat="53.5872335" lon="17.8718078">
<ele>145</ele>
<time>2017-09-29T14:01:00Z</time>
</trkpt>
<trkpt lat="53.5872335" lon="17.8718078">
<ele>145</ele>
<time>2017-09-29T14:01:06Z</time>
</trkpt>
<trkpt lat="53.5872335" lon="17.8718078">
<ele>145</ele>
<time>2017-09-29T14:01:18Z</time>
</trkpt>
<trkpt lat="53.5872335" lon="17.8718078">
<ele>145</ele>
<time>2017-09-29T14:01:24Z</time>
</trkpt>
<trkpt lat="53.5872335" lon="17.8718078">
<ele>145</ele>
<time>2017-09-29T14:01:30Z</time>
</trkpt>
<trkpt lat="53.5872335" lon="17.8718078">
<ele>145</ele>
<time>2017-09-29T14:01:36Z</time>
</trkpt>
<trkpt lat="53.5872335" lon="17.8718078">
<ele>145</ele>
<time>2017-09-29T14:01:42Z</time>
</trkpt>
<trkpt lat="53.5872335" lon="17.8718078">
<ele>145</ele>
<time>2017-09-29T14:01:48Z</time>
</trkpt>
<trkpt lat="53.5872335" lon="17.8718078">
<ele>145</ele>
<time>2017-09-29T14:01:54Z</time>
</trkpt>
<trkpt lat="53.5872335" lon="17.8718078">
<ele>145</ele>
<time>2017-09-29T14:02:00Z</time>
</trkpt>
<trkpt lat="53.5872335" lon="17.8718078">
<ele>145</ele>
<time>2017-09-29T14:02:06Z</time>
</trkpt>
<trkpt lat="53.5872335" lon="17.8718078">
<ele>145</ele>
<time>2017-09-29T14:02:12Z</time>
</trkpt>
<trkpt lat="53.5872335" lon="17.8718078">
<ele>145</ele>
<time>2017-09-29T14:02:18Z</time>
</trkpt>
<trkpt lat="53.5872335" lon="17.8718078">
<ele>145</ele>
<time>2017-09-29T14:02:24Z</time>
</trkpt>
<trkpt lat="53.5872335" lon="17.8718078">
<ele>145</ele>
<time>2017-09-29T14:02:30Z</time>
</trkpt>
<trkpt lat="53.5872335" lon="17.8718078">
<ele>145</ele>
<time>2017-09-29T14:02:36Z</time>
</trkpt>
<trkpt lat="53.5872335" lon="17.8718078">
<ele>145</ele>
<time>2017-09-29T14:02:42Z</time>
</trkpt>
<trkpt lat="53.5872335" lon="17.8718078">
<ele>145</ele>
<time>2017-09-29T14:02:48Z</time>
</trkpt>
<trkpt lat="53.5872335" lon="17.8718078">
<ele>145</ele>
<time>2017-09-29T14:02:54Z</time>
</trkpt>
<trkpt lat="53.5872335" lon="17.8718078">
<ele>145</ele>
<time>2017-09-29T14:03:00Z</time>
</trkpt>
<trkpt lat="53.5872335" lon="17.8718078">
<ele>145</ele>
<time>2017-09-29T14:03:06Z</time>
</trkpt>
<trkpt lat="53.5872335" lon="17.8718078">
<ele>145</ele>
<time>2017-09-29T14:03:12Z</time>
</trkpt>
<trkpt lat="53.5872335" lon="17.8718078">
<ele>145</ele>
<time>2017-09-29T14:03:18Z</time>
</trkpt>
<trkpt lat="53.5872335" lon="17.8718078">
<ele>145</ele>
<time>2017-09-29T14:03:24Z</time>
</trkpt>
<trkpt lat="53.5872335" lon="17.8718078">
<ele>145</ele>
<time>2017-09-29T14:03:30Z</time>
</trkpt>
<trkpt lat="53.5872335" lon="17.8718078">
<ele>145</ele>
<time>2017-09-29T14:03:36Z</time>
</trkpt>
<trkpt lat="53.5872335" lon="17.8718078">
<ele>145</ele>
<time>2017-09-29T14:03:42Z</time>
</trkpt>
<trkpt lat="53.5872335" lon="17.8718078">
<ele>145</ele>
<time>2017-09-29T14:03:48Z</time>
</trkpt>
<trkpt lat="53.5872335" lon="17.8718078">
<ele>145</ele>
<time>2017-09-29T14:03:54Z</time>
</trkpt>
<trkpt lat="53.5872335" lon="17.8718078">
<ele>145</ele>
<time>2017-09-29T14:04:00Z</time>
</trkpt>
<trkpt lat="53.5872335" lon="17.8718078">
<ele>145</ele>
<time>2017-09-29T14:04:06Z</time>
</trkpt>
<trkpt lat="53.5872335" lon="17.8718078">
<ele>145</ele>
<time>2017-09-29T14:04:12Z</time>
</trkpt>
<trkpt lat="53.5872335" lon="17.8718078">
<ele>145</ele>
<time>2017-09-29T14:04:18Z</time>
</trkpt>
<trkpt lat="53.5872335" lon="17.8718078">
<ele>145</ele>
<time>2017-09-29T14:04:24Z</time>
</trkpt>
<trkpt lat="53.5872335" lon="17.8718078">
<ele>145</ele>
<time>2017-09-29T14:04:30Z</time>
</trkpt>
<trkpt lat="53.5872335" lon="17.8718078">
<ele>145</ele>
<time>2017-09-29T14:04:36Z</time>
</trkpt>
<trkpt lat="53.5872335" lon="17.8718078">
<ele>145</ele>
<time>2017-09-29T14:04:42Z</time>
</trkpt>
<trkpt lat="53.5872335" lon="17.8718078">
<ele>145</ele>
<time>2017-09-29T14:04:48Z</time>
</trkpt>
<trkpt lat="53.5872335" lon="17.8718078">
<ele>145</ele>
<time>2017-09-29T14:04:54Z</time>
</trkpt>
<trkpt lat="53.5872335" lon="17.8718078">
<ele>145</ele>
<time>2017-09-29T14:05:00Z</time>
</trkpt>
<trkpt lat="53.5872335" lon="17.8718078">
<ele>145</ele>
<time>2017-09-29T14:05:06Z</time>
</trkpt>
<trkpt lat="53.5872335" lon="17.8718078">
<ele>145</ele>
<time>2017-09-29T14:05:12Z</time>
</trkpt>
<trkpt lat="53.5872335" lon="17.8718078">
<ele>145</ele>
<time>2017-09-29T14:05:18Z</time>
</trkpt>
<trkpt lat="53.5872335" lon="17.8718078">
<ele>145</ele>
<time>2017-09-29T14:05:24Z</time>
</trkpt>
<trkpt lat="53.5872335" lon="17.8718078">
<ele>145</ele>
<time>2017-09-29T14:05:30Z</time>
</trkpt>
<trkpt lat="53.5872335" lon="17.8718078">
<ele>145</ele>
<time>2017-09-29T14:05:36Z</time>
</trkpt>
<trkpt lat="53.5872335" lon="17.8718078">
<ele>145</ele>
<time>2017-09-29T14:05:42Z</time>
</trkpt>
<trkpt lat="53.5872335" lon="17.8718078">
<ele>145</ele>
<time>2017-09-29T14:05:48Z</time>
</trkpt>
<trkpt lat="53.5872335" lon="17.8718078">
<ele>145</ele>
<time>2017-09-29T14:05:54Z</time>
</trkpt>
<trkpt lat="53.5872335" lon="17.8718078">
<ele>145</ele>
<time>2017-09-29T14:06:00Z</time>
</trkpt>
<trkpt lat="53.5872335" lon="17.8718078">
<ele>145</ele>
<time>2017-09-29T14:06:12Z</time>
</trkpt>
<trkpt lat="53.5872335" lon="17.8718078">
<ele>145</ele>
<time>2017-09-29T14:06:18Z</time>
</trkpt>
<trkpt lat="53.5872335" lon="17.8718078">
<ele>145</ele>
<time>2017-09-29T14:06:24Z</time>
</trkpt>
<trkpt lat="53.5872335" lon="17.8718078">
<ele>145</ele>
<time>2017-09-29T14:06:30Z</time>
</trkpt>
<trkpt lat="53.5872335" lon="17.8718078">
<ele>145</ele>
<time>2017-09-29T14:06:36Z</time>
</trkpt>
<trkpt lat="53.5872335" lon="17.8718078">
<ele>145</ele>
<time>2017-09-29T14:06:42Z</time>
</trkpt>
<trkpt lat="53.5872335" lon="17.8718078">
<ele>145</ele>
<time>2017-09-29T14:06:48Z</time>
</trkpt>
<trkpt lat="53.5872335" lon="17.8718078">
<ele>145</ele>
<time>2017-09-29T14:06:54Z</time>
</trkpt>
<trkpt lat="53.5872335" lon="17.8718078">
<ele>145</ele>
<time>2017-09-29T14:07:00Z</time>
</trkpt>
<trkpt lat="53.5872335" lon="17.8718078">
<ele>145</ele>
<time>2017-09-29T14:07:06Z</time>
</trkpt>
<trkpt lat="53.5872335" lon="17.8718078">
<ele>145</ele>
<time>2017-09-29T14:07:12Z</time>
</trkpt>
<trkpt lat="53.5872335" lon="17.8718078">
<ele>145</ele>
<time>2017-09-29T14:07:18Z</time>
</trkpt>
<trkpt lat="53.5872335" lon="17.8718078">
<ele>145</ele>
<time>2017-09-29T14:07:24Z</time>
</trkpt>
<trkpt lat="53.5872335" lon="17.8718078">
<ele>145</ele>
<time>2017-09-29T14:07:30Z</time>
</trkpt>
<trkpt lat="53.5872335" lon="17.8718078">
<ele>145</ele>
<time>2017-09-29T14:07:36Z</time>
</trkpt>
<trkpt lat="53.5872335" lon="17.8718078">
<ele>145</ele>
<time>2017-09-29T14:07:42Z</time>
</trkpt>
<trkpt lat="53.5872335" lon="17.8718078">
<ele>145</ele>
<time>2017-09-29T14:07:48Z</time>
</trkpt>
<trkpt lat="53.5872335" lon="17.8718078">
<ele>145</ele>
<time>2017-09-29T14:07:54Z</time>
</trkpt>
<trkpt lat="53.5872335" lon="17.8718078">
<ele>145</ele>
<time>2017-09-29T14:08:00Z</time>
</trkpt>
<trkpt lat="53.5872335" lon="17.8718078">
<ele>145</ele>
<time>2017-09-29T14:08:06Z</time>
</trkpt>
<trkpt lat="53.5872335" lon="17.8718078">
<ele>145</ele>
<time>2017-09-29T14:08:12Z</time>
</trkpt>
<trkpt lat="53.5872335" lon="17.8718078">
<ele>145</ele>
<time>2017-09-29T14:08:18Z</time>
</trkpt>
<trkpt lat="53.5872335" lon="17.8718078">
<ele>145</ele>
<time>2017-09-29T14:08:24Z</time>
</trkpt>
<trkpt lat="53.5872335" lon="17.8718078">
<ele>145</ele>
<time>2017-09-29T14:08:30Z</time>
</trkpt>
<trkpt lat="53.5872335" lon="17.8718078">
<ele>145</ele>
<time>2017-09-29T14:08:36Z</time>
</trkpt>
<trkpt lat="53.5872335" lon="17.8718078">
<ele>145</ele>
<time>2017-09-29T14:08:42Z</time>
</trkpt>
<trkpt lat="53.5872335" lon="17.8718078">
<ele>145</ele>
<time>2017-09-29T14:08:48Z</time>
</trkpt>
<trkpt lat="53.5872335" lon="17.8718078">
<ele>145</ele>
<time>2017-09-29T14:08:54Z</time>
</trkpt>
<trkpt lat="53.5872335" lon="17.8718078">
<ele>145</ele>
<time>2017-09-29T14:09:00Z</time>
</trkpt>
<trkpt lat="53.5872335" lon="17.8718078">
<ele>145</ele>
<time>2017-09-29T14:09:06Z</time>
</trkpt>
<trkpt lat="53.5872335" lon="17.8718078">
<ele>145</ele>
<time>2017-09-29T14:09:12Z</time>
</trkpt>
<trkpt lat="53.5872335" lon="17.8718078">
<ele>145</ele>
<time>2017-09-29T14:09:18Z</time>
</trkpt>
<trkpt lat="53.5872335" lon="17.8718078">
<ele>145</ele>
<time>2017-09-29T14:09:24Z</time>
</trkpt>
<trkpt lat="53.5872335" lon="17.8718078">
<ele>145</ele>
<time>2017-09-29T14:09:30Z</time>
</trkpt>
<trkpt lat="53.5872335" lon="17.8718078">
<ele>145</ele>
<time>2017-09-29T14:09:36Z</time>
</trkpt>
<trkpt lat="53.5872335" lon="17.8718078">
<ele>145</ele>
<time>2017-09-29T14:09:42Z</time>
</trkpt>
<trkpt lat="53.5872335" lon="17.8718078">
<ele>145</ele>
<time>2017-09-29T14:09:48Z</time>
</trkpt>
<trkpt lat="53.5872335" lon="17.8718078">
<ele>145</ele>
<time>2017-09-29T14:09:54Z</time>
</trkpt>
<trkpt lat="53.5872335" lon="17.8718078">
<ele>145</ele>
<time>2017-09-29T14:10:00Z</time>
</trkpt>
<trkpt lat="53.5872335" lon="17.8718078">
<ele>145</ele>
<time>2017-09-29T14:10:06Z</time>
</trkpt>
<trkpt lat="53.5872335" lon="17.8718078">
<ele>145</ele>
<time>2017-09-29T14:10:12Z</time>
</trkpt>
<trkpt lat="53.5872335" lon="17.8718078">
<ele>145</ele>
<time>2017-09-29T14:10:18Z</time>
</trkpt>
<trkpt lat="53.5872335" lon="17.8718078">
<ele>145</ele>
<time>2017-09-29T14:10:24Z</time>
</trkpt>
<trkpt lat="53.5872335" lon="17.8718078">
<ele>145</ele>
<time>2017-09-29T14:10:30Z</time>
</trkpt>
<trkpt lat="53.5872335" lon="17.8718078">
<ele>145</ele>
<time>2017-09-29T14:10:36Z</time>
</trkpt>
<trkpt lat="53.5872335" lon="17.8718078">
<ele>145</ele>
<time>2017-09-29T14:10:42Z</time>
</trkpt>
<trkpt lat="53.5872335" lon="17.8718078">
<ele>145</ele>
<time>2017-09-29T14:10:48Z</time>
</trkpt>
<trkpt lat="53.5872335" lon="17.8718078">
<ele>145</ele>
<time>2017-09-29T14:10:54Z</time>
</trkpt>
<trkpt lat="53.5872335" lon="17.8718078">
<ele>145</ele>
<time>2017-09-29T14:11:00Z</time>
</trkpt>
<trkpt lat="53.5872335" lon="17.8718078">
<ele>145</ele>
<time>2017-09-29T14:11:06Z</time>
</trkpt>
<trkpt lat="53.5872335" lon="17.8718078">
<ele>145</ele>
<time>2017-09-29T14:11:18Z</time>
</trkpt>
<trkpt lat="53.5872335" lon="17.8718078">
<ele>145</ele>
<time>2017-09-29T14:11:24Z</time>
</trkpt>
<trkpt lat="53.5872335" lon="17.8718078">
<ele>145</ele>
<time>2017-09-29T14:11:30Z</time>
</trkpt>
<trkpt lat="53.5872335" lon="17.8718078">
<ele>145</ele>
<time>2017-09-29T14:11:36Z</time>
</trkpt>
<trkpt lat="53.5872335" lon="17.8718078">
<ele>145</ele>
<time>2017-09-29T14:11:42Z</time>
</trkpt>
<trkpt lat="53.5872335" lon="17.8718078">
<ele>145</ele>
<time>2017-09-29T14:11:48Z</time>
</trkpt>
<trkpt lat="53.5872335" lon="17.8718078">
<ele>145</ele>
<time>2017-09-29T14:11:54Z</time>
</trkpt>
<trkpt lat="53.5872335" lon="17.8718078">
<ele>145</ele>
<time>2017-09-29T14:12:00Z</time>
</trkpt>
<trkpt lat="53.5872335" lon="17.8718078">
<ele>145</ele>
<time>2017-09-29T14:12:06Z</time>
</trkpt>
<trkpt lat="53.5872335" lon="17.8718078">
<ele>145</ele>
<time>2017-09-29T14:12:12Z</time>
</trkpt>
<trkpt lat="53.5872335" lon="17.8718078">
<ele>145</ele>
<time>2017-09-29T14:12:18Z</time>
</trkpt>
<trkpt lat="53.5872335" lon="17.8718078">
<ele>145</ele>
<time>2017-09-29T14:12:24Z</time>
</trkpt>
<trkpt lat="53.5872335" lon="17.8718078">
<ele>145</ele>
<time>2017-09-29T14:12:30Z</time>
</trkpt>
<trkpt lat="53.5872335" lon="17.8718078">
<ele>145</ele>
<time>2017-09-29T14:12:36Z</time>
</trkpt>
<trkpt lat="53.5872335" lon="17.8718078">
<ele>145</ele>
<time>2017-09-29T14:12:42Z</time>
</trkpt>
<trkpt lat="53.5872335" lon="17.8718078">
<ele>145</ele>
<time>2017-09-29T14:12:48Z</time>
</trkpt>
<trkpt lat="53.5872335" lon="17.8718078">
<ele>145</ele>
<time>2017-09-29T14:12:54Z</time>
</trkpt>
<trkpt lat="53.5872335" lon="17.8718078">
<ele>145</ele>
<time>2017-09-29T14:13:00Z</time>
</trkpt>
<trkpt lat="53.5872335" lon="17.8718078">
<ele>145</ele>
<time>2017-09-29T14:13:06Z</time>
</trkpt>
<trkpt lat="53.5872335" lon="17.8718078">
<ele>145</ele>
<time>2017-09-29T14:13:12Z</time>
</trkpt>
<trkpt lat="53.5872335" lon="17.8718078">
<ele>145</ele>
<time>2017-09-29T14:13:18Z</time>
</trkpt>
<trkpt lat="53.5872335" lon="17.8718078">
<ele>145</ele>
<time>2017-09-29T14:13:24Z</time>
</trkpt>
<trkpt lat="53.5872335" lon="17.8718078">
<ele>145</ele>
<time>2017-09-29T14:13:30Z</time>
</trkpt>
<trkpt lat="53.5872335" lon="17.8718078">
<ele>145</ele>
<time>2017-09-29T14:13:36Z</time>
</trkpt>
<trkpt lat="53.5872335" lon="17.8718078">
<ele>145</ele>
<time>2017-09-29T14:13:42Z</time>
</trkpt>
<trkpt lat="53.5872335" lon="17.8718078">
<ele>145</ele>
<time>2017-09-29T14:13:48Z</time>
</trkpt>
<trkpt lat="53.5872335" lon="17.8718078">
<ele>145</ele>
<time>2017-09-29T14:13:54Z</time>
</trkpt>
<trkpt lat="53.5872335" lon="17.8718078">
<ele>145</ele>
<time>2017-09-29T14:14:00Z</time>
</trkpt>
<trkpt lat="53.5872335" lon="17.8718078">
<ele>145</ele>
<time>2017-09-29T14:14:06Z</time>
</trkpt>
<trkpt lat="53.5872335" lon="17.8718078">
<ele>145</ele>
<time>2017-09-29T14:14:12Z</time>
</trkpt>
<trkpt lat="53.5872335" lon="17.8718078">
<ele>145</ele>
<time>2017-09-29T14:14:18Z</time>
</trkpt>
<trkpt lat="53.5872335" lon="17.8718078">
<ele>145</ele>
<time>2017-09-29T14:14:24Z</time>
</trkpt>
<trkpt lat="53.5872335" lon="17.8718078">
<ele>145</ele>
<time>2017-09-29T14:14:30Z</time>
</trkpt>
<trkpt lat="53.5872335" lon="17.8718078">
<ele>145</ele>
<time>2017-09-29T14:14:36Z</time>
</trkpt>
<trkpt lat="53.5872335" lon="17.8718078">
<ele>145</ele>
<time>2017-09-29T14:14:42Z</time>
</trkpt>
<trkpt lat="53.5872335" lon="17.8718078">
<ele>145</ele>
<time>2017-09-29T14:14:48Z</time>
</trkpt>
<trkpt lat="53.5872335" lon="17.8718078">
<ele>145</ele>
<time>2017-09-29T14:14:54Z</time>
</trkpt>
<trkpt lat="53.5872335" lon="17.8718078">
<ele>145</ele>
<time>2017-09-29T14:15:00Z</time>
</trkpt>
<trkpt lat="53.5872335" lon="17.8718078">
<ele>145</ele>
<time>2017-09-29T14:15:06Z</time>
</trkpt>
<trkpt lat="53.5872335" lon="17.8718078">
<ele>145</ele>
<time>2017-09-29T14:15:12Z</time>
</trkpt>
<trkpt lat="53.5872335" lon="17.8718078">
<ele>145</ele>
<time>2017-09-29T14:15:18Z</time>
</trkpt>
<trkpt lat="53.5872335" lon="17.8718078">
<ele>145</ele>
<time>2017-09-29T14:15:24Z</time>
</trkpt>
<trkpt lat="53.5872335" lon="17.8718078">
<ele>145</ele>
<time>2017-09-29T14:15:30Z</time>
</trkpt>
<trkpt lat="53.5872335" lon="17.8718078">
<ele>145</ele>
<time>2017-09-29T14:15:36Z</time>
</trkpt>
<trkpt lat="53.5872335" lon="17.8718078">
<ele>145</ele>
<time>2017-09-29T14:15:42Z</time>
</trkpt>
<trkpt lat="53.5872335" lon="17.8718078">
<ele>145</ele>
<time>2017-09-29T14:15:48Z</time>
</trkpt>
<trkpt lat="53.5872335" lon="17.8718078">
<ele>145</ele>
<time>2017-09-29T14:15:54Z</time>
</trkpt>
<trkpt lat="53.5872335" lon="17.8718078">
<ele>145</ele>
<time>2017-09-29T14:16:00Z</time>
</trkpt>
<trkpt lat="53.5872335" lon="17.8718078">
<ele>145</ele>
<time>2017-09-29T14:16:06Z</time>
</trkpt>
<trkpt lat="53.5872335" lon="17.8718078">
<ele>145</ele>
<time>2017-09-29T14:16:12Z</time>
</trkpt>
<trkpt lat="53.5872335" lon="17.8718078">
<ele>145</ele>
<time>2017-09-29T14:16:18Z</time>
</trkpt>
<trkpt lat="53.5872335" lon="17.8718078">
<ele>145</ele>
<time>2017-09-29T14:16:24Z</time>
</trkpt>
<trkpt lat="53.5872335" lon="17.8718078">
<ele>145</ele>
<time>2017-09-29T14:16:30Z</time>
</trkpt>
<trkpt lat="53.5872335" lon="17.8718078">
<ele>145</ele>
<time>2017-09-29T14:16:36Z</time>
</trkpt>
<trkpt lat="53.5872335" lon="17.8718078">
<ele>145</ele>
<time>2017-09-29T14:16:42Z</time>
</trkpt>
<trkpt lat="53.5872335" lon="17.8718078">
<ele>145</ele>
<time>2017-09-29T14:16:48Z</time>
</trkpt>
<trkpt lat="53.5872335" lon="17.8718078">
<ele>145</ele>
<time>2017-09-29T14:16:54Z</time>
</trkpt>
<trkpt lat="53.5872335" lon="17.8718078">
<ele>145</ele>
<time>2017-09-29T14:17:00Z</time>
</trkpt>
<trkpt lat="53.5872335" lon="17.8718078">
<ele>145</ele>
<time>2017-09-29T14:17:06Z</time>
</trkpt>
<trkpt lat="53.5872335" lon="17.8718078">
<ele>145</ele>
<time>2017-09-29T14:17:12Z</time>
</trkpt>
<trkpt lat="53.5872335" lon="17.8718078">
<ele>145</ele>
<time>2017-09-29T14:17:18Z</time>
</trkpt>
<trkpt lat="53.5872335" lon="17.8718078">
<ele>145</ele>
<time>2017-09-29T14:17:24Z</time>
</trkpt>
<trkpt lat="53.5872335" lon="17.8718078">
<ele>145</ele>
<time>2017-09-29T14:17:30Z</time>
</trkpt>
<trkpt lat="53.5872335" lon="17.8718078">
<ele>145</ele>
<time>2017-09-29T14:17:36Z</time>
</trkpt>
<trkpt lat="53.5872335" lon="17.8718078">
<ele>145</ele>
<time>2017-09-29T14:17:42Z</time>
</trkpt>
<trkpt lat="53.5872335" lon="17.8718078">
<ele>145</ele>
<time>2017-09-29T14:17:48Z</time>
</trkpt>
<trkpt lat="53.5872335" lon="17.8718078">
<ele>145</ele>
<time>2017-09-29T14:17:54Z</time>
</trkpt>
<trkpt lat="53.5872335" lon="17.8718078">
<ele>145</ele>
<time>2017-09-29T14:18:00Z</time>
</trkpt>
<trkpt lat="53.5872335" lon="17.8718078">
<ele>145</ele>
<time>2017-09-29T14:18:06Z</time>
</trkpt>
<trkpt lat="53.5872335" lon="17.8718078">
<ele>145</ele>
<time>2017-09-29T14:18:12Z</time>
</trkpt>
<trkpt lat="53.5872335" lon="17.8718078">
<ele>145</ele>
<time>2017-09-29T14:18:18Z</time>
</trkpt>
<trkpt lat="53.5872335" lon="17.8718078">
<ele>145</ele>
<time>2017-09-29T14:18:24Z</time>
</trkpt>
<trkpt lat="53.5872335" lon="17.8718078">
<ele>145</ele>
<time>2017-09-29T14:18:30Z</time>
</trkpt>
<trkpt lat="53.5872335" lon="17.8718078">
<ele>145</ele>
<time>2017-09-29T14:18:36Z</time>
</trkpt>
<trkpt lat="53.5872335" lon="17.8718078">
<ele>145</ele>
<time>2017-09-29T14:18:42Z</time>
</trkpt>
<trkpt lat="53.5872335" lon="17.8718078">
<ele>145</ele>
<time>2017-09-29T14:18:48Z</time>
</trkpt>
<trkpt lat="53.5872335" lon="17.8718078">
<ele>145</ele>
<time>2017-09-29T14:18:54Z</time>
</trkpt>
<trkpt lat="53.5872335" lon="17.8718078">
<ele>145</ele>
<time>2017-09-29T14:19:00Z</time>
</trkpt>
<trkpt lat="53.5872335" lon="17.8718078">
<ele>145</ele>
<time>2017-09-29T14:19:06Z</time>
</trkpt>
<trkpt lat="53.5872335" lon="17.8718078">
<ele>145</ele>
<time>2017-09-29T14:19:12Z</time>
</trkpt>
<trkpt lat="53.5872335" lon="17.8718078">
<ele>145</ele>
<time>2017-09-29T14:19:18Z</time>
</trkpt>
<trkpt lat="53.5872335" lon="17.8718078">
<ele>145</ele>
<time>2017-09-29T14:19:24Z</time>
</trkpt>
<trkpt lat="53.5872335" lon="17.8718078">
<ele>145</ele>
<time>2017-09-29T14:19:30Z</time>
</trkpt>
<trkpt lat="53.5872335" lon="17.8718078">
<ele>145</ele>
<time>2017-09-29T14:19:36Z</time>
</trkpt>
<trkpt lat="53.5872335" lon="17.8718078">
<ele>145</ele>
<time>2017-09-29T14:19:42Z</time>
</trkpt>
<trkpt lat="53.5872335" lon="17.8718078">
<ele>145</ele>
<time>2017-09-29T14:19:48Z</time>
</trkpt>
<trkpt lat="53.5872335" lon="17.8718078">
<ele>145</ele>
<time>2017-09-29T14:19:54Z</time>
</trkpt>
<trkpt lat="53.5872335" lon="17.8718078">
<ele>145</ele>
<time>2017-09-29T14:20:00Z</time>
</trkpt>
<trkpt lat="53.5872335" lon="17.8718078">
<ele>145</ele>
<time>2017-09-29T14:20:06Z</time>
</trkpt>
<trkpt lat="53.5872335" lon="17.8718078">
<ele>145</ele>
<time>2017-09-29T14:20:12Z</time>
</trkpt>
<trkpt lat="53.5872335" lon="17.8718078">
<ele>145</ele>
<time>2017-09-29T14:20:18Z</time>
</trkpt>
<trkpt lat="53.5872335" lon="17.8718078">
<ele>145</ele>
<time>2017-09-29T14:20:24Z</time>
</trkpt>
<trkpt lat="53.5872335" lon="17.8718078">
<ele>145</ele>
<time>2017-09-29T14:20:30Z</time>
</trkpt>
<trkpt lat="53.5872335" lon="17.8718078">
<ele>145</ele>
<time>2017-09-29T14:20:36Z</time>
</trkpt>
<trkpt lat="53.5872335" lon="17.8718078">
<ele>145</ele>
<time>2017-09-29T14:20:42Z</time>
</trkpt>
<trkpt lat="53.5872335" lon="17.8718078">
<ele>145</ele>
<time>2017-09-29T14:20:48Z</time>
</trkpt>
<trkpt lat="53.5872335" lon="17.8718078">
<ele>145</ele>
<time>2017-09-29T14:20:54Z</time>
</trkpt>
<trkpt lat="53.5872335" lon="17.8718078">
<ele>145</ele>
<time>2017-09-29T14:21:00Z</time>
</trkpt>
<trkpt lat="53.5872520" lon="17.8718432">
<ele>145</ele>
<time>2017-09-29T14:21:06Z</time>
</trkpt>
<trkpt lat="53.5871953" lon="17.8718558">
<ele>145</ele>
<time>2017-09-29T14:21:12Z</time>
</trkpt>
<trkpt lat="53.5871316" lon="17.8717036">
<ele>145</ele>
<time>2017-09-29T14:21:18Z</time>
</trkpt>
<trkpt lat="53.5871259" lon="17.8716865">
<ele>146</ele>
<time>2017-09-29T14:21:24Z</time>
</trkpt>
<trkpt lat="53.5871011" lon="17.8716487">
<ele>146</ele>
<time>2017-09-29T14:21:30Z</time>
</trkpt>
<trkpt lat="53.5870607" lon="17.8715888">
<ele>145</ele>
<time>2017-09-29T14:21:36Z</time>
</trkpt>
<trkpt lat="53.5870607" lon="17.8715888">
<ele>145</ele>
<time>2017-09-29T14:21:42Z</time>
</trkpt>
<trkpt lat="53.5870607" lon="17.8715888">
<ele>145</ele>
<time>2017-09-29T14:21:48Z</time>
</trkpt>
<trkpt lat="53.5870216" lon="17.8714722">
<ele>145</ele>
<time>2017-09-29T14:21:54Z</time>
</trkpt>
<trkpt lat="53.5871436" lon="17.8711277">
<ele>145</ele>
<time>2017-09-29T14:22:00Z</time>
</trkpt>
<trkpt lat="53.5873828" lon="17.8706651">
<ele>146</ele>
<time>2017-09-29T14:22:06Z</time>
</trkpt>
<trkpt lat="53.5877020" lon="17.8699595">
<ele>146</ele>
<time>2017-09-29T14:22:12Z</time>
</trkpt>
<trkpt lat="53.5881113" lon="17.8691270">
<ele>146</ele>
<time>2017-09-29T14:22:18Z</time>
</trkpt>
<trkpt lat="53.5886229" lon="17.8681342">
<ele>146</ele>
<time>2017-09-29T14:22:24Z</time>
</trkpt>
<trkpt lat="53.5889522" lon="17.8674525">
<ele>144</ele>
<time>2017-09-29T14:22:30Z</time>
</trkpt>
<trkpt lat="53.5890533" lon="17.8672942">
<ele>142</ele>
<time>2017-09-29T14:22:36Z</time>
</trkpt>
<trkpt lat="53.5892707" lon="17.8669374">
<ele>142</ele>
<time>2017-09-29T14:22:42Z</time>
</trkpt>
<trkpt lat="53.5896252" lon="17.8664463">
<ele>140</ele>
<time>2017-09-29T14:22:48Z</time>
</trkpt>
<trkpt lat="53.5900035" lon="17.8659415">
<ele>139</ele>
<time>2017-09-29T14:22:54Z</time>
</trkpt>
<trkpt lat="53.5903993" lon="17.8653981">
<ele>139</ele>
<time>2017-09-29T14:23:00Z</time>
</trkpt>
<trkpt lat="53.5907113" lon="17.8649058">
<ele>137</ele>
<time>2017-09-29T14:23:06Z</time>
</trkpt>
<trkpt lat="53.5909656" lon="17.8650169">
<ele>138</ele>
<time>2017-09-29T14:23:12Z</time>
</trkpt>
<trkpt lat="53.5912526" lon="17.8654578">
<ele>136</ele>
<time>2017-09-29T14:23:18Z</time>
</trkpt>
<trkpt lat="53.5916670" lon="17.8658395">
<ele>136</ele>
<time>2017-09-29T14:23:24Z</time>
</trkpt>
<trkpt lat="53.5921141" lon="17.8662327">
<ele>138</ele>
<time>2017-09-29T14:23:30Z</time>
</trkpt>
<trkpt lat="53.5925784" lon="17.8661729">
<ele>138</ele>
<time>2017-09-29T14:23:36Z</time>
</trkpt>
<trkpt lat="53.5930066" lon="17.8655368">
<ele>135</ele>
<time>2017-09-29T14:23:42Z</time>
</trkpt>
<trkpt lat="53.5931850" lon="17.8644347">
<ele>134</ele>
<time>2017-09-29T14:23:48Z</time>
</trkpt>
<trkpt lat="53.5931951" lon="17.8631943">
<ele>134</ele>
<time>2017-09-29T14:23:54Z</time>
</trkpt>
<trkpt lat="53.5931964" lon="17.8619200">
<ele>135</ele>
<time>2017-09-29T14:24:00Z</time>
</trkpt>
<trkpt lat="53.5932363" lon="17.8605048">
<ele>134</ele>
<time>2017-09-29T14:24:06Z</time>
</trkpt>
<trkpt lat="53.5932183" lon="17.8590800">
<ele>133</ele>
<time>2017-09-29T14:24:12Z</time>
</trkpt>
<trkpt lat="53.5931563" lon="17.8577541">
<ele>131</ele>
<time>2017-09-29T14:24:18Z</time>
</trkpt>
<trkpt lat="53.5930809" lon="17.8565348">
<ele>131</ele>
<time>2017-09-29T14:24:24Z</time>
</trkpt>
<trkpt lat="53.5933756" lon="17.8553862">
<ele>131</ele>
<time>2017-09-29T14:24:30Z</time>
</trkpt>
<trkpt lat="53.5938602" lon="17.8544089">
<ele>133</ele>
<time>2017-09-29T14:24:36Z</time>
</trkpt>
<trkpt lat="53.5941893" lon="17.8533974">
<ele>135</ele>
<time>2017-09-29T14:24:42Z</time>
</trkpt>
<trkpt lat="53.5944472" lon="17.8526498">
<ele>135</ele>
<time>2017-09-29T14:24:48Z</time>
</trkpt>
<trkpt lat="53.5947617" lon="17.8517665">
<ele>136</ele>
<time>2017-09-29T14:24:54Z</time>
</trkpt>
<trkpt lat="53.5951039" lon="17.8507617">
<ele>138</ele>
<time>2017-09-29T14:25:00Z</time>
</trkpt>
<trkpt lat="53.5954739" lon="17.8496904">
<ele>139</ele>
<time>2017-09-29T14:25:06Z</time>
</trkpt>
<trkpt lat="53.5958440" lon="17.8486167">
<ele>141</ele>
<time>2017-09-29T14:25:12Z</time>
</trkpt>
<trkpt lat="53.5961366" lon="17.8475160">
<ele>141</ele>
<time>2017-09-29T14:25:18Z</time>
</trkpt>
<trkpt lat="53.5961334" lon="17.8461581">
<ele>140</ele>
<time>2017-09-29T14:25:24Z</time>
</trkpt>
<trkpt lat="53.5961555" lon="17.8446805">
<ele>141</ele>
<time>2017-09-29T14:25:30Z</time>
</trkpt>
<trkpt lat="53.5961731" lon="17.8431627">
<ele>142</ele>
<time>2017-09-29T14:25:36Z</time>
</trkpt>
<trkpt lat="53.5961767" lon="17.8415838">
<ele>142</ele>
<time>2017-09-29T14:25:42Z</time>
</trkpt>
<trkpt lat="53.5961629" lon="17.8397952">
<ele>142</ele>
<time>2017-09-29T14:25:48Z</time>
</trkpt>
<trkpt lat="53.5961225" lon="17.8379655">
<ele>144</ele>
<time>2017-09-29T14:25:54Z</time>
</trkpt>
<trkpt lat="53.5960680" lon="17.8361754">
<ele>146</ele>
<time>2017-09-29T14:26:00Z</time>
</trkpt>
<trkpt lat="53.5959852" lon="17.8343521">
<ele>145</ele>
<time>2017-09-29T14:26:06Z</time>
</trkpt>
<trkpt lat="53.5959153" lon="17.8325568">
<ele>145</ele>
<time>2017-09-29T14:26:12Z</time>
</trkpt>
<trkpt lat="53.5958540" lon="17.8308629">
<ele>147</ele>
<time>2017-09-29T14:26:18Z</time>
</trkpt>
<trkpt lat="53.5957955" lon="17.8291961">
<ele>150</ele>
<time>2017-09-29T14:26:24Z</time>
</trkpt>
<trkpt lat="53.5957404" lon="17.8275474">
<ele>153</ele>
<time>2017-09-29T14:26:30Z</time>
</trkpt>
<trkpt lat="53.5956754" lon="17.8258668">
<ele>156</ele>
<time>2017-09-29T14:26:36Z</time>
</trkpt>
<trkpt lat="53.5956211" lon="17.8241725">
<ele>157</ele>
<time>2017-09-29T14:26:42Z</time>
</trkpt>
<trkpt lat="53.5955585" lon="17.8224362">
<ele>158</ele>
<time>2017-09-29T14:26:48Z</time>
</trkpt>
<trkpt lat="53.5953980" lon="17.8206849">
<ele>157</ele>
<time>2017-09-29T14:26:54Z</time>
</trkpt>
<trkpt lat="53.5950239" lon="17.8191394">
<ele>154</ele>
<time>2017-09-29T14:27:00Z</time>
</trkpt>
<trkpt lat="53.5950564" lon="17.8181522">
<ele>154</ele>
<time>2017-09-29T14:27:06Z</time>
</trkpt>
<trkpt lat="53.5955774" lon="17.8173482">
<ele>155</ele>
<time>2017-09-29T14:27:12Z</time>
</trkpt>
<trkpt lat="53.5962337" lon="17.8167308">
<ele>155</ele>
<time>2017-09-29T14:27:18Z</time>
</trkpt>
<trkpt lat="53.5969681" lon="17.8161239">
<ele>159</ele>
<time>2017-09-29T14:27:24Z</time>
</trkpt>
<trkpt lat="53.5977263" lon="17.8154952">
<ele>161</ele>
<time>2017-09-29T14:27:30Z</time>
</trkpt>
<trkpt lat="53.5984205" lon="17.8146734">
<ele>162</ele>
<time>2017-09-29T14:27:36Z</time>
</trkpt>
<trkpt lat="53.5991110" lon="17.8136999">
<ele>162</ele>
<time>2017-09-29T14:27:42Z</time>
</trkpt>
<trkpt lat="53.5998781" lon="17.8126406">
<ele>161</ele>
<time>2017-09-29T14:27:48Z</time>
</trkpt>
<trkpt lat="53.6006828" lon="17.8115054">
<ele>162</ele>
<time>2017-09-29T14:27:54Z</time>
</trkpt>
<trkpt lat="53.6014901" lon="17.8103535">
<ele>162</ele>
<time>2017-09-29T14:28:00Z</time>
</trkpt>
<trkpt lat="53.6023595" lon="17.8091808">
<ele>164</ele>
<time>2017-09-29T14:28:06Z</time>
</trkpt>
<trkpt lat="53.6032426" lon="17.8080162">
<ele>164</ele>
<time>2017-09-29T14:28:12Z</time>
</trkpt>
<trkpt lat="53.6041041" lon="17.8067715">
<ele>165</ele>
<time>2017-09-29T14:28:18Z</time>
</trkpt>
<trkpt lat="53.6045315" lon="17.8050661">
<ele>165</ele>
<time>2017-09-29T14:28:24Z</time>
</trkpt>
<trkpt lat="53.6048893" lon="17.8032901">
<ele>168</ele>
<time>2017-09-29T14:28:30Z</time>
</trkpt>
<trkpt lat="53.6052687" lon="17.8014663">
<ele>167</ele>
<time>2017-09-29T14:28:36Z</time>
</trkpt>
<trkpt lat="53.6056731" lon="17.7994878">
<ele>166</ele>
<time>2017-09-29T14:28:42Z</time>
</trkpt>
<trkpt lat="53.6060919" lon="17.7975004">
<ele>165</ele>
<time>2017-09-29T14:28:48Z</time>
</trkpt>
<trkpt lat="53.6066353" lon="17.7956562">
<ele>163</ele>
<time>2017-09-29T14:28:54Z</time>
</trkpt>
<trkpt lat="53.6072815" lon="17.7937828">
<ele>162</ele>
<time>2017-09-29T14:29:00Z</time>
</trkpt>
<trkpt lat="53.6079188" lon="17.7918708">
<ele>161</ele>
<time>2017-09-29T14:29:06Z</time>
</trkpt>
<trkpt lat="53.6085438" lon="17.7899974">
<ele>160</ele>
<time>2017-09-29T14:29:12Z</time>
</trkpt>
<trkpt lat="53.6091360" lon="17.7882012">
<ele>160</ele>
<time>2017-09-29T14:29:18Z</time>
</trkpt>
<trkpt lat="53.6096806" lon="17.7865341">
<ele>160</ele>
<time>2017-09-29T14:29:24Z</time>
</trkpt>
<trkpt lat="53.6101931" lon="17.7849319">
<ele>161</ele>
<time>2017-09-29T14:29:30Z</time>
</trkpt>
<trkpt lat="53.6106897" lon="17.7834000">
<ele>161</ele>
<time>2017-09-29T14:29:36Z</time>
</trkpt>
<trkpt lat="53.6111355" lon="17.7820606">
<ele>162</ele>
<time>2017-09-29T14:29:42Z</time>
</trkpt>
<trkpt lat="53.6115064" lon="17.7809026">
<ele>162</ele>
<time>2017-09-29T14:29:48Z</time>
</trkpt>
<trkpt lat="53.6118826" lon="17.7797455">
<ele>163</ele>
<time>2017-09-29T14:29:54Z</time>
</trkpt>
<trkpt lat="53.6122438" lon="17.7786351">
<ele>164</ele>
<time>2017-09-29T14:30:00Z</time>
</trkpt>
<trkpt lat="53.6126070" lon="17.7775507">
<ele>164</ele>
<time>2017-09-29T14:30:06Z</time>
</trkpt>
<trkpt lat="53.6130695" lon="17.7763977">
<ele>163</ele>
<time>2017-09-29T14:30:12Z</time>
</trkpt>
<trkpt lat="53.6136081" lon="17.7751790">
<ele>160</ele>
<time>2017-09-29T14:30:18Z</time>
</trkpt>
<trkpt lat="53.6141591" lon="17.7738989">
<ele>158</ele>
<time>2017-09-29T14:30:24Z</time>
</trkpt>
<trkpt lat="53.6147295" lon="17.7727222">
<ele>158</ele>
<time>2017-09-29T14:30:30Z</time>
</trkpt>
<trkpt lat="53.6155489" lon="17.7721181">
<ele>160</ele>
<time>2017-09-29T14:30:36Z</time>
</trkpt>
<trkpt lat="53.6163822" lon="17.7715933">
<ele>158</ele>
<time>2017-09-29T14:30:42Z</time>
</trkpt>
<trkpt lat="53.6172404" lon="17.7710250">
<ele>156</ele>
<time>2017-09-29T14:30:48Z</time>
</trkpt>
<trkpt lat="53.6181290" lon="17.7704475">
<ele>153</ele>
<time>2017-09-29T14:30:54Z</time>
</trkpt>
<trkpt lat="53.6190658" lon="17.7698646">
<ele>150</ele>
<time>2017-09-29T14:31:00Z</time>
</trkpt>
<trkpt lat="53.6200562" lon="17.7692120">
<ele>149</ele>
<time>2017-09-29T14:31:06Z</time>
</trkpt>
<trkpt lat="53.6210711" lon="17.7685557">
<ele>150</ele>
<time>2017-09-29T14:31:12Z</time>
</trkpt>
<trkpt lat="53.6221102" lon="17.7678727">
<ele>151</ele>
<time>2017-09-29T14:31:18Z</time>
</trkpt>
<trkpt lat="53.6231645" lon="17.7671867">
<ele>153</ele>
<time>2017-09-29T14:31:24Z</time>
</trkpt>
<trkpt lat="53.6241670" lon="17.7665120">
<ele>152</ele>
<time>2017-09-29T14:31:30Z</time>
</trkpt>
<trkpt lat="53.6249647" lon="17.7651855">
<ele>152</ele>
<time>2017-09-29T14:31:36Z</time>
</trkpt>
<trkpt lat="53.6255709" lon="17.7634111">
<ele>155</ele>
<time>2017-09-29T14:31:42Z</time>
</trkpt>
<trkpt lat="53.6261799" lon="17.7617895">
<ele>159</ele>
<time>2017-09-29T14:31:48Z</time>
</trkpt>
<trkpt lat="53.6267883" lon="17.7601787">
<ele>160</ele>
<time>2017-09-29T14:31:54Z</time>
</trkpt>
<trkpt lat="53.6274428" lon="17.7585345">
<ele>160</ele>
<time>2017-09-29T14:32:00Z</time>
</trkpt>
<trkpt lat="53.6280977" lon="17.7569021">
<ele>161</ele>
<time>2017-09-29T14:32:06Z</time>
</trkpt>
<trkpt lat="53.6287784" lon="17.7552274">
<ele>161</ele>
<time>2017-09-29T14:32:12Z</time>
</trkpt>
<trkpt lat="53.6294669" lon="17.7535379">
<ele>159</ele>
<time>2017-09-29T14:32:18Z</time>
</trkpt>
<trkpt lat="53.6301336" lon="17.7518853">
<ele>158</ele>
<time>2017-09-29T14:32:24Z</time>
</trkpt>
<trkpt lat="53.6307772" lon="17.7502541">
<ele>157</ele>
<time>2017-09-29T14:32:30Z</time>
</trkpt>
<trkpt lat="53.6314282" lon="17.7486639">
<ele>155</ele>
<time>2017-09-29T14:32:36Z</time>
</trkpt>
<trkpt lat="53.6320305" lon="17.7471747">
<ele>154</ele>
<time>2017-09-29T14:32:42Z</time>
</trkpt>
<trkpt lat="53.6326261" lon="17.7456984">
<ele>153</ele>
<time>2017-09-29T14:32:48Z</time>
</trkpt>
<trkpt lat="53.6332411" lon="17.7441870">
<ele>153</ele>
<time>2017-09-29T14:32:54Z</time>
</trkpt>
<trkpt lat="53.6338515" lon="17.7426636">
<ele>152</ele>
<time>2017-09-29T14:33:00Z</time>
</trkpt>
<trkpt lat="53.6344172" lon="17.7412623">
<ele>153</ele>
<time>2017-09-29T14:33:06Z</time>
</trkpt>
<trkpt lat="53.6349924" lon="17.7398294">
<ele>153</ele>
<time>2017-09-29T14:33:12Z</time>
</trkpt>
<trkpt lat="53.6355864" lon="17.7382650">
<ele>152</ele>
<time>2017-09-29T14:33:18Z</time>
</trkpt>
<trkpt lat="53.6362081" lon="17.7365719">
<ele>151</ele>
<time>2017-09-29T14:33:24Z</time>
</trkpt>
<trkpt lat="53.6368388" lon="17.7348681">
<ele>150</ele>
<time>2017-09-29T14:33:30Z</time>
</trkpt>
<trkpt lat="53.6374826" lon="17.7331698">
<ele>148</ele>
<time>2017-09-29T14:33:36Z</time>
</trkpt>
<trkpt lat="53.6381309" lon="17.7314594">
<ele>148</ele>
<time>2017-09-29T14:33:42Z</time>
</trkpt>
<trkpt lat="53.6387583" lon="17.7297603">
<ele>147</ele>
<time>2017-09-29T14:33:48Z</time>
</trkpt>
<trkpt lat="53.6393729" lon="17.7281065">
<ele>145</ele>
<time>2017-09-29T14:33:54Z</time>
</trkpt>
<trkpt lat="53.6399335" lon="17.7264164">
<ele>139</ele>
<time>2017-09-29T14:34:00Z</time>
</trkpt>
<trkpt lat="53.6402325" lon="17.7244734">
<ele>139</ele>
<time>2017-09-29T14:34:06Z</time>
</trkpt>
<trkpt lat="53.6405888" lon="17.7225926">
<ele>139</ele>
<time>2017-09-29T14:34:12Z</time>
</trkpt>
<trkpt lat="53.6411394" lon="17.7208761">
<ele>141</ele>
<time>2017-09-29T14:34:18Z</time>
</trkpt>
<trkpt lat="53.6416755" lon="17.7192603">
<ele>144</ele>
<time>2017-09-29T14:34:24Z</time>
</trkpt>
<trkpt lat="53.6422645" lon="17.7178651">
<ele>148</ele>
<time>2017-09-29T14:34:30Z</time>
</trkpt>
<trkpt lat="53.6435523" lon="17.7153609">
<ele>150</ele>
<time>2017-09-29T14:34:42Z</time>
</trkpt>
<trkpt lat="53.6442233" lon="17.7140709">
<ele>149</ele>
<time>2017-09-29T14:34:48Z</time>
</trkpt>
<trkpt lat="53.6448658" lon="17.7127797">
<ele>148</ele>
<time>2017-09-29T14:34:54Z</time>
</trkpt>
<trkpt lat="53.6454348" lon="17.7114008">
<ele>148</ele>
<time>2017-09-29T14:35:00Z</time>
</trkpt>
<trkpt lat="53.6459762" lon="17.7101494">
<ele>147</ele>
<time>2017-09-29T14:35:06Z</time>
</trkpt>
<trkpt lat="53.6464564" lon="17.7090006">
<ele>146</ele>
<time>2017-09-29T14:35:12Z</time>
</trkpt>
<trkpt lat="53.6469507" lon="17.7080169">
<ele>147</ele>
<time>2017-09-29T14:35:18Z</time>
</trkpt>
<trkpt lat="53.6474893" lon="17.7070515">
<ele>148</ele>
<time>2017-09-29T14:35:24Z</time>
</trkpt>
<trkpt lat="53.6479711" lon="17.7059739">
<ele>147</ele>
<time>2017-09-29T14:35:30Z</time>
</trkpt>
<trkpt lat="53.6484491" lon="17.7049323">
<ele>146</ele>
<time>2017-09-29T14:35:36Z</time>
</trkpt>
<trkpt lat="53.6489307" lon="17.7038935">
<ele>144</ele>
<time>2017-09-29T14:35:42Z</time>
</trkpt>
<trkpt lat="53.6493568" lon="17.7027081">
<ele>144</ele>
<time>2017-09-29T14:35:48Z</time>
</trkpt>
<trkpt lat="53.6497448" lon="17.7014980">
<ele>147</ele>
<time>2017-09-29T14:35:54Z</time>
</trkpt>
<trkpt lat="53.6501874" lon="17.7003743">
<ele>148</ele>
<time>2017-09-29T14:36:00Z</time>
</trkpt>
<trkpt lat="53.6507014" lon="17.6992413">
<ele>149</ele>
<time>2017-09-29T14:36:06Z</time>
</trkpt>
<trkpt lat="53.6512379" lon="17.6980821">
<ele>151</ele>
<time>2017-09-29T14:36:12Z</time>
</trkpt>
<trkpt lat="53.6518689" lon="17.6969900">
<ele>151</ele>
<time>2017-09-29T14:36:18Z</time>
</trkpt>
<trkpt lat="53.6525064" lon="17.6958774">
<ele>152</ele>
<time>2017-09-29T14:36:24Z</time>
</trkpt>
<trkpt lat="53.6531842" lon="17.6947050">
<ele>152</ele>
<time>2017-09-29T14:36:30Z</time>
</trkpt>
<trkpt lat="53.6538700" lon="17.6934994">
<ele>154</ele>
<time>2017-09-29T14:36:36Z</time>
</trkpt>
<trkpt lat="53.6545718" lon="17.6922839">
<ele>155</ele>
<time>2017-09-29T14:36:42Z</time>
</trkpt>
<trkpt lat="53.6552996" lon="17.6910177">
<ele>155</ele>
<time>2017-09-29T14:36:48Z</time>
</trkpt>
<trkpt lat="53.6560506" lon="17.6897373">
<ele>157</ele>
<time>2017-09-29T14:36:54Z</time>
</trkpt>
<trkpt lat="53.6567924" lon="17.6884142">
<ele>159</ele>
<time>2017-09-29T14:37:00Z</time>
</trkpt>
<trkpt lat="53.6575610" lon="17.6870947">
<ele>161</ele>
<time>2017-09-29T14:37:06Z</time>
</trkpt>
<trkpt lat="53.6583693" lon="17.6857245">
<ele>160</ele>
<time>2017-09-29T14:37:12Z</time>
</trkpt>
<trkpt lat="53.6591798" lon="17.6843321">
<ele>162</ele>
<time>2017-09-29T14:37:18Z</time>
</trkpt>
<trkpt lat="53.6599790" lon="17.6829636">
<ele>164</ele>
<time>2017-09-29T14:37:24Z</time>
</trkpt>
<trkpt lat="53.6606677" lon="17.6814245">
<ele>165</ele>
<time>2017-09-29T14:37:30Z</time>
</trkpt>
<trkpt lat="53.6611254" lon="17.6795706">
<ele>167</ele>
<time>2017-09-29T14:37:36Z</time>
</trkpt>
<trkpt lat="53.6616198" lon="17.6776897">
<ele>168</ele>
<time>2017-09-29T14:37:42Z</time>
</trkpt>
<trkpt lat="53.6620965" lon="17.6758569">
<ele>170</ele>
<time>2017-09-29T14:37:48Z</time>
</trkpt>
<trkpt lat="53.6625626" lon="17.6740598">
<ele>172</ele>
<time>2017-09-29T14:37:54Z</time>
</trkpt>
<trkpt lat="53.6630282" lon="17.6722307">
<ele>172</ele>
<time>2017-09-29T14:38:00Z</time>
</trkpt>
<trkpt lat="53.6636164" lon="17.6705087">
<ele>171</ele>
<time>2017-09-29T14:38:06Z</time>
</trkpt>
<trkpt lat="53.6644379" lon="17.6689521">
<ele>170</ele>
<time>2017-09-29T14:38:12Z</time>
</trkpt>
<trkpt lat="53.6652699" lon="17.6673908">
<ele>170</ele>
<time>2017-09-29T14:38:18Z</time>
</trkpt>
<trkpt lat="53.6660909" lon="17.6658276">
<ele>170</ele>
<time>2017-09-29T14:38:24Z</time>
</trkpt>
<trkpt lat="53.6669032" lon="17.6642870">
<ele>168</ele>
<time>2017-09-29T14:38:30Z</time>
</trkpt>
<trkpt lat="53.6677131" lon="17.6627692">
<ele>167</ele>
<time>2017-09-29T14:38:36Z</time>
</trkpt>
<trkpt lat="53.6685256" lon="17.6612489">
<ele>167</ele>
<time>2017-09-29T14:38:42Z</time>
</trkpt>
<trkpt lat="53.6693398" lon="17.6596676">
<ele>168</ele>
<time>2017-09-29T14:38:48Z</time>
</trkpt>
<trkpt lat="53.6701750" lon="17.6580856">
<ele>169</ele>
<time>2017-09-29T14:38:54Z</time>
</trkpt>
<trkpt lat="53.6710199" lon="17.6564878">
<ele>171</ele>
<time>2017-09-29T14:39:00Z</time>
</trkpt>
<trkpt lat="53.6718671" lon="17.6548715">
<ele>173</ele>
<time>2017-09-29T14:39:06Z</time>
</trkpt>
<trkpt lat="53.6727144" lon="17.6532749">
<ele>176</ele>
<time>2017-09-29T14:39:12Z</time>
</trkpt>
<trkpt lat="53.6735365" lon="17.6517159">
<ele>180</ele>
<time>2017-09-29T14:39:18Z</time>
</trkpt>
<trkpt lat="53.6743514" lon="17.6501728">
<ele>183</ele>
<time>2017-09-29T14:39:24Z</time>
</trkpt>
<trkpt lat="53.6751633" lon="17.6486142">
<ele>186</ele>
<time>2017-09-29T14:39:30Z</time>
</trkpt>
<trkpt lat="53.6759752" lon="17.6470626">
<ele>189</ele>
<time>2017-09-29T14:39:36Z</time>
</trkpt>
<trkpt lat="53.6767964" lon="17.6455118">
<ele>190</ele>
<time>2017-09-29T14:39:42Z</time>
</trkpt>
<trkpt lat="53.6778130" lon="17.6443213">
<ele>187</ele>
<time>2017-09-29T14:39:48Z</time>
</trkpt>
<trkpt lat="53.6788775" lon="17.6432656">
<ele>185</ele>
<time>2017-09-29T14:39:54Z</time>
</trkpt>
<trkpt lat="53.6797445" lon="17.6423363">
<ele>184</ele>
<time>2017-09-29T14:40:00Z</time>
</trkpt>
<trkpt lat="53.6804641" lon="17.6415818">
<ele>183</ele>
<time>2017-09-29T14:40:06Z</time>
</trkpt>
<trkpt lat="53.6810782" lon="17.6408940">
<ele>185</ele>
<time>2017-09-29T14:40:12Z</time>
</trkpt>
<trkpt lat="53.6821158" lon="17.6386368">
<ele>181</ele>
<time>2017-09-29T14:40:24Z</time>
</trkpt>
<trkpt lat="53.6826729" lon="17.6372980">
<ele>183</ele>
<time>2017-09-29T14:40:30Z</time>
</trkpt>
<trkpt lat="53.6831525" lon="17.6361609">
<ele>185</ele>
<time>2017-09-29T14:40:36Z</time>
</trkpt>
<trkpt lat="53.6836028" lon="17.6350360">
<ele>185</ele>
<time>2017-09-29T14:40:42Z</time>
</trkpt>
<trkpt lat="53.6840937" lon="17.6338445">
<ele>186</ele>
<time>2017-09-29T14:40:48Z</time>
</trkpt>
<trkpt lat="53.6847336" lon="17.6328973">
<ele>187</ele>
<time>2017-09-29T14:40:54Z</time>
</trkpt>
<trkpt lat="53.6854104" lon="17.6319890">
<ele>189</ele>
<time>2017-09-29T14:41:00Z</time>
</trkpt>
<trkpt lat="53.6860297" lon="17.6309524">
<ele>191</ele>
<time>2017-09-29T14:41:06Z</time>
</trkpt>
<trkpt lat="53.6865434" lon="17.6297827">
<ele>192</ele>
<time>2017-09-29T14:41:12Z</time>
</trkpt>
<trkpt lat="53.6869892" lon="17.6285028">
<ele>192</ele>
<time>2017-09-29T14:41:18Z</time>
</trkpt>
<trkpt lat="53.6874264" lon="17.6271182">
<ele>193</ele>
<time>2017-09-29T14:41:24Z</time>
</trkpt>
<trkpt lat="53.6878613" lon="17.6256844">
<ele>195</ele>
<time>2017-09-29T14:41:30Z</time>
</trkpt>
<trkpt lat="53.6882399" lon="17.6241525">
<ele>196</ele>
<time>2017-09-29T14:41:36Z</time>
</trkpt>
<trkpt lat="53.6886124" lon="17.6225870">
<ele>198</ele>
<time>2017-09-29T14:41:42Z</time>
</trkpt>
<trkpt lat="53.6889922" lon="17.6210255">
<ele>201</ele>
<time>2017-09-29T14:41:48Z</time>
</trkpt>
<trkpt lat="53.6893576" lon="17.6194382">
<ele>203</ele>
<time>2017-09-29T14:41:54Z</time>
</trkpt>
<trkpt lat="53.6896989" lon="17.6179311">
<ele>203</ele>
<time>2017-09-29T14:42:00Z</time>
</trkpt>
<trkpt lat="53.6899957" lon="17.6166992">
<ele>201</ele>
<time>2017-09-29T14:42:06Z</time>
</trkpt>
<trkpt lat="53.6902433" lon="17.6156411">
<ele>199</ele>
<time>2017-09-29T14:42:12Z</time>
</trkpt>
<trkpt lat="53.6905205" lon="17.6150891">
<ele>198</ele>
<time>2017-09-29T14:42:18Z</time>
</trkpt>
<trkpt lat="53.6908817" lon="17.6150061">
<ele>198</ele>
<time>2017-09-29T14:42:24Z</time>
</trkpt>
<trkpt lat="53.6914964" lon="17.6150412">
<ele>197</ele>
<time>2017-09-29T14:42:30Z</time>
</trkpt>
<trkpt lat="53.6921360" lon="17.6151376">
<ele>197</ele>
<time>2017-09-29T14:42:36Z</time>
</trkpt>
<trkpt lat="53.6925463" lon="17.6152310">
<ele>198</ele>
<time>2017-09-29T14:42:42Z</time>
</trkpt>
<trkpt lat="53.6925257" lon="17.6157302">
<ele>198</ele>
<time>2017-09-29T14:42:48Z</time>
</trkpt>
<trkpt lat="53.6925309" lon="17.6163802">
<ele>199</ele>
<time>2017-09-29T14:42:54Z</time>
</trkpt>
<trkpt lat="53.6924814" lon="17.6179572">
<ele>200</ele>
<time>2017-09-29T14:43:06Z</time>
</trkpt>
<trkpt lat="53.6924745" lon="17.6189377">
<ele>200</ele>
<time>2017-09-29T14:43:12Z</time>
</trkpt>
<trkpt lat="53.6924831" lon="17.6198679">
<ele>198</ele>
<time>2017-09-29T14:43:18Z</time>
</trkpt>
<trkpt lat="53.6924741" lon="17.6206883">
<ele>199</ele>
<time>2017-09-29T14:43:24Z</time>
</trkpt>
<trkpt lat="53.6924955" lon="17.6211767">
<ele>199</ele>
<time>2017-09-29T14:43:30Z</time>
</trkpt>
<trkpt lat="53.6926109" lon="17.6212237">
<ele>200</ele>
<time>2017-09-29T14:43:36Z</time>
</trkpt>
<trkpt lat="53.6926994" lon="17.6213412">
<ele>201</ele>
<time>2017-09-29T14:43:42Z</time>
</trkpt>
<trkpt lat="53.6928137" lon="17.6214263">
<ele>200</ele>
<time>2017-09-29T14:43:48Z</time>
</trkpt>
<trkpt lat="53.6929202" lon="17.6214341">
<ele>200</ele>
<time>2017-09-29T14:43:54Z</time>
</trkpt>
<trkpt lat="53.6930208" lon="17.6214301">
<ele>200</ele>
<time>2017-09-29T14:44:00Z</time>
</trkpt>
<trkpt lat="53.6930798" lon="17.6215163">
<ele>199</ele>
<time>2017-09-29T14:44:06Z</time>
</trkpt>
<trkpt lat="53.6930837" lon="17.6215349">
<ele>199</ele>
<time>2017-09-29T14:44:12Z</time>
</trkpt>
<trkpt lat="53.6930837" lon="17.6215349">
<ele>199</ele>
<time>2017-09-29T14:44:18Z</time>
</trkpt>
<trkpt lat="53.6930837" lon="17.6215349">
<ele>199</ele>
<time>2017-09-29T14:44:24Z</time>
</trkpt>
<trkpt lat="53.6930837" lon="17.6215349">
<ele>199</ele>
<time>2017-09-29T14:44:30Z</time>
</trkpt>
<trkpt lat="53.6930837" lon="17.6215349">
<ele>199</ele>
<time>2017-09-29T14:44:36Z</time>
</trkpt>
<trkpt lat="53.6930837" lon="17.6215349">
<ele>199</ele>
<time>2017-09-29T14:44:42Z</time>
</trkpt>
<trkpt lat="53.6930837" lon="17.6215349">
<ele>199</ele>
<time>2017-09-29T14:44:48Z</time>
</trkpt>
<trkpt lat="53.6930837" lon="17.6215349">
<ele>199</ele>
<time>2017-09-29T14:44:54Z</time>
</trkpt>
<trkpt lat="53.6930837" lon="17.6215349">
<ele>199</ele>
<time>2017-09-29T14:45:00Z</time>
</trkpt>
<trkpt lat="53.6930837" lon="17.6215349">
<ele>199</ele>
<time>2017-09-29T14:45:06Z</time>
</trkpt>
<trkpt lat="53.6930837" lon="17.6215349">
<ele>199</ele>
<time>2017-09-29T14:45:12Z</time>
</trkpt>
<trkpt lat="53.6930837" lon="17.6215349">
<ele>199</ele>
<time>2017-09-29T14:45:18Z</time>
</trkpt>
<trkpt lat="53.6930837" lon="17.6215349">
<ele>199</ele>
<time>2017-09-29T14:45:24Z</time>
</trkpt>
<trkpt lat="53.6930837" lon="17.6215349">
<ele>199</ele>
<time>2017-09-29T14:45:30Z</time>
</trkpt>
<trkpt lat="53.6930837" lon="17.6215349">
<ele>199</ele>
<time>2017-09-29T14:45:36Z</time>
</trkpt>
<trkpt lat="53.6930837" lon="17.6215349">
<ele>199</ele>
<time>2017-09-29T14:45:42Z</time>
</trkpt>
<trkpt lat="53.6930837" lon="17.6215349">
<ele>199</ele>
<time>2017-09-29T14:45:48Z</time>
</trkpt>
<trkpt lat="53.6930837" lon="17.6215349">
<ele>199</ele>
<time>2017-09-29T14:45:54Z</time>
</trkpt>
<trkpt lat="53.6930837" lon="17.6215349">
<ele>199</ele>
<time>2017-09-29T14:46:00Z</time>
</trkpt>
<trkpt lat="53.6930837" lon="17.6215349">
<ele>199</ele>
<time>2017-09-29T14:46:06Z</time>
</trkpt>
<trkpt lat="53.6930837" lon="17.6215349">
<ele>199</ele>
<time>2017-09-29T14:46:12Z</time>
</trkpt>
<trkpt lat="53.6930837" lon="17.6215349">
<ele>199</ele>
<time>2017-09-29T14:46:18Z</time>
</trkpt>
<trkpt lat="53.6930837" lon="17.6215349">
<ele>199</ele>
<time>2017-09-29T14:46:24Z</time>
</trkpt>
<trkpt lat="53.6930837" lon="17.6215349">
<ele>199</ele>
<time>2017-09-29T14:46:30Z</time>
</trkpt>
<trkpt lat="53.6930837" lon="17.6215349">
<ele>199</ele>
<time>2017-09-29T14:46:36Z</time>
</trkpt>
<trkpt lat="53.6930837" lon="17.6215349">
<ele>199</ele>
<time>2017-09-29T14:46:42Z</time>
</trkpt>
<trkpt lat="53.6930837" lon="17.6215349">
<ele>199</ele>
<time>2017-09-29T14:46:48Z</time>
</trkpt>
<trkpt lat="53.6930837" lon="17.6215349">
<ele>199</ele>
<time>2017-09-29T14:46:54Z</time>
</trkpt>
<trkpt lat="53.6930837" lon="17.6215349">
<ele>199</ele>
<time>2017-09-29T14:47:00Z</time>
</trkpt>
<trkpt lat="53.6930837" lon="17.6215349">
<ele>199</ele>
<time>2017-09-29T14:47:06Z</time>
</trkpt>
<trkpt lat="53.6930837" lon="17.6215349">
<ele>199</ele>
<time>2017-09-29T14:47:12Z</time>
</trkpt>
<trkpt lat="53.6930837" lon="17.6215349">
<ele>199</ele>
<time>2017-09-29T14:47:18Z</time>
</trkpt>
<trkpt lat="53.6930837" lon="17.6215349">
<ele>199</ele>
<time>2017-09-29T14:47:24Z</time>
</trkpt>
<trkpt lat="53.6930837" lon="17.6215349">
<ele>199</ele>
<time>2017-09-29T14:47:30Z</time>
</trkpt>
<trkpt lat="53.6930837" lon="17.6215349">
<ele>199</ele>
<time>2017-09-29T14:47:36Z</time>
</trkpt>
<trkpt lat="53.6930837" lon="17.6215349">
<ele>199</ele>
<time>2017-09-29T14:47:42Z</time>
</trkpt>
<trkpt lat="53.6930837" lon="17.6215349">
<ele>199</ele>
<time>2017-09-29T14:47:48Z</time>
</trkpt>
<trkpt lat="53.6930837" lon="17.6215349">
<ele>199</ele>
<time>2017-09-29T14:47:54Z</time>
</trkpt>
<trkpt lat="53.6930837" lon="17.6215349">
<ele>199</ele>
<time>2017-09-29T14:48:00Z</time>
</trkpt>
<trkpt lat="53.6930837" lon="17.6215349">
<ele>199</ele>
<time>2017-09-29T14:48:06Z</time>
</trkpt>
<trkpt lat="53.6930837" lon="17.6215349">
<ele>199</ele>
<time>2017-09-29T14:48:12Z</time>
</trkpt>
<trkpt lat="53.6930837" lon="17.6215349">
<ele>199</ele>
<time>2017-09-29T14:48:18Z</time>
</trkpt>
<trkpt lat="53.6930837" lon="17.6215349">
<ele>199</ele>
<time>2017-09-29T14:48:24Z</time>
</trkpt>
<trkpt lat="53.6930837" lon="17.6215349">
<ele>199</ele>
<time>2017-09-29T14:48:30Z</time>
</trkpt>
<trkpt lat="53.6930837" lon="17.6215349">
<ele>199</ele>
<time>2017-09-29T14:48:36Z</time>
</trkpt>
<trkpt lat="53.6930837" lon="17.6215349">
<ele>199</ele>
<time>2017-09-29T14:48:42Z</time>
</trkpt>
<trkpt lat="53.6930837" lon="17.6215349">
<ele>199</ele>
<time>2017-09-29T14:48:48Z</time>
</trkpt>
<trkpt lat="53.6930837" lon="17.6215349">
<ele>199</ele>
<time>2017-09-29T14:48:54Z</time>
</trkpt>
<trkpt lat="53.6930837" lon="17.6215349">
<ele>199</ele>
<time>2017-09-29T14:49:00Z</time>
</trkpt>
<trkpt lat="53.6930837" lon="17.6215349">
<ele>199</ele>
<time>2017-09-29T14:49:06Z</time>
</trkpt>
<trkpt lat="53.6930837" lon="17.6215349">
<ele>199</ele>
<time>2017-09-29T14:49:12Z</time>
</trkpt>
<trkpt lat="53.6930837" lon="17.6215349">
<ele>199</ele>
<time>2017-09-29T14:49:18Z</time>
</trkpt>
<trkpt lat="53.6930837" lon="17.6215349">
<ele>199</ele>
<time>2017-09-29T14:49:24Z</time>
</trkpt>
<trkpt lat="53.6930837" lon="17.6215349">
<ele>199</ele>
<time>2017-09-29T14:49:30Z</time>
</trkpt>
<trkpt lat="53.6930837" lon="17.6215349">
<ele>199</ele>
<time>2017-09-29T14:49:36Z</time>
</trkpt>
<trkpt lat="53.6930837" lon="17.6215349">
<ele>199</ele>
<time>2017-09-29T14:49:42Z</time>
</trkpt>
<trkpt lat="53.6930837" lon="17.6215349">
<ele>199</ele>
<time>2017-09-29T14:49:48Z</time>
</trkpt>
<trkpt lat="53.6930837" lon="17.6215349">
<ele>199</ele>
<time>2017-09-29T14:49:54Z</time>
</trkpt>
<trkpt lat="53.6930837" lon="17.6215349">
<ele>199</ele>
<time>2017-09-29T14:50:00Z</time>
</trkpt>
<trkpt lat="53.6930837" lon="17.6215349">
<ele>199</ele>
<time>2017-09-29T14:50:06Z</time>
</trkpt>
<trkpt lat="53.6930837" lon="17.6215349">
<ele>199</ele>
<time>2017-09-29T14:50:12Z</time>
</trkpt>
<trkpt lat="53.6930837" lon="17.6215349">
<ele>199</ele>
<time>2017-09-29T14:50:18Z</time>
</trkpt>
<trkpt lat="53.6930837" lon="17.6215349">
<ele>199</ele>
<time>2017-09-29T14:50:24Z</time>
</trkpt>
<trkpt lat="53.6930837" lon="17.6215349">
<ele>199</ele>
<time>2017-09-29T14:50:30Z</time>
</trkpt>
<trkpt lat="53.6930837" lon="17.6215349">
<ele>199</ele>
<time>2017-09-29T14:50:36Z</time>
</trkpt>
<trkpt lat="53.6930837" lon="17.6215349">
<ele>199</ele>
<time>2017-09-29T14:50:42Z</time>
</trkpt>
<trkpt lat="53.6930837" lon="17.6215349">
<ele>199</ele>
<time>2017-09-29T14:50:48Z</time>
</trkpt>
<trkpt lat="53.6930837" lon="17.6215349">
<ele>199</ele>
<time>2017-09-29T14:50:54Z</time>
</trkpt>
<trkpt lat="53.6930837" lon="17.6215349">
<ele>199</ele>
<time>2017-09-29T14:51:00Z</time>
</trkpt>
<trkpt lat="53.6930837" lon="17.6215349">
<ele>199</ele>
<time>2017-09-29T14:51:06Z</time>
</trkpt>
<trkpt lat="53.6930837" lon="17.6215349">
<ele>199</ele>
<time>2017-09-29T14:51:12Z</time>
</trkpt>
<trkpt lat="53.6930837" lon="17.6215349">
<ele>199</ele>
<time>2017-09-29T14:51:18Z</time>
</trkpt>
<trkpt lat="53.6930837" lon="17.6215349">
<ele>199</ele>
<time>2017-09-29T14:51:24Z</time>
</trkpt>
<trkpt lat="53.6930837" lon="17.6215349">
<ele>199</ele>
<time>2017-09-29T14:51:30Z</time>
</trkpt>
<trkpt lat="53.6930837" lon="17.6215349">
<ele>199</ele>
<time>2017-09-29T14:51:36Z</time>
</trkpt>
<trkpt lat="53.6930837" lon="17.6215349">
<ele>199</ele>
<time>2017-09-29T14:51:42Z</time>
</trkpt>
<trkpt lat="53.6930837" lon="17.6215349">
<ele>199</ele>
<time>2017-09-29T14:51:48Z</time>
</trkpt>
<trkpt lat="53.6930837" lon="17.6215349">
<ele>199</ele>
<time>2017-09-29T14:51:54Z</time>
</trkpt>
<trkpt lat="53.6930837" lon="17.6215349">
<ele>199</ele>
<time>2017-09-29T14:52:00Z</time>
</trkpt>
<trkpt lat="53.6930837" lon="17.6215349">
<ele>199</ele>
<time>2017-09-29T14:52:06Z</time>
</trkpt>
<trkpt lat="53.6930837" lon="17.6215349">
<ele>199</ele>
<time>2017-09-29T14:52:12Z</time>
</trkpt>
<trkpt lat="53.6930837" lon="17.6215349">
<ele>199</ele>
<time>2017-09-29T14:52:18Z</time>
</trkpt>
<trkpt lat="53.6930837" lon="17.6215349">
<ele>199</ele>
<time>2017-09-29T14:52:30Z</time>
</trkpt>
<trkpt lat="53.6930837" lon="17.6215349">
<ele>199</ele>
<time>2017-09-29T14:52:36Z</time>
</trkpt>
<trkpt lat="53.6930837" lon="17.6215349">
<ele>199</ele>
<time>2017-09-29T14:52:42Z</time>
</trkpt>
<trkpt lat="53.6930837" lon="17.6215349">
<ele>199</ele>
<time>2017-09-29T14:52:48Z</time>
</trkpt>
<trkpt lat="53.6930837" lon="17.6215349">
<ele>199</ele>
<time>2017-09-29T14:52:54Z</time>
</trkpt>
<trkpt lat="53.6930837" lon="17.6215349">
<ele>199</ele>
<time>2017-09-29T14:53:00Z</time>
</trkpt>
<trkpt lat="53.6930837" lon="17.6215349">
<ele>199</ele>
<time>2017-09-29T14:53:06Z</time>
</trkpt>
<trkpt lat="53.6930837" lon="17.6215349">
<ele>199</ele>
<time>2017-09-29T14:53:12Z</time>
</trkpt>
<trkpt lat="53.6930837" lon="17.6215349">
<ele>199</ele>
<time>2017-09-29T14:53:18Z</time>
</trkpt>
<trkpt lat="53.6930837" lon="17.6215349">
<ele>199</ele>
<time>2017-09-29T14:53:24Z</time>
</trkpt>
<trkpt lat="53.6930837" lon="17.6215349">
<ele>199</ele>
<time>2017-09-29T14:53:30Z</time>
</trkpt>
<trkpt lat="53.6930837" lon="17.6215349">
<ele>199</ele>
<time>2017-09-29T14:53:36Z</time>
</trkpt>
<trkpt lat="53.6930837" lon="17.6215349">
<ele>199</ele>
<time>2017-09-29T14:53:42Z</time>
</trkpt>
<trkpt lat="53.6930837" lon="17.6215349">
<ele>199</ele>
<time>2017-09-29T14:53:48Z</time>
</trkpt>
<trkpt lat="53.6930837" lon="17.6215349">
<ele>199</ele>
<time>2017-09-29T14:53:54Z</time>
</trkpt>
<trkpt lat="53.6930837" lon="17.6215349">
<ele>199</ele>
<time>2017-09-29T14:54:00Z</time>
</trkpt>
<trkpt lat="53.6930837" lon="17.6215349">
<ele>199</ele>
<time>2017-09-29T14:54:06Z</time>
</trkpt>
<trkpt lat="53.6930837" lon="17.6215349">
<ele>199</ele>
<time>2017-09-29T14:54:12Z</time>
</trkpt>
<trkpt lat="53.6930837" lon="17.6215349">
<ele>199</ele>
<time>2017-09-29T14:54:18Z</time>
</trkpt>
<trkpt lat="53.6930837" lon="17.6215349">
<ele>199</ele>
<time>2017-09-29T14:54:24Z</time>
</trkpt>
<trkpt lat="53.6930837" lon="17.6215349">
<ele>199</ele>
<time>2017-09-29T14:54:30Z</time>
</trkpt>
<trkpt lat="53.6930837" lon="17.6215349">
<ele>199</ele>
<time>2017-09-29T14:54:36Z</time>
</trkpt>
<trkpt lat="53.6930840" lon="17.6215396">
<ele>200</ele>
<time>2017-09-29T14:54:42Z</time>
</trkpt>
<trkpt lat="53.6930136" lon="17.6216304">
<ele>200</ele>
<time>2017-09-29T14:54:48Z</time>
</trkpt>
<trkpt lat="53.6927949" lon="17.6216287">
<ele>200</ele>
<time>2017-09-29T14:54:54Z</time>
</trkpt>
<trkpt lat="53.6925519" lon="17.6216351">
<ele>200</ele>
<time>2017-09-29T14:55:00Z</time>
</trkpt>
<trkpt lat="53.6925001" lon="17.6213727">
<ele>200</ele>
<time>2017-09-29T14:55:06Z</time>
</trkpt>
<trkpt lat="53.6924925" lon="17.6208657">
<ele>201</ele>
<time>2017-09-29T14:55:12Z</time>
</trkpt>
<trkpt lat="53.6925069" lon="17.6201069">
<ele>202</ele>
<time>2017-09-29T14:55:18Z</time>
</trkpt>
<trkpt lat="53.6924999" lon="17.6191961">
<ele>203</ele>
<time>2017-09-29T14:55:24Z</time>
</trkpt>
<trkpt lat="53.6924890" lon="17.6182069">
<ele>205</ele>
<time>2017-09-29T14:55:30Z</time>
</trkpt>
<trkpt lat="53.6925338" lon="17.6175677">
<ele>206</ele>
<time>2017-09-29T14:55:36Z</time>
</trkpt>
<trkpt lat="53.6925900" lon="17.6169420">
<ele>205</ele>
<time>2017-09-29T14:55:42Z</time>
</trkpt>
<trkpt lat="53.6925841" lon="17.6163245">
<ele>206</ele>
<time>2017-09-29T14:55:48Z</time>
</trkpt>
<trkpt lat="53.6925807" lon="17.6156515">
<ele>208</ele>
<time>2017-09-29T14:55:54Z</time>
</trkpt>
<trkpt lat="53.6925948" lon="17.6152856">
<ele>210</ele>
<time>2017-09-29T14:56:00Z</time>
</trkpt>
<trkpt lat="53.6925694" lon="17.6151928">
<ele>210</ele>
<time>2017-09-29T14:56:06Z</time>
</trkpt>
<trkpt lat="53.6922524" lon="17.6151115">
<ele>208</ele>
<time>2017-09-29T14:56:12Z</time>
</trkpt>
<trkpt lat="53.6916816" lon="17.6150193">
<ele>205</ele>
<time>2017-09-29T14:56:18Z</time>
</trkpt>
<trkpt lat="53.6910320" lon="17.6149527">
<ele>205</ele>
<time>2017-09-29T14:56:24Z</time>
</trkpt>
<trkpt lat="53.6906815" lon="17.6148748">
<ele>208</ele>
<time>2017-09-29T14:56:30Z</time>
</trkpt>
<trkpt lat="53.6905051" lon="17.6146382">
<ele>206</ele>
<time>2017-09-29T14:56:36Z</time>
</trkpt>
<trkpt lat="53.6903400" lon="17.6151261">
<ele>208</ele>
<time>2017-09-29T14:56:42Z</time>
</trkpt>
<trkpt lat="53.6901825" lon="17.6158018">
<ele>206</ele>
<time>2017-09-29T14:56:48Z</time>
</trkpt>
<trkpt lat="53.6899318" lon="17.6166769">
<ele>207</ele>
<time>2017-09-29T14:56:54Z</time>
</trkpt>
<trkpt lat="53.6897105" lon="17.6175617">
<ele>207</ele>
<time>2017-09-29T14:57:00Z</time>
</trkpt>
<trkpt lat="53.6894886" lon="17.6185003">
<ele>207</ele>
<time>2017-09-29T14:57:06Z</time>
</trkpt>
<trkpt lat="53.6892886" lon="17.6193443">
<ele>207</ele>
<time>2017-09-29T14:57:12Z</time>
</trkpt>
<trkpt lat="53.6890398" lon="17.6199214">
<ele>204</ele>
<time>2017-09-29T14:57:18Z</time>
</trkpt>
<trkpt lat="53.6888389" lon="17.6197221">
<ele>206</ele>
<time>2017-09-29T14:57:24Z</time>
</trkpt>
<trkpt lat="53.6885572" lon="17.6194972">
<ele>204</ele>
<time>2017-09-29T14:57:30Z</time>
</trkpt>
<trkpt lat="53.6882471" lon="17.6191153">
<ele>203</ele>
<time>2017-09-29T14:57:36Z</time>
</trkpt>
<trkpt lat="53.6882301" lon="17.6184187">
<ele>202</ele>
<time>2017-09-29T14:57:42Z</time>
</trkpt>
<trkpt lat="53.6885378" lon="17.6180112">
<ele>201</ele>
<time>2017-09-29T14:57:48Z</time>
</trkpt>
<trkpt lat="53.6888971" lon="17.6181499">
<ele>199</ele>
<time>2017-09-29T14:57:54Z</time>
</trkpt>
<trkpt lat="53.6891896" lon="17.6185421">
<ele>198</ele>
<time>2017-09-29T14:58:00Z</time>
</trkpt>
<trkpt lat="53.6895191" lon="17.6189904">
<ele>197</ele>
<time>2017-09-29T14:58:06Z</time>
</trkpt>
<trkpt lat="53.6899149" lon="17.6195004">
<ele>196</ele>
<time>2017-09-29T14:58:12Z</time>
</trkpt>
<trkpt lat="53.6903439" lon="17.6200335">
<ele>196</ele>
<time>2017-09-29T14:58:18Z</time>
</trkpt>
<trkpt lat="53.6908592" lon="17.6206592">
<ele>196</ele>
<time>2017-09-29T14:58:24Z</time>
</trkpt>
<trkpt lat="53.6914315" lon="17.6213477">
<ele>196</ele>
<time>2017-09-29T14:58:30Z</time>
</trkpt>
<trkpt lat="53.6920105" lon="17.6220907">
<ele>196</ele>
<time>2017-09-29T14:58:36Z</time>
</trkpt>
<trkpt lat="53.6926047" lon="17.6228499">
<ele>196</ele>
<time>2017-09-29T14:58:42Z</time>
</trkpt>
<trkpt lat="53.6931575" lon="17.6235786">
<ele>195</ele>
<time>2017-09-29T14:58:48Z</time>
</trkpt>
<trkpt lat="53.6937403" lon="17.6243294">
<ele>195</ele>
<time>2017-09-29T14:58:54Z</time>
</trkpt>
<trkpt lat="53.6944059" lon="17.6251073">
<ele>195</ele>
<time>2017-09-29T14:59:00Z</time>
</trkpt>
<trkpt lat="53.6950951" lon="17.6258582">
<ele>194</ele>
<time>2017-09-29T14:59:06Z</time>
</trkpt>
<trkpt lat="53.6957546" lon="17.6267059">
<ele>194</ele>
<time>2017-09-29T14:59:12Z</time>
</trkpt>
<trkpt lat="53.6964385" lon="17.6275802">
<ele>194</ele>
<time>2017-09-29T14:59:18Z</time>
</trkpt>
<trkpt lat="53.6971342" lon="17.6284656">
<ele>193</ele>
<time>2017-09-29T14:59:24Z</time>
</trkpt>
<trkpt lat="53.6978020" lon="17.6293249">
<ele>192</ele>
<time>2017-09-29T14:59:30Z</time>
</trkpt>
<trkpt lat="53.6984865" lon="17.6301972">
<ele>191</ele>
<time>2017-09-29T14:59:36Z</time>
</trkpt>
<trkpt lat="53.6991741" lon="17.6310219">
<ele>191</ele>
<time>2017-09-29T14:59:42Z</time>
</trkpt>
<trkpt lat="53.6998676" lon="17.6317977">
<ele>190</ele>
<time>2017-09-29T14:59:48Z</time>
</trkpt>
<trkpt lat="53.7005765" lon="17.6325670">
<ele>188</ele>
<time>2017-09-29T14:59:54Z</time>
</trkpt>
<trkpt lat="53.7013178" lon="17.6333672">
<ele>186</ele>
<time>2017-09-29T15:00:00Z</time>
</trkpt>
<trkpt lat="53.7020326" lon="17.6341525">
<ele>184</ele>
<time>2017-09-29T15:00:06Z</time>
</trkpt>
<trkpt lat="53.7027690" lon="17.6349591">
<ele>182</ele>
<time>2017-09-29T15:00:12Z</time>
</trkpt>
<trkpt lat="53.7034924" lon="17.6357271">
<ele>180</ele>
<time>2017-09-29T15:00:18Z</time>
</trkpt>
<trkpt lat="53.7042331" lon="17.6365254">
<ele>179</ele>
<time>2017-09-29T15:00:24Z</time>
</trkpt>
<trkpt lat="53.7049676" lon="17.6373219">
<ele>179</ele>
<time>2017-09-29T15:00:30Z</time>
</trkpt>
<trkpt lat="53.7056831" lon="17.6381064">
<ele>178</ele>
<time>2017-09-29T15:00:36Z</time>
</trkpt>
<trkpt lat="53.7063387" lon="17.6388731">
<ele>179</ele>
<time>2017-09-29T15:00:42Z</time>
</trkpt>
<trkpt lat="53.7068964" lon="17.6396064">
<ele>180</ele>
<time>2017-09-29T15:00:48Z</time>
</trkpt>
<trkpt lat="53.7073929" lon="17.6403333">
<ele>180</ele>
<time>2017-09-29T15:00:54Z</time>
</trkpt>
<trkpt lat="53.7078604" lon="17.6410952">
<ele>181</ele>
<time>2017-09-29T15:01:00Z</time>
</trkpt>
<trkpt lat="53.7083019" lon="17.6418669">
<ele>180</ele>
<time>2017-09-29T15:01:06Z</time>
</trkpt>
<trkpt lat="53.7086781" lon="17.6426714">
<ele>180</ele>
<time>2017-09-29T15:01:12Z</time>
</trkpt>
<trkpt lat="53.7089704" lon="17.6433767">
<ele>181</ele>
<time>2017-09-29T15:01:18Z</time>
</trkpt>
<trkpt lat="53.7089246" lon="17.6438863">
<ele>181</ele>
<time>2017-09-29T15:01:24Z</time>
</trkpt>
<trkpt lat="53.7086781" lon="17.6442128">
<ele>181</ele>
<time>2017-09-29T15:01:30Z</time>
</trkpt>
<trkpt lat="53.7085939" lon="17.6444372">
<ele>182</ele>
<time>2017-09-29T15:01:36Z</time>
</trkpt>
<trkpt lat="53.7086596" lon="17.6444862">
<ele>180</ele>
<time>2017-09-29T15:01:42Z</time>
</trkpt>
<trkpt lat="53.7085989" lon="17.6444403">
<ele>180</ele>
<time>2017-09-29T15:01:48Z</time>
</trkpt>
<trkpt lat="53.7085675" lon="17.6444024">
<ele>180</ele>
<time>2017-09-29T15:01:54Z</time>
</trkpt>
<trkpt lat="53.7088089" lon="17.6440703">
<ele>181</ele>
<time>2017-09-29T15:02:00Z</time>
</trkpt>
<trkpt lat="53.7090199" lon="17.6438089">
<ele>180</ele>
<time>2017-09-29T15:02:06Z</time>
</trkpt>
<trkpt lat="53.7091212" lon="17.6436120">
<ele>179</ele>
<time>2017-09-29T15:02:12Z</time>
</trkpt>
<trkpt lat="53.7089320" lon="17.6428907">
<ele>180</ele>
<time>2017-09-29T15:02:18Z</time>
</trkpt>
<trkpt lat="53.7085154" lon="17.6420542">
<ele>180</ele>
<time>2017-09-29T15:02:24Z</time>
</trkpt>
<trkpt lat="53.7079483" lon="17.6409833">
<ele>179</ele>
<time>2017-09-29T15:02:30Z</time>
</trkpt>
<trkpt lat="53.7072412" lon="17.6398713">
<ele>179</ele>
<time>2017-09-29T15:02:36Z</time>
</trkpt>
<trkpt lat="53.7064180" lon="17.6387457">
<ele>178</ele>
<time>2017-09-29T15:02:42Z</time>
</trkpt>
<trkpt lat="53.7054446" lon="17.6376090">
<ele>175</ele>
<time>2017-09-29T15:02:48Z</time>
</trkpt>
<trkpt lat="53.7044147" lon="17.6364872">
<ele>176</ele>
<time>2017-09-29T15:02:54Z</time>
</trkpt>
<trkpt lat="53.7033817" lon="17.6353981">
<ele>177</ele>
<time>2017-09-29T15:03:00Z</time>
</trkpt>
<trkpt lat="53.7023291" lon="17.6342800">
<ele>179</ele>
<time>2017-09-29T15:03:06Z</time>
</trkpt>
<trkpt lat="53.7012727" lon="17.6331437">
<ele>182</ele>
<time>2017-09-29T15:03:12Z</time>
</trkpt>
<trkpt lat="53.7002140" lon="17.6320090">
<ele>185</ele>
<time>2017-09-29T15:03:18Z</time>
</trkpt>
<trkpt lat="53.6991802" lon="17.6308508">
<ele>187</ele>
<time>2017-09-29T15:03:24Z</time>
</trkpt>
<trkpt lat="53.6981815" lon="17.6296402">
<ele>187</ele>
<time>2017-09-29T15:03:30Z</time>
</trkpt>
<trkpt lat="53.6971995" lon="17.6283805">
<ele>189</ele>
<time>2017-09-29T15:03:36Z</time>
</trkpt>
<trkpt lat="53.6962072" lon="17.6271230">
<ele>189</ele>
<time>2017-09-29T15:03:42Z</time>
</trkpt>
<trkpt lat="53.6951954" lon="17.6258599">
<ele>190</ele>
<time>2017-09-29T15:03:48Z</time>
</trkpt>
<trkpt lat="53.6942055" lon="17.6246046">
<ele>191</ele>
<time>2017-09-29T15:03:54Z</time>
</trkpt>
<trkpt lat="53.6932153" lon="17.6233542">
<ele>192</ele>
<time>2017-09-29T15:04:00Z</time>
</trkpt>
<trkpt lat="53.6922213" lon="17.6220843">
<ele>194</ele>
<time>2017-09-29T15:04:06Z</time>
</trkpt>
<trkpt lat="53.6912146" lon="17.6207901">
<ele>195</ele>
<time>2017-09-29T15:04:12Z</time>
</trkpt>
<trkpt lat="53.6902122" lon="17.6195049">
<ele>196</ele>
<time>2017-09-29T15:04:18Z</time>
</trkpt>
<trkpt lat="53.6892291" lon="17.6181916">
<ele>198</ele>
<time>2017-09-29T15:04:24Z</time>
</trkpt>
<trkpt lat="53.6882955" lon="17.6166880">
<ele>199</ele>
<time>2017-09-29T15:04:30Z</time>
</trkpt>
<trkpt lat="53.6874896" lon="17.6149334">
<ele>200</ele>
<time>2017-09-29T15:04:36Z</time>
</trkpt>
<trkpt lat="53.6868069" lon="17.6130549">
<ele>201</ele>
<time>2017-09-29T15:04:42Z</time>
</trkpt>
<trkpt lat="53.6861295" lon="17.6111687">
<ele>202</ele>
<time>2017-09-29T15:04:48Z</time>
</trkpt>
<trkpt lat="53.6854576" lon="17.6092736">
<ele>203</ele>
<time>2017-09-29T15:04:54Z</time>
</trkpt>
<trkpt lat="53.6847681" lon="17.6073567">
<ele>202</ele>
<time>2017-09-29T15:05:00Z</time>
</trkpt>
<trkpt lat="53.6840970" lon="17.6054503">
<ele>201</ele>
<time>2017-09-29T15:05:06Z</time>
</trkpt>
<trkpt lat="53.6834228" lon="17.6035421">
<ele>199</ele>
<time>2017-09-29T15:05:12Z</time>
</trkpt>
<trkpt lat="53.6827297" lon="17.6016423">
<ele>198</ele>
<time>2017-09-29T15:05:18Z</time>
</trkpt>
<trkpt lat="53.6820501" lon="17.5997407">
<ele>196</ele>
<time>2017-09-29T15:05:24Z</time>
</trkpt>
<trkpt lat="53.6813732" lon="17.5978292">
<ele>195</ele>
<time>2017-09-29T15:05:30Z</time>
</trkpt>
<trkpt lat="53.6807352" lon="17.5959005">
<ele>193</ele>
<time>2017-09-29T15:05:36Z</time>
</trkpt>
<trkpt lat="53.6801854" lon="17.5938863">
<ele>193</ele>
<time>2017-09-29T15:05:42Z</time>
</trkpt>
<trkpt lat="53.6797192" lon="17.5917838">
<ele>192</ele>
<time>2017-09-29T15:05:48Z</time>
</trkpt>
<trkpt lat="53.6793579" lon="17.5896118">
<ele>191</ele>
<time>2017-09-29T15:05:54Z</time>
</trkpt>
<trkpt lat="53.6790849" lon="17.5873658">
<ele>190</ele>
<time>2017-09-29T15:06:00Z</time>
</trkpt>
<trkpt lat="53.6789375" lon="17.5850848">
<ele>189</ele>
<time>2017-09-29T15:06:06Z</time>
</trkpt>
<trkpt lat="53.6789147" lon="17.5827898">
<ele>188</ele>
<time>2017-09-29T15:06:12Z</time>
</trkpt>
<trkpt lat="53.6789959" lon="17.5805301">
<ele>188</ele>
<time>2017-09-29T15:06:18Z</time>
</trkpt>
<trkpt lat="53.6791921" lon="17.5782800">
<ele>188</ele>
<time>2017-09-29T15:06:24Z</time>
</trkpt>
<trkpt lat="53.6794896" lon="17.5761062">
<ele>187</ele>
<time>2017-09-29T15:06:30Z</time>
</trkpt>
<trkpt lat="53.6797855" lon="17.5738847">
<ele>187</ele>
<time>2017-09-29T15:06:36Z</time>
</trkpt>
<trkpt lat="53.6800692" lon="17.5716256">
<ele>186</ele>
<time>2017-09-29T15:06:42Z</time>
</trkpt>
<trkpt lat="53.6803943" lon="17.5693850">
<ele>185</ele>
<time>2017-09-29T15:06:48Z</time>
</trkpt>
<trkpt lat="53.6806074" lon="17.5671198">
<ele>183</ele>
<time>2017-09-29T15:06:54Z</time>
</trkpt>
<trkpt lat="53.6806622" lon="17.5648455">
<ele>183</ele>
<time>2017-09-29T15:07:00Z</time>
</trkpt>
<trkpt lat="53.6805839" lon="17.5624919">
<ele>181</ele>
<time>2017-09-29T15:07:06Z</time>
</trkpt>
<trkpt lat="53.6804535" lon="17.5601330">
<ele>179</ele>
<time>2017-09-29T15:07:12Z</time>
</trkpt>
<trkpt lat="53.6803357" lon="17.5577965">
<ele>180</ele>
<time>2017-09-29T15:07:18Z</time>
</trkpt>
<trkpt lat="53.6802389" lon="17.5554869">
<ele>183</ele>
<time>2017-09-29T15:07:24Z</time>
</trkpt>
<trkpt lat="53.6802512" lon="17.5532010">
<ele>186</ele>
<time>2017-09-29T15:07:30Z</time>
</trkpt>
<trkpt lat="53.6804136" lon="17.5509504">
<ele>189</ele>
<time>2017-09-29T15:07:36Z</time>
</trkpt>
<trkpt lat="53.6806720" lon="17.5487136">
<ele>191</ele>
<time>2017-09-29T15:07:42Z</time>
</trkpt>
<trkpt lat="53.6809481" lon="17.5464757">
<ele>192</ele>
<time>2017-09-29T15:07:48Z</time>
</trkpt>
<trkpt lat="53.6812284" lon="17.5442223">
<ele>194</ele>
<time>2017-09-29T15:07:54Z</time>
</trkpt>
<trkpt lat="53.6815180" lon="17.5419543">
<ele>195</ele>
<time>2017-09-29T15:08:00Z</time>
</trkpt>
<trkpt lat="53.6818039" lon="17.5396821">
<ele>195</ele>
<time>2017-09-29T15:08:06Z</time>
</trkpt>
<trkpt lat="53.6820764" lon="17.5373979">
<ele>194</ele>
<time>2017-09-29T15:08:12Z</time>
</trkpt>
<trkpt lat="53.6823608" lon="17.5351052">
<ele>192</ele>
<time>2017-09-29T15:08:18Z</time>
</trkpt>
<trkpt lat="53.6826403" lon="17.5328485">
<ele>190</ele>
<time>2017-09-29T15:08:24Z</time>
</trkpt>
<trkpt lat="53.6828832" lon="17.5305749">
<ele>189</ele>
<time>2017-09-29T15:08:30Z</time>
</trkpt>
<trkpt lat="53.6830884" lon="17.5282471">
<ele>188</ele>
<time>2017-09-29T15:08:36Z</time>
</trkpt>
<trkpt lat="53.6832460" lon="17.5258734">
<ele>188</ele>
<time>2017-09-29T15:08:42Z</time>
</trkpt>
<trkpt lat="53.6833720" lon="17.5235020">
<ele>187</ele>
<time>2017-09-29T15:08:48Z</time>
</trkpt>
<trkpt lat="53.6834816" lon="17.5211722">
<ele>188</ele>
<time>2017-09-29T15:08:54Z</time>
</trkpt>
<trkpt lat="53.6835997" lon="17.5188740">
<ele>188</ele>
<time>2017-09-29T15:09:00Z</time>
</trkpt>
<trkpt lat="53.6837172" lon="17.5166222">
<ele>189</ele>
<time>2017-09-29T15:09:06Z</time>
</trkpt>
<trkpt lat="53.6838337" lon="17.5143566">
<ele>190</ele>
<time>2017-09-29T15:09:12Z</time>
</trkpt>
<trkpt lat="53.6839415" lon="17.5120981">
<ele>190</ele>
<time>2017-09-29T15:09:18Z</time>
</trkpt>
<trkpt lat="53.6840541" lon="17.5098239">
<ele>191</ele>
<time>2017-09-29T15:09:24Z</time>
</trkpt>
<trkpt lat="53.6841777" lon="17.5075509">
<ele>192</ele>
<time>2017-09-29T15:09:30Z</time>
</trkpt>
<trkpt lat="53.6842879" lon="17.5052563">
<ele>192</ele>
<time>2017-09-29T15:09:36Z</time>
</trkpt>
<trkpt lat="53.6843919" lon="17.5029364">
<ele>191</ele>
<time>2017-09-29T15:09:42Z</time>
</trkpt>
<trkpt lat="53.6844976" lon="17.5006696">
<ele>190</ele>
<time>2017-09-29T15:09:48Z</time>
</trkpt>
<trkpt lat="53.6846142" lon="17.4984135">
<ele>189</ele>
<time>2017-09-29T15:09:54Z</time>
</trkpt>
<trkpt lat="53.6847246" lon="17.4962092">
<ele>190</ele>
<time>2017-09-29T15:10:00Z</time>
</trkpt>
<trkpt lat="53.6848721" lon="17.4940605">
<ele>192</ele>
<time>2017-09-29T15:10:06Z</time>
</trkpt>
<trkpt lat="53.6850888" lon="17.4919104">
<ele>193</ele>
<time>2017-09-29T15:10:12Z</time>
</trkpt>
<trkpt lat="53.6853693" lon="17.4897245">
<ele>195</ele>
<time>2017-09-29T15:10:18Z</time>
</trkpt>
<trkpt lat="53.6857189" lon="17.4875359">
<ele>197</ele>
<time>2017-09-29T15:10:24Z</time>
</trkpt>
<trkpt lat="53.6861446" lon="17.4854011">
<ele>197</ele>
<time>2017-09-29T15:10:30Z</time>
</trkpt>
<trkpt lat="53.6866381" lon="17.4832900">
<ele>198</ele>
<time>2017-09-29T15:10:36Z</time>
</trkpt>
<trkpt lat="53.6871961" lon="17.4811950">
<ele>199</ele>
<time>2017-09-29T15:10:42Z</time>
</trkpt>
<trkpt lat="53.6877309" lon="17.4792392">
<ele>200</ele>
<time>2017-09-29T15:10:48Z</time>
</trkpt>
<trkpt lat="53.6881823" lon="17.4774114">
<ele>201</ele>
<time>2017-09-29T15:10:54Z</time>
</trkpt>
<trkpt lat="53.6884832" lon="17.4757455">
<ele>203</ele>
<time>2017-09-29T15:11:00Z</time>
</trkpt>
<trkpt lat="53.6886670" lon="17.4743914">
<ele>202</ele>
<time>2017-09-29T15:11:06Z</time>
</trkpt>
<trkpt lat="53.6887827" lon="17.4730972">
<ele>202</ele>
<time>2017-09-29T15:11:12Z</time>
</trkpt>
<trkpt lat="53.6888687" lon="17.4715687">
<ele>202</ele>
<time>2017-09-29T15:11:18Z</time>
</trkpt>
<trkpt lat="53.6888844" lon="17.4697728">
<ele>201</ele>
<time>2017-09-29T15:11:24Z</time>
</trkpt>
<trkpt lat="53.6887798" lon="17.4679670">
<ele>201</ele>
<time>2017-09-29T15:11:30Z</time>
</trkpt>
<trkpt lat="53.6886135" lon="17.4660384">
<ele>201</ele>
<time>2017-09-29T15:11:36Z</time>
</trkpt>
<trkpt lat="53.6884022" lon="17.4640185">
<ele>201</ele>
<time>2017-09-29T15:11:42Z</time>
</trkpt>
<trkpt lat="53.6881994" lon="17.4619522">
<ele>201</ele>
<time>2017-09-29T15:11:48Z</time>
</trkpt>
<trkpt lat="53.6879915" lon="17.4598678">
<ele>199</ele>
<time>2017-09-29T15:11:54Z</time>
</trkpt>
<trkpt lat="53.6877827" lon="17.4577632">
<ele>200</ele>
<time>2017-09-29T15:12:00Z</time>
</trkpt>
<trkpt lat="53.6875710" lon="17.4556769">
<ele>202</ele>
<time>2017-09-29T15:12:06Z</time>
</trkpt>
<trkpt lat="53.6873514" lon="17.4535631">
<ele>197</ele>
<time>2017-09-29T15:12:12Z</time>
</trkpt>
<trkpt lat="53.6871447" lon="17.4514323">
<ele>198</ele>
<time>2017-09-29T15:12:18Z</time>
</trkpt>
<trkpt lat="53.6869464" lon="17.4493991">
<ele>200</ele>
<time>2017-09-29T15:12:24Z</time>
</trkpt>
<trkpt lat="53.6867399" lon="17.4473799">
<ele>196</ele>
<time>2017-09-29T15:12:30Z</time>
</trkpt>
<trkpt lat="53.6865346" lon="17.4453526">
<ele>196</ele>
<time>2017-09-29T15:12:36Z</time>
</trkpt>
<trkpt lat="53.6863309" lon="17.4433532">
<ele>196</ele>
<time>2017-09-29T15:12:42Z</time>
</trkpt>
<trkpt lat="53.6861332" lon="17.4413455">
<ele>195</ele>
<time>2017-09-29T15:12:48Z</time>
</trkpt>
<trkpt lat="53.6859376" lon="17.4393285">
<ele>191</ele>
<time>2017-09-29T15:12:54Z</time>
</trkpt>
<trkpt lat="53.6857409" lon="17.4372926">
<ele>188</ele>
<time>2017-09-29T15:13:00Z</time>
</trkpt>
<trkpt lat="53.6855460" lon="17.4353657">
<ele>187</ele>
<time>2017-09-29T15:13:06Z</time>
</trkpt>
<trkpt lat="53.6853575" lon="17.4335271">
<ele>187</ele>
<time>2017-09-29T15:13:12Z</time>
</trkpt>
<trkpt lat="53.6852091" lon="17.4318836">
<ele>186</ele>
<time>2017-09-29T15:13:18Z</time>
</trkpt>
<trkpt lat="53.6850916" lon="17.4306707">
<ele>187</ele>
<time>2017-09-29T15:13:24Z</time>
</trkpt>
<trkpt lat="53.6849694" lon="17.4295233">
<ele>187</ele>
<time>2017-09-29T15:13:30Z</time>
</trkpt>
<trkpt lat="53.6848622" lon="17.4283745">
<ele>188</ele>
<time>2017-09-29T15:13:36Z</time>
</trkpt>
<trkpt lat="53.6847509" lon="17.4271706">
<ele>188</ele>
<time>2017-09-29T15:13:42Z</time>
</trkpt>
<trkpt lat="53.6846202" lon="17.4258289">
<ele>188</ele>
<time>2017-09-29T15:13:48Z</time>
</trkpt>
<trkpt lat="53.6844209" lon="17.4244831">
<ele>189</ele>
<time>2017-09-29T15:13:54Z</time>
</trkpt>
<trkpt lat="53.6841427" lon="17.4230911">
<ele>188</ele>
<time>2017-09-29T15:14:00Z</time>
</trkpt>
<trkpt lat="53.6838310" lon="17.4215739">
<ele>189</ele>
<time>2017-09-29T15:14:06Z</time>
</trkpt>
<trkpt lat="53.6834927" lon="17.4199174">
<ele>188</ele>
<time>2017-09-29T15:14:12Z</time>
</trkpt>
<trkpt lat="53.6831385" lon="17.4181957">
<ele>189</ele>
<time>2017-09-29T15:14:18Z</time>
</trkpt>
<trkpt lat="53.6827561" lon="17.4163500">
<ele>188</ele>
<time>2017-09-29T15:14:24Z</time>
</trkpt>
<trkpt lat="53.6823545" lon="17.4144239">
<ele>186</ele>
<time>2017-09-29T15:14:30Z</time>
</trkpt>
<trkpt lat="53.6819450" lon="17.4124242">
<ele>181</ele>
<time>2017-09-29T15:14:36Z</time>
</trkpt>
<trkpt lat="53.6815556" lon="17.4103927">
<ele>180</ele>
<time>2017-09-29T15:14:42Z</time>
</trkpt>
<trkpt lat="53.6811705" lon="17.4083976">
<ele>178</ele>
<time>2017-09-29T15:14:48Z</time>
</trkpt>
<trkpt lat="53.6807805" lon="17.4064545">
<ele>178</ele>
<time>2017-09-29T15:14:54Z</time>
</trkpt>
<trkpt lat="53.6804305" lon="17.4047212">
<ele>178</ele>
<time>2017-09-29T15:15:00Z</time>
</trkpt>
<trkpt lat="53.6801239" lon="17.4031366">
<ele>177</ele>
<time>2017-09-29T15:15:06Z</time>
</trkpt>
<trkpt lat="53.6798300" lon="17.4016196">
<ele>176</ele>
<time>2017-09-29T15:15:12Z</time>
</trkpt>
<trkpt lat="53.6795147" lon="17.4000527">
<ele>173</ele>
<time>2017-09-29T15:15:18Z</time>
</trkpt>
<trkpt lat="53.6791958" lon="17.3985393">
<ele>172</ele>
<time>2017-09-29T15:15:24Z</time>
</trkpt>
<trkpt lat="53.6788663" lon="17.3970160">
<ele>171</ele>
<time>2017-09-29T15:15:30Z</time>
</trkpt>
<trkpt lat="53.6785330" lon="17.3953843">
<ele>170</ele>
<time>2017-09-29T15:15:36Z</time>
</trkpt>
<trkpt lat="53.6781752" lon="17.3936638">
<ele>169</ele>
<time>2017-09-29T15:15:42Z</time>
</trkpt>
<trkpt lat="53.6778179" lon="17.3919072">
<ele>172</ele>
<time>2017-09-29T15:15:48Z</time>
</trkpt>
<trkpt lat="53.6774724" lon="17.3902800">
<ele>175</ele>
<time>2017-09-29T15:15:54Z</time>
</trkpt>
<trkpt lat="53.6771634" lon="17.3888032">
<ele>177</ele>
<time>2017-09-29T15:16:00Z</time>
</trkpt>
<trkpt lat="53.6768517" lon="17.3872919">
<ele>177</ele>
<time>2017-09-29T15:16:06Z</time>
</trkpt>
<trkpt lat="53.6765375" lon="17.3857852">
<ele>179</ele>
<time>2017-09-29T15:16:12Z</time>
</trkpt>
<trkpt lat="53.6763299" lon="17.3847331">
<ele>182</ele>
<time>2017-09-29T15:16:18Z</time>
</trkpt>
<trkpt lat="53.6761409" lon="17.3837611">
<ele>186</ele>
<time>2017-09-29T15:16:24Z</time>
</trkpt>
<trkpt lat="53.6759239" lon="17.3827020">
<ele>186</ele>
<time>2017-09-29T15:16:30Z</time>
</trkpt>
<trkpt lat="53.6757321" lon="17.3816581">
<ele>187</ele>
<time>2017-09-29T15:16:36Z</time>
</trkpt>
<trkpt lat="53.6756436" lon="17.3811943">
<ele>187</ele>
<time>2017-09-29T15:16:42Z</time>
</trkpt>
<trkpt lat="53.6755836" lon="17.3808626">
<ele>189</ele>
<time>2017-09-29T15:16:48Z</time>
</trkpt>
<trkpt lat="53.6754304" lon="17.3800546">
<ele>191</ele>
<time>2017-09-29T15:16:54Z</time>
</trkpt>
<trkpt lat="53.6752188" lon="17.3789980">
<ele>191</ele>
<time>2017-09-29T15:17:00Z</time>
</trkpt>
<trkpt lat="53.6749512" lon="17.3777415">
<ele>191</ele>
<time>2017-09-29T15:17:06Z</time>
</trkpt>
<trkpt lat="53.6746765" lon="17.3763848">
<ele>191</ele>
<time>2017-09-29T15:17:12Z</time>
</trkpt>
<trkpt lat="53.6744039" lon="17.3751153">
<ele>189</ele>
<time>2017-09-29T15:17:18Z</time>
</trkpt>
<trkpt lat="53.6741441" lon="17.3737630">
<ele>188</ele>
<time>2017-09-29T15:17:24Z</time>
</trkpt>
<trkpt lat="53.6738796" lon="17.3724830">
<ele>188</ele>
<time>2017-09-29T15:17:30Z</time>
</trkpt>
<trkpt lat="53.6736487" lon="17.3713785">
<ele>187</ele>
<time>2017-09-29T15:17:36Z</time>
</trkpt>
<trkpt lat="53.6734518" lon="17.3703388">
<ele>186</ele>
<time>2017-09-29T15:17:42Z</time>
</trkpt>
<trkpt lat="53.6732882" lon="17.3694349">
<ele>186</ele>
<time>2017-09-29T15:17:48Z</time>
</trkpt>
<trkpt lat="53.6732090" lon="17.3687780">
<ele>184</ele>
<time>2017-09-29T15:17:54Z</time>
</trkpt>
<trkpt lat="53.6732087" lon="17.3685244">
<ele>186</ele>
<time>2017-09-29T15:18:00Z</time>
</trkpt>
<trkpt lat="53.6732622" lon="17.3681942">
<ele>186</ele>
<time>2017-09-29T15:18:06Z</time>
</trkpt>
<trkpt lat="53.6732084" lon="17.3677952">
<ele>189</ele>
<time>2017-09-29T15:18:12Z</time>
</trkpt>
<trkpt lat="53.6731868" lon="17.3672599">
<ele>188</ele>
<time>2017-09-29T15:18:18Z</time>
</trkpt>
<trkpt lat="53.6732392" lon="17.3664440">
<ele>189</ele>
<time>2017-09-29T15:18:24Z</time>
</trkpt>
<trkpt lat="53.6732871" lon="17.3652843">
<ele>190</ele>
<time>2017-09-29T15:18:30Z</time>
</trkpt>
<trkpt lat="53.6733329" lon="17.3640821">
<ele>191</ele>
<time>2017-09-29T15:18:36Z</time>
</trkpt>
<trkpt lat="53.6733730" lon="17.3628683">
<ele>192</ele>
<time>2017-09-29T15:18:42Z</time>
</trkpt>
<trkpt lat="53.6733361" lon="17.3616681">
<ele>193</ele>
<time>2017-09-29T15:18:48Z</time>
</trkpt>
<trkpt lat="53.6731692" lon="17.3605879">
<ele>193</ele>
<time>2017-09-29T15:18:54Z</time>
</trkpt>
<trkpt lat="53.6730612" lon="17.3600778">
<ele>193</ele>
<time>2017-09-29T15:19:00Z</time>
</trkpt>
<trkpt lat="53.6730813" lon="17.3601286">
<ele>194</ele>
<time>2017-09-29T15:19:06Z</time>
</trkpt>
<trkpt lat="53.6730813" lon="17.3601286">
<ele>194</ele>
<time>2017-09-29T15:19:12Z</time>
</trkpt>
<trkpt lat="53.6730251" lon="17.3599098">
<ele>195</ele>
<time>2017-09-29T15:19:18Z</time>
</trkpt>
<trkpt lat="53.6728407" lon="17.3593001">
<ele>195</ele>
<time>2017-09-29T15:19:24Z</time>
</trkpt>
<trkpt lat="53.6725360" lon="17.3584291">
<ele>194</ele>
<time>2017-09-29T15:19:30Z</time>
</trkpt>
<trkpt lat="53.6720844" lon="17.3574901">
<ele>195</ele>
<time>2017-09-29T15:19:36Z</time>
</trkpt>
<trkpt lat="53.6715568" lon="17.3564972">
<ele>195</ele>
<time>2017-09-29T15:19:42Z</time>
</trkpt>
<trkpt lat="53.6710309" lon="17.3554523">
<ele>196</ele>
<time>2017-09-29T15:19:48Z</time>
</trkpt>
<trkpt lat="53.6705284" lon="17.3545047">
<ele>199</ele>
<time>2017-09-29T15:19:54Z</time>
</trkpt>
<trkpt lat="53.6701678" lon="17.3534943">
<ele>199</ele>
<time>2017-09-29T15:20:00Z</time>
</trkpt>
<trkpt lat="53.6699912" lon="17.3528864">
<ele>200</ele>
<time>2017-09-29T15:20:06Z</time>
</trkpt>
<trkpt lat="53.6699603" lon="17.3526727">
<ele>199</ele>
<time>2017-09-29T15:20:12Z</time>
</trkpt>
<trkpt lat="53.6699219" lon="17.3522753">
<ele>199</ele>
<time>2017-09-29T15:20:18Z</time>
</trkpt>
<trkpt lat="53.6702375" lon="17.3517770">
<ele>200</ele>
<time>2017-09-29T15:20:24Z</time>
</trkpt>
<trkpt lat="53.6706379" lon="17.3512235">
<ele>200</ele>
<time>2017-09-29T15:20:30Z</time>
</trkpt>
<trkpt lat="53.6711503" lon="17.3504644">
<ele>202</ele>
<time>2017-09-29T15:20:36Z</time>
</trkpt>
<trkpt lat="53.6717039" lon="17.3495876">
<ele>201</ele>
<time>2017-09-29T15:20:42Z</time>
</trkpt>
<trkpt lat="53.6723478" lon="17.3486868">
<ele>200</ele>
<time>2017-09-29T15:20:48Z</time>
</trkpt>
<trkpt lat="53.6730596" lon="17.3477021">
<ele>199</ele>
<time>2017-09-29T15:20:54Z</time>
</trkpt>
<trkpt lat="53.6737695" lon="17.3467194">
<ele>199</ele>
<time>2017-09-29T15:21:00Z</time>
</trkpt>
<trkpt lat="53.6744452" lon="17.3457728">
<ele>199</ele>
<time>2017-09-29T15:21:06Z</time>
</trkpt>
<trkpt lat="53.6751557" lon="17.3448113">
<ele>195</ele>
<time>2017-09-29T15:21:12Z</time>
</trkpt>
<trkpt lat="53.6759241" lon="17.3437568">
<ele>193</ele>
<time>2017-09-29T15:21:18Z</time>
</trkpt>
<trkpt lat="53.6766596" lon="17.3427385">
<ele>191</ele>
<time>2017-09-29T15:21:24Z</time>
</trkpt>
<trkpt lat="53.6773935" lon="17.3417291">
<ele>190</ele>
<time>2017-09-29T15:21:30Z</time>
</trkpt>
<trkpt lat="53.6781379" lon="17.3406952">
<ele>190</ele>
<time>2017-09-29T15:21:36Z</time>
</trkpt>
<trkpt lat="53.6788793" lon="17.3396419">
<ele>190</ele>
<time>2017-09-29T15:21:42Z</time>
</trkpt>
<trkpt lat="53.6796396" lon="17.3385975">
<ele>187</ele>
<time>2017-09-29T15:21:48Z</time>
</trkpt>
<trkpt lat="53.6804147" lon="17.3375277">
<ele>185</ele>
<time>2017-09-29T15:21:54Z</time>
</trkpt>
<trkpt lat="53.6811904" lon="17.3364621">
<ele>185</ele>
<time>2017-09-29T15:22:00Z</time>
</trkpt>
<trkpt lat="53.6819500" lon="17.3354075">
<ele>183</ele>
<time>2017-09-29T15:22:06Z</time>
</trkpt>
<trkpt lat="53.6827119" lon="17.3343709">
<ele>183</ele>
<time>2017-09-29T15:22:12Z</time>
</trkpt>
<trkpt lat="53.6834724" lon="17.3332958">
<ele>183</ele>
<time>2017-09-29T15:22:18Z</time>
</trkpt>
<trkpt lat="53.6841986" lon="17.3321303">
<ele>184</ele>
<time>2017-09-29T15:22:24Z</time>
</trkpt>
<trkpt lat="53.6848333" lon="17.3308218">
<ele>182</ele>
<time>2017-09-29T15:22:30Z</time>
</trkpt>
<trkpt lat="53.6854975" lon="17.3295209">
<ele>182</ele>
<time>2017-09-29T15:22:36Z</time>
</trkpt>
<trkpt lat="53.6861772" lon="17.3282145">
<ele>182</ele>
<time>2017-09-29T15:22:42Z</time>
</trkpt>
<trkpt lat="53.6866502" lon="17.3267020">
<ele>182</ele>
<time>2017-09-29T15:22:48Z</time>
</trkpt>
<trkpt lat="53.6866674" lon="17.3250714">
<ele>182</ele>
<time>2017-09-29T15:22:54Z</time>
</trkpt>
<trkpt lat="53.6868313" lon="17.3236333">
<ele>182</ele>
<time>2017-09-29T15:23:00Z</time>
</trkpt>
<trkpt lat="53.6871638" lon="17.3221846">
<ele>183</ele>
<time>2017-09-29T15:23:06Z</time>
</trkpt>
<trkpt lat="53.6875108" lon="17.3206027">
<ele>185</ele>
<time>2017-09-29T15:23:12Z</time>
</trkpt>
<trkpt lat="53.6878877" lon="17.3189593">
<ele>187</ele>
<time>2017-09-29T15:23:18Z</time>
</trkpt>
<trkpt lat="53.6882750" lon="17.3172675">
<ele>189</ele>
<time>2017-09-29T15:23:24Z</time>
</trkpt>
<trkpt lat="53.6886455" lon="17.3155839">
<ele>189</ele>
<time>2017-09-29T15:23:30Z</time>
</trkpt>
<trkpt lat="53.6890239" lon="17.3138868">
<ele>190</ele>
<time>2017-09-29T15:23:36Z</time>
</trkpt>
<trkpt lat="53.6894069" lon="17.3121853">
<ele>191</ele>
<time>2017-09-29T15:23:42Z</time>
</trkpt>
<trkpt lat="53.6897814" lon="17.3105474">
<ele>190</ele>
<time>2017-09-29T15:23:48Z</time>
</trkpt>
<trkpt lat="53.6901185" lon="17.3089866">
<ele>190</ele>
<time>2017-09-29T15:23:54Z</time>
</trkpt>
<trkpt lat="53.6904346" lon="17.3075478">
<ele>191</ele>
<time>2017-09-29T15:24:00Z</time>
</trkpt>
<trkpt lat="53.6907448" lon="17.3061806">
<ele>191</ele>
<time>2017-09-29T15:24:06Z</time>
</trkpt>
<trkpt lat="53.6910543" lon="17.3047880">
<ele>191</ele>
<time>2017-09-29T15:24:12Z</time>
</trkpt>
<trkpt lat="53.6914256" lon="17.3032759">
<ele>190</ele>
<time>2017-09-29T15:24:18Z</time>
</trkpt>
<trkpt lat="53.6921583" lon="17.3020002">
<ele>190</ele>
<time>2017-09-29T15:24:24Z</time>
</trkpt>
<trkpt lat="53.6929462" lon="17.3006966">
<ele>190</ele>
<time>2017-09-29T15:24:30Z</time>
</trkpt>
<trkpt lat="53.6937584" lon="17.2993110">
<ele>189</ele>
<time>2017-09-29T15:24:36Z</time>
</trkpt>
<trkpt lat="53.6945931" lon="17.2978849">
<ele>188</ele>
<time>2017-09-29T15:24:42Z</time>
</trkpt>
<trkpt lat="53.6954433" lon="17.2964443">
<ele>187</ele>
<time>2017-09-29T15:24:48Z</time>
</trkpt>
<trkpt lat="53.6962638" lon="17.2949504">
<ele>182</ele>
<time>2017-09-29T15:24:54Z</time>
</trkpt>
<trkpt lat="53.6970949" lon="17.2935678">
<ele>181</ele>
<time>2017-09-29T15:25:00Z</time>
</trkpt>
<trkpt lat="53.6978687" lon="17.2922263">
<ele>181</ele>
<time>2017-09-29T15:25:06Z</time>
</trkpt>
<trkpt lat="53.6985070" lon="17.2909805">
<ele>184</ele>
<time>2017-09-29T15:25:12Z</time>
</trkpt>
<trkpt lat="53.6988393" lon="17.2896256">
<ele>186</ele>
<time>2017-09-29T15:25:18Z</time>
</trkpt>
<trkpt lat="53.6992240" lon="17.2880919">
<ele>187</ele>
<time>2017-09-29T15:25:24Z</time>
</trkpt>
<trkpt lat="53.6996299" lon="17.2865246">
<ele>187</ele>
<time>2017-09-29T15:25:30Z</time>
</trkpt>
<trkpt lat="53.7000463" lon="17.2849192">
<ele>188</ele>
<time>2017-09-29T15:25:36Z</time>
</trkpt>
<trkpt lat="53.7004706" lon="17.2832422">
<ele>188</ele>
<time>2017-09-29T15:25:42Z</time>
</trkpt>
<trkpt lat="53.7008911" lon="17.2814895">
<ele>188</ele>
<time>2017-09-29T15:25:48Z</time>
</trkpt>
<trkpt lat="53.7013187" lon="17.2797301">
<ele>189</ele>
<time>2017-09-29T15:25:54Z</time>
</trkpt>
<trkpt lat="53.7017242" lon="17.2779760">
<ele>190</ele>
<time>2017-09-29T15:26:00Z</time>
</trkpt>
<trkpt lat="53.7021767" lon="17.2761664">
<ele>190</ele>
<time>2017-09-29T15:26:06Z</time>
</trkpt>
<trkpt lat="53.7025873" lon="17.2743624">
<ele>190</ele>
<time>2017-09-29T15:26:12Z</time>
</trkpt>
<trkpt lat="53.7028077" lon="17.2724543">
<ele>191</ele>
<time>2017-09-29T15:26:18Z</time>
</trkpt>
<trkpt lat="53.7031808" lon="17.2707344">
<ele>192</ele>
<time>2017-09-29T15:26:24Z</time>
</trkpt>
<trkpt lat="53.7038812" lon="17.2694431">
<ele>188</ele>
<time>2017-09-29T15:26:30Z</time>
</trkpt>
<trkpt lat="53.7045884" lon="17.2680590">
<ele>190</ele>
<time>2017-09-29T15:26:36Z</time>
</trkpt>
<trkpt lat="53.7053254" lon="17.2665705">
<ele>192</ele>
<time>2017-09-29T15:26:42Z</time>
</trkpt>
<trkpt lat="53.7060914" lon="17.2650516">
<ele>194</ele>
<time>2017-09-29T15:26:48Z</time>
</trkpt>
<trkpt lat="53.7068695" lon="17.2635231">
<ele>195</ele>
<time>2017-09-29T15:26:54Z</time>
</trkpt>
<trkpt lat="53.7075976" lon="17.2621153">
<ele>196</ele>
<time>2017-09-29T15:27:00Z</time>
</trkpt>
<trkpt lat="53.7081970" lon="17.2609487">
<ele>196</ele>
<time>2017-09-29T15:27:06Z</time>
</trkpt>
<trkpt lat="53.7087028" lon="17.2599440">
<ele>196</ele>
<time>2017-09-29T15:27:12Z</time>
</trkpt>
<trkpt lat="53.7091965" lon="17.2590058">
<ele>195</ele>
<time>2017-09-29T15:27:18Z</time>
</trkpt>
<trkpt lat="53.7097260" lon="17.2579663">
<ele>194</ele>
<time>2017-09-29T15:27:24Z</time>
</trkpt>
<trkpt lat="53.7103119" lon="17.2568158">
<ele>194</ele>
<time>2017-09-29T15:27:30Z</time>
</trkpt>
<trkpt lat="53.7109396" lon="17.2555747">
<ele>194</ele>
<time>2017-09-29T15:27:36Z</time>
</trkpt>
<trkpt lat="53.7115811" lon="17.2542644">
<ele>195</ele>
<time>2017-09-29T15:27:42Z</time>
</trkpt>
<trkpt lat="53.7122589" lon="17.2529102">
<ele>197</ele>
<time>2017-09-29T15:27:48Z</time>
</trkpt>
<trkpt lat="53.7129576" lon="17.2515362">
<ele>198</ele>
<time>2017-09-29T15:27:54Z</time>
</trkpt>
<trkpt lat="53.7137204" lon="17.2502453">
<ele>197</ele>
<time>2017-09-29T15:28:00Z</time>
</trkpt>
<trkpt lat="53.7147539" lon="17.2495053">
<ele>197</ele>
<time>2017-09-29T15:28:06Z</time>
</trkpt>
<trkpt lat="53.7158570" lon="17.2488014">
<ele>196</ele>
<time>2017-09-29T15:28:12Z</time>
</trkpt>
<trkpt lat="53.7170173" lon="17.2480661">
<ele>195</ele>
<time>2017-09-29T15:28:18Z</time>
</trkpt>
<trkpt lat="53.7181942" lon="17.2472908">
<ele>194</ele>
<time>2017-09-29T15:28:24Z</time>
</trkpt>
<trkpt lat="53.7193201" lon="17.2465269">
<ele>193</ele>
<time>2017-09-29T15:28:30Z</time>
</trkpt>
<trkpt lat="53.7201279" lon="17.2452027">
<ele>191</ele>
<time>2017-09-29T15:28:36Z</time>
</trkpt>
<trkpt lat="53.7209838" lon="17.2438031">
<ele>190</ele>
<time>2017-09-29T15:28:42Z</time>
</trkpt>
<trkpt lat="53.7218360" lon="17.2423631">
<ele>189</ele>
<time>2017-09-29T15:28:48Z</time>
</trkpt>
<trkpt lat="53.7226135" lon="17.2407889">
<ele>188</ele>
<time>2017-09-29T15:28:54Z</time>
</trkpt>
<trkpt lat="53.7233698" lon="17.2392218">
<ele>185</ele>
<time>2017-09-29T15:29:00Z</time>
</trkpt>
<trkpt lat="53.7242021" lon="17.2377634">
<ele>186</ele>
<time>2017-09-29T15:29:06Z</time>
</trkpt>
<trkpt lat="53.7251704" lon="17.2365158">
<ele>187</ele>
<time>2017-09-29T15:29:12Z</time>
</trkpt>
<trkpt lat="53.7260317" lon="17.2350411">
<ele>188</ele>
<time>2017-09-29T15:29:18Z</time>
</trkpt>
<trkpt lat="53.7267448" lon="17.2332483">
<ele>188</ele>
<time>2017-09-29T15:29:24Z</time>
</trkpt>
<trkpt lat="53.7274858" lon="17.2314883">
<ele>187</ele>
<time>2017-09-29T15:29:30Z</time>
</trkpt>
<trkpt lat="53.7282506" lon="17.2297327">
<ele>187</ele>
<time>2017-09-29T15:29:36Z</time>
</trkpt>
<trkpt lat="53.7290105" lon="17.2279988">
<ele>186</ele>
<time>2017-09-29T15:29:42Z</time>
</trkpt>
<trkpt lat="53.7296938" lon="17.2264143">
<ele>184</ele>
<time>2017-09-29T15:29:48Z</time>
</trkpt>
<trkpt lat="53.7298995" lon="17.2247686">
<ele>181</ele>
<time>2017-09-29T15:29:54Z</time>
</trkpt>
<trkpt lat="53.7300818" lon="17.2229987">
<ele>177</ele>
<time>2017-09-29T15:30:00Z</time>
</trkpt>
<trkpt lat="53.7302972" lon="17.2212385">
<ele>173</ele>
<time>2017-09-29T15:30:06Z</time>
</trkpt>
<trkpt lat="53.7307090" lon="17.2197891">
<ele>169</ele>
<time>2017-09-29T15:30:12Z</time>
</trkpt>
<trkpt lat="53.7312391" lon="17.2186107">
<ele>166</ele>
<time>2017-09-29T15:30:18Z</time>
</trkpt>
<trkpt lat="53.7317275" lon="17.2174107">
<ele>167</ele>
<time>2017-09-29T15:30:24Z</time>
</trkpt>
<trkpt lat="53.7321942" lon="17.2163025">
<ele>165</ele>
<time>2017-09-29T15:30:30Z</time>
</trkpt>
<trkpt lat="53.7324654" lon="17.2151881">
<ele>163</ele>
<time>2017-09-29T15:30:36Z</time>
</trkpt>
<trkpt lat="53.7322828" lon="17.2138038">
<ele>156</ele>
<time>2017-09-29T15:30:42Z</time>
</trkpt>
<trkpt lat="53.7321374" lon="17.2124170">
<ele>155</ele>
<time>2017-09-29T15:30:48Z</time>
</trkpt>
<trkpt lat="53.7320064" lon="17.2110322">
<ele>156</ele>
<time>2017-09-29T15:30:54Z</time>
</trkpt>
<trkpt lat="53.7318732" lon="17.2097158">
<ele>155</ele>
<time>2017-09-29T15:31:00Z</time>
</trkpt>
<trkpt lat="53.7317288" lon="17.2084324">
<ele>156</ele>
<time>2017-09-29T15:31:06Z</time>
</trkpt>
<trkpt lat="53.7316229" lon="17.2072146">
<ele>159</ele>
<time>2017-09-29T15:31:12Z</time>
</trkpt>
<trkpt lat="53.7318239" lon="17.2061164">
<ele>162</ele>
<time>2017-09-29T15:31:18Z</time>
</trkpt>
<trkpt lat="53.7321914" lon="17.2050470">
<ele>170</ele>
<time>2017-09-29T15:31:24Z</time>
</trkpt>
<trkpt lat="53.7325415" lon="17.2038468">
<ele>173</ele>
<time>2017-09-29T15:31:30Z</time>
</trkpt>
<trkpt lat="53.7328821" lon="17.2025921">
<ele>175</ele>
<time>2017-09-29T15:31:36Z</time>
</trkpt>
<trkpt lat="53.7332254" lon="17.2013874">
<ele>177</ele>
<time>2017-09-29T15:31:42Z</time>
</trkpt>
<trkpt lat="53.7335311" lon="17.2003366">
<ele>178</ele>
<time>2017-09-29T15:31:48Z</time>
</trkpt>
<trkpt lat="53.7337814" lon="17.1994727">
<ele>179</ele>
<time>2017-09-29T15:31:54Z</time>
</trkpt>
<trkpt lat="53.7340445" lon="17.1986758">
<ele>179</ele>
<time>2017-09-29T15:32:00Z</time>
</trkpt>
<trkpt lat="53.7343691" lon="17.1979054">
<ele>179</ele>
<time>2017-09-29T15:32:06Z</time>
</trkpt>
<trkpt lat="53.7346837" lon="17.1970275">
<ele>180</ele>
<time>2017-09-29T15:32:12Z</time>
</trkpt>
<trkpt lat="53.7348988" lon="17.1960018">
<ele>178</ele>
<time>2017-09-29T15:32:18Z</time>
</trkpt>
<trkpt lat="53.7353186" lon="17.1951787">
<ele>178</ele>
<time>2017-09-29T15:32:24Z</time>
</trkpt>
<trkpt lat="53.7356272" lon="17.1942906">
<ele>179</ele>
<time>2017-09-29T15:32:30Z</time>
</trkpt>
<trkpt lat="53.7360389" lon="17.1934048">
<ele>178</ele>
<time>2017-09-29T15:32:36Z</time>
</trkpt>
<trkpt lat="53.7365619" lon="17.1927093">
<ele>177</ele>
<time>2017-09-29T15:32:42Z</time>
</trkpt>
<trkpt lat="53.7372715" lon="17.1924465">
<ele>178</ele>
<time>2017-09-29T15:32:48Z</time>
</trkpt>
<trkpt lat="53.7379225" lon="17.1916384">
<ele>178</ele>
<time>2017-09-29T15:32:54Z</time>
</trkpt>
<trkpt lat="53.7383691" lon="17.1904490">
<ele>178</ele>
<time>2017-09-29T15:33:00Z</time>
</trkpt>
<trkpt lat="53.7387432" lon="17.1891589">
<ele>178</ele>
<time>2017-09-29T15:33:06Z</time>
</trkpt>
<trkpt lat="53.7392247" lon="17.1878725">
<ele>178</ele>
<time>2017-09-29T15:33:12Z</time>
</trkpt>
<trkpt lat="53.7397076" lon="17.1864147">
<ele>178</ele>
<time>2017-09-29T15:33:18Z</time>
</trkpt>
<trkpt lat="53.7402180" lon="17.1848065">
<ele>178</ele>
<time>2017-09-29T15:33:24Z</time>
</trkpt>
<trkpt lat="53.7407650" lon="17.1830835">
<ele>177</ele>
<time>2017-09-29T15:33:30Z</time>
</trkpt>
<trkpt lat="53.7413403" lon="17.1812759">
<ele>177</ele>
<time>2017-09-29T15:33:36Z</time>
</trkpt>
<trkpt lat="53.7419311" lon="17.1793862">
<ele>177</ele>
<time>2017-09-29T15:33:42Z</time>
</trkpt>
<trkpt lat="53.7426974" lon="17.1777136">
<ele>177</ele>
<time>2017-09-29T15:33:48Z</time>
</trkpt>
<trkpt lat="53.7436680" lon="17.1764253">
<ele>178</ele>
<time>2017-09-29T15:33:54Z</time>
</trkpt>
<trkpt lat="53.7446215" lon="17.1750615">
<ele>178</ele>
<time>2017-09-29T15:34:00Z</time>
</trkpt>
<trkpt lat="53.7456029" lon="17.1737309">
<ele>178</ele>
<time>2017-09-29T15:34:06Z</time>
</trkpt>
<trkpt lat="53.7465981" lon="17.1723756">
<ele>177</ele>
<time>2017-09-29T15:34:12Z</time>
</trkpt>
<trkpt lat="53.7472613" lon="17.1706653">
<ele>182</ele>
<time>2017-09-29T15:34:18Z</time>
</trkpt>
<trkpt lat="53.7476030" lon="17.1686672">
<ele>182</ele>
<time>2017-09-29T15:34:24Z</time>
</trkpt>
<trkpt lat="53.7480188" lon="17.1666585">
<ele>182</ele>
<time>2017-09-29T15:34:30Z</time>
</trkpt>
<trkpt lat="53.7484263" lon="17.1646191">
<ele>181</ele>
<time>2017-09-29T15:34:36Z</time>
</trkpt>
<trkpt lat="53.7488468" lon="17.1625883">
<ele>180</ele>
<time>2017-09-29T15:34:42Z</time>
</trkpt>
<trkpt lat="53.7492685" lon="17.1605710">
<ele>180</ele>
<time>2017-09-29T15:34:48Z</time>
</trkpt>
<trkpt lat="53.7496728" lon="17.1585503">
<ele>179</ele>
<time>2017-09-29T15:34:54Z</time>
</trkpt>
<trkpt lat="53.7499843" lon="17.1565201">
<ele>179</ele>
<time>2017-09-29T15:35:00Z</time>
</trkpt>
<trkpt lat="53.7502480" lon="17.1544286">
<ele>177</ele>
<time>2017-09-29T15:35:06Z</time>
</trkpt>
<trkpt lat="53.7505167" lon="17.1522766">
<ele>175</ele>
<time>2017-09-29T15:35:12Z</time>
</trkpt>
<trkpt lat="53.7507921" lon="17.1500843">
<ele>174</ele>
<time>2017-09-29T15:35:18Z</time>
</trkpt>
<trkpt lat="53.7510832" lon="17.1478721">
<ele>174</ele>
<time>2017-09-29T15:35:24Z</time>
</trkpt>
<trkpt lat="53.7513789" lon="17.1456859">
<ele>174</ele>
<time>2017-09-29T15:35:30Z</time>
</trkpt>
<trkpt lat="53.7517439" lon="17.1435315">
<ele>177</ele>
<time>2017-09-29T15:35:36Z</time>
</trkpt>
<trkpt lat="53.7521247" lon="17.1413542">
<ele>180</ele>
<time>2017-09-29T15:35:42Z</time>
</trkpt>
<trkpt lat="53.7525078" lon="17.1391255">
<ele>181</ele>
<time>2017-09-29T15:35:48Z</time>
</trkpt>
<trkpt lat="53.7528870" lon="17.1369081">
<ele>183</ele>
<time>2017-09-29T15:35:54Z</time>
</trkpt>
<trkpt lat="53.7532515" lon="17.1347041">
<ele>183</ele>
<time>2017-09-29T15:36:00Z</time>
</trkpt>
<trkpt lat="53.7536183" lon="17.1325328">
<ele>183</ele>
<time>2017-09-29T15:36:06Z</time>
</trkpt>
<trkpt lat="53.7539784" lon="17.1304727">
<ele>182</ele>
<time>2017-09-29T15:36:12Z</time>
</trkpt>
<trkpt lat="53.7543172" lon="17.1284755">
<ele>182</ele>
<time>2017-09-29T15:36:18Z</time>
</trkpt>
<trkpt lat="53.7546313" lon="17.1265710">
<ele>181</ele>
<time>2017-09-29T15:36:24Z</time>
</trkpt>
<trkpt lat="53.7549340" lon="17.1248232">
<ele>179</ele>
<time>2017-09-29T15:36:30Z</time>
</trkpt>
<trkpt lat="53.7552165" lon="17.1231578">
<ele>178</ele>
<time>2017-09-29T15:36:36Z</time>
</trkpt>
<trkpt lat="53.7554773" lon="17.1216604">
<ele>178</ele>
<time>2017-09-29T15:36:42Z</time>
</trkpt>
<trkpt lat="53.7556509" lon="17.1203187">
<ele>180</ele>
<time>2017-09-29T15:36:48Z</time>
</trkpt>
<trkpt lat="53.7554522" lon="17.1190849">
<ele>175</ele>
<time>2017-09-29T15:36:54Z</time>
</trkpt>
<trkpt lat="53.7552689" lon="17.1178075">
<ele>174</ele>
<time>2017-09-29T15:37:00Z</time>
</trkpt>
<trkpt lat="53.7551707" lon="17.1166281">
<ele>175</ele>
<time>2017-09-29T15:37:06Z</time>
</trkpt>
<trkpt lat="53.7554470" lon="17.1155583">
<ele>174</ele>
<time>2017-09-29T15:37:12Z</time>
</trkpt>
<trkpt lat="53.7558865" lon="17.1146019">
<ele>174</ele>
<time>2017-09-29T15:37:18Z</time>
</trkpt>
<trkpt lat="53.7563139" lon="17.1136772">
<ele>178</ele>
<time>2017-09-29T15:37:24Z</time>
</trkpt>
<trkpt lat="53.7565431" lon="17.1126321">
<ele>179</ele>
<time>2017-09-29T15:37:30Z</time>
</trkpt>
<trkpt lat="53.7567435" lon="17.1115132">
<ele>179</ele>
<time>2017-09-29T15:37:36Z</time>
</trkpt>
<trkpt lat="53.7569678" lon="17.1104500">
<ele>179</ele>
<time>2017-09-29T15:37:42Z</time>
</trkpt>
<trkpt lat="53.7572225" lon="17.1094637">
<ele>179</ele>
<time>2017-09-29T15:37:48Z</time>
</trkpt>
<trkpt lat="53.7574763" lon="17.1085516">
<ele>180</ele>
<time>2017-09-29T15:37:54Z</time>
</trkpt>
<trkpt lat="53.7576483" lon="17.1080171">
<ele>179</ele>
<time>2017-09-29T15:38:00Z</time>
</trkpt>
<trkpt lat="53.7578101" lon="17.1078723">
<ele>178</ele>
<time>2017-09-29T15:38:06Z</time>
</trkpt>
<trkpt lat="53.7580916" lon="17.1077311">
<ele>178</ele>
<time>2017-09-29T15:38:12Z</time>
</trkpt>
<trkpt lat="53.7583914" lon="17.1076895">
<ele>180</ele>
<time>2017-09-29T15:38:18Z</time>
</trkpt>
<trkpt lat="53.7587754" lon="17.1076057">
<ele>179</ele>
<time>2017-09-29T15:38:24Z</time>
</trkpt>
<trkpt lat="53.7592518" lon="17.1075750">
<ele>179</ele>
<time>2017-09-29T15:38:30Z</time>
</trkpt>
<trkpt lat="53.7597939" lon="17.1075727">
<ele>178</ele>
<time>2017-09-29T15:38:36Z</time>
</trkpt>
<trkpt lat="53.7604585" lon="17.1075850">
<ele>177</ele>
<time>2017-09-29T15:38:42Z</time>
</trkpt>
<trkpt lat="53.7612331" lon="17.1075457">
<ele>176</ele>
<time>2017-09-29T15:38:48Z</time>
</trkpt>
<trkpt lat="53.7619569" lon="17.1070272">
<ele>177</ele>
<time>2017-09-29T15:38:54Z</time>
</trkpt>
<trkpt lat="53.7625871" lon="17.1060539">
<ele>177</ele>
<time>2017-09-29T15:39:00Z</time>
</trkpt>
<trkpt lat="53.7632836" lon="17.1049570">
<ele>178</ele>
<time>2017-09-29T15:39:06Z</time>
</trkpt>
<trkpt lat="53.7640573" lon="17.1037697">
<ele>178</ele>
<time>2017-09-29T15:39:12Z</time>
</trkpt>
<trkpt lat="53.7648898" lon="17.1024926">
<ele>179</ele>
<time>2017-09-29T15:39:18Z</time>
</trkpt>
<trkpt lat="53.7657855" lon="17.1011073">
<ele>177</ele>
<time>2017-09-29T15:39:24Z</time>
</trkpt>
<trkpt lat="53.7667407" lon="17.0996310">
<ele>176</ele>
<time>2017-09-29T15:39:30Z</time>
</trkpt>
<trkpt lat="53.7677373" lon="17.0981074">
<ele>174</ele>
<time>2017-09-29T15:39:36Z</time>
</trkpt>
<trkpt lat="53.7687571" lon="17.0965440">
<ele>173</ele>
<time>2017-09-29T15:39:42Z</time>
</trkpt>
<trkpt lat="53.7697684" lon="17.0949643">
<ele>174</ele>
<time>2017-09-29T15:39:48Z</time>
</trkpt>
<trkpt lat="53.7707728" lon="17.0933773">
<ele>174</ele>
<time>2017-09-29T15:39:54Z</time>
</trkpt>
<trkpt lat="53.7717873" lon="17.0917591">
<ele>174</ele>
<time>2017-09-29T15:40:00Z</time>
</trkpt>
<trkpt lat="53.7727997" lon="17.0901391">
<ele>177</ele>
<time>2017-09-29T15:40:06Z</time>
</trkpt>
<trkpt lat="53.7738047" lon="17.0885262">
<ele>178</ele>
<time>2017-09-29T15:40:12Z</time>
</trkpt>
<trkpt lat="53.7748120" lon="17.0869401">
<ele>179</ele>
<time>2017-09-29T15:40:18Z</time>
</trkpt>
<trkpt lat="53.7758114" lon="17.0853202">
<ele>179</ele>
<time>2017-09-29T15:40:24Z</time>
</trkpt>
<trkpt lat="53.7768316" lon="17.0836937">
<ele>180</ele>
<time>2017-09-29T15:40:30Z</time>
</trkpt>
<trkpt lat="53.7778417" lon="17.0820803">
<ele>181</ele>
<time>2017-09-29T15:40:36Z</time>
</trkpt>
<trkpt lat="53.7788503" lon="17.0804921">
<ele>183</ele>
<time>2017-09-29T15:40:42Z</time>
</trkpt>
<trkpt lat="53.7798478" lon="17.0789126">
<ele>183</ele>
<time>2017-09-29T15:40:48Z</time>
</trkpt>
<trkpt lat="53.7807991" lon="17.0774003">
<ele>185</ele>
<time>2017-09-29T15:40:54Z</time>
</trkpt>
<trkpt lat="53.7817415" lon="17.0759099">
<ele>186</ele>
<time>2017-09-29T15:41:00Z</time>
</trkpt>
<trkpt lat="53.7826857" lon="17.0743883">
<ele>188</ele>
<time>2017-09-29T15:41:06Z</time>
</trkpt>
<trkpt lat="53.7836322" lon="17.0729054">
<ele>189</ele>
<time>2017-09-29T15:41:12Z</time>
</trkpt>
<trkpt lat="53.7845635" lon="17.0713985">
<ele>188</ele>
<time>2017-09-29T15:41:18Z</time>
</trkpt>
<trkpt lat="53.7855065" lon="17.0698813">
<ele>189</ele>
<time>2017-09-29T15:41:24Z</time>
</trkpt>
<trkpt lat="53.7864748" lon="17.0683465">
<ele>189</ele>
<time>2017-09-29T15:41:30Z</time>
</trkpt>
<trkpt lat="53.7874584" lon="17.0667920">
<ele>190</ele>
<time>2017-09-29T15:41:36Z</time>
</trkpt>
<trkpt lat="53.7884502" lon="17.0652123">
<ele>191</ele>
<time>2017-09-29T15:41:42Z</time>
</trkpt>
<trkpt lat="53.7894490" lon="17.0636219">
<ele>191</ele>
<time>2017-09-29T15:41:48Z</time>
</trkpt>
<trkpt lat="53.7904622" lon="17.0619988">
<ele>190</ele>
<time>2017-09-29T15:41:54Z</time>
</trkpt>
<trkpt lat="53.7914917" lon="17.0603914">
<ele>189</ele>
<time>2017-09-29T15:42:00Z</time>
</trkpt>
<trkpt lat="53.7924643" lon="17.0588133">
<ele>189</ele>
<time>2017-09-29T15:42:06Z</time>
</trkpt>
<trkpt lat="53.7932317" lon="17.0570076">
<ele>191</ele>
<time>2017-09-29T15:42:12Z</time>
</trkpt>
<trkpt lat="53.7938390" lon="17.0550334">
<ele>193</ele>
<time>2017-09-29T15:42:18Z</time>
</trkpt>
<trkpt lat="53.7944566" lon="17.0531003">
<ele>195</ele>
<time>2017-09-29T15:42:24Z</time>
</trkpt>
<trkpt lat="53.7950739" lon="17.0512086">
<ele>196</ele>
<time>2017-09-29T15:42:30Z</time>
</trkpt>
<trkpt lat="53.7956907" lon="17.0493054">
<ele>197</ele>
<time>2017-09-29T15:42:36Z</time>
</trkpt>
<trkpt lat="53.7963180" lon="17.0473778">
<ele>198</ele>
<time>2017-09-29T15:42:42Z</time>
</trkpt>
<trkpt lat="53.7969317" lon="17.0454201">
<ele>199</ele>
<time>2017-09-29T15:42:48Z</time>
</trkpt>
<trkpt lat="53.7975589" lon="17.0434921">
<ele>201</ele>
<time>2017-09-29T15:42:54Z</time>
</trkpt>
<trkpt lat="53.7981809" lon="17.0415351">
<ele>201</ele>
<time>2017-09-29T15:43:00Z</time>
</trkpt>
<trkpt lat="53.7987920" lon="17.0395946">
<ele>202</ele>
<time>2017-09-29T15:43:06Z</time>
</trkpt>
<trkpt lat="53.7993854" lon="17.0377273">
<ele>203</ele>
<time>2017-09-29T15:43:12Z</time>
</trkpt>
<trkpt lat="53.7999793" lon="17.0358702">
<ele>203</ele>
<time>2017-09-29T15:43:18Z</time>
</trkpt>
<trkpt lat="53.8005704" lon="17.0340267">
<ele>203</ele>
<time>2017-09-29T15:43:24Z</time>
</trkpt>
<trkpt lat="53.8011679" lon="17.0321850">
<ele>203</ele>
<time>2017-09-29T15:43:30Z</time>
</trkpt>
<trkpt lat="53.8017614" lon="17.0303205">
<ele>202</ele>
<time>2017-09-29T15:43:36Z</time>
</trkpt>
<trkpt lat="53.8023556" lon="17.0284558">
<ele>202</ele>
<time>2017-09-29T15:43:42Z</time>
</trkpt>
<trkpt lat="53.8028145" lon="17.0265689">
<ele>199</ele>
<time>2017-09-29T15:43:48Z</time>
</trkpt>
<trkpt lat="53.8030501" lon="17.0244684">
<ele>199</ele>
<time>2017-09-29T15:43:54Z</time>
</trkpt>
<trkpt lat="53.8033594" lon="17.0225701">
<ele>197</ele>
<time>2017-09-29T15:44:00Z</time>
</trkpt>
<trkpt lat="53.8036992" lon="17.0209141">
<ele>198</ele>
<time>2017-09-29T15:44:06Z</time>
</trkpt>
<trkpt lat="53.8040058" lon="17.0194134">
<ele>195</ele>
<time>2017-09-29T15:44:12Z</time>
</trkpt>
<trkpt lat="53.8042776" lon="17.0180601">
<ele>193</ele>
<time>2017-09-29T15:44:18Z</time>
</trkpt>
<trkpt lat="53.8045241" lon="17.0168587">
<ele>197</ele>
<time>2017-09-29T15:44:24Z</time>
</trkpt>
<trkpt lat="53.8047337" lon="17.0157779">
<ele>197</ele>
<time>2017-09-29T15:44:30Z</time>
</trkpt>
<trkpt lat="53.8048769" lon="17.0149622">
<ele>190</ele>
<time>2017-09-29T15:44:36Z</time>
</trkpt>
<trkpt lat="53.8050678" lon="17.0149344">
<ele>185</ele>
<time>2017-09-29T15:44:48Z</time>
</trkpt>
<trkpt lat="53.8051532" lon="17.0149667">
<ele>182</ele>
<time>2017-09-29T15:44:54Z</time>
</trkpt>
<trkpt lat="53.8053576" lon="17.0150756">
<ele>179</ele>
<time>2017-09-29T15:45:12Z</time>
</trkpt>
<trkpt lat="53.8054067" lon="17.0151086">
<ele>178</ele>
<time>2017-09-29T15:45:24Z</time>
</trkpt>
<trkpt lat="53.8054606" lon="17.0151210">
<ele>179</ele>
<time>2017-09-29T15:45:30Z</time>
</trkpt>
<trkpt lat="53.8054" lon="17.015">
<ele>177</ele>
<time>2017-09-29T15:45:48Z</time>
</trkpt>
<trkpt lat="53.8054" lon="17.015">
<ele>176</ele>
<time>2017-09-29T15:45:54Z</time>
</trkpt>
<trkpt lat="53.8053" lon="17.015">
<ele>175</ele>
<time>2017-09-29T15:46:00Z</time>
</trkpt>
<trkpt lat="53.8052" lon="17.015">
<ele>173</ele>
<time>2017-09-29T15:46:06Z</time>
</trkpt>
<trkpt lat="53.8051" lon="17.015">
<ele>173</ele>
<time>2017-09-29T15:46:12Z</time>
</trkpt>
<trkpt lat="53.8051" lon="17.015">
<ele>172</ele>
<time>2017-09-29T15:46:18Z</time>
</trkpt>
<trkpt lat="53.8051" lon="17.015">
<ele>172</ele>
<time>2017-09-29T15:46:24Z</time>
</trkpt>
<trkpt lat="53.8050628" lon="17.0150223">
<ele>172</ele>
<time>2017-09-29T15:46:30Z</time>
</trkpt>
<trkpt lat="53.8050628" lon="17.0150223">
<ele>172</ele>
<time>2017-09-29T15:46:36Z</time>
</trkpt>
<trkpt lat="53.8050628" lon="17.0150223">
<ele>172</ele>
<time>2017-09-29T15:46:42Z</time>
</trkpt>
<trkpt lat="53.8051" lon="17.015">
<ele>172</ele>
<time>2017-09-29T15:47:00Z</time>
</trkpt>
<trkpt lat="53.8051" lon="17.015">
<ele>172</ele>
<time>2017-09-29T15:47:06Z</time>
</trkpt>
<trkpt lat="53.8051" lon="17.015">
<ele>172</ele>
<time>2017-09-29T15:47:12Z</time>
</trkpt>
<trkpt lat="53.8050628" lon="17.0150223">
<ele>172</ele>
<time>2017-09-29T15:47:18Z</time>
</trkpt>
<trkpt lat="53.8050628" lon="17.0150223">
<ele>172</ele>
<time>2017-09-29T15:47:24Z</time>
</trkpt>
<trkpt lat="53.8050628" lon="17.0150223">
<ele>172</ele>
<time>2017-09-29T15:47:36Z</time>
</trkpt>
<trkpt lat="53.8050628" lon="17.0150223">
<ele>172</ele>
<time>2017-09-29T15:47:42Z</time>
</trkpt>
<trkpt lat="53.8050628" lon="17.0150223">
<ele>172</ele>
<time>2017-09-29T15:47:48Z</time>
</trkpt>
<trkpt lat="53.8050628" lon="17.0150223">
<ele>172</ele>
<time>2017-09-29T15:48:00Z</time>
</trkpt>
<trkpt lat="53.8050628" lon="17.0150223">
<ele>172</ele>
<time>2017-09-29T15:48:06Z</time>
</trkpt>
<trkpt lat="53.8050628" lon="17.0150223">
<ele>172</ele>
<time>2017-09-29T15:48:12Z</time>
</trkpt>
<trkpt lat="53.8050628" lon="17.0150223">
<ele>172</ele>
<time>2017-09-29T15:48:24Z</time>
</trkpt>
<trkpt lat="53.8050628" lon="17.0150223">
<ele>172</ele>
<time>2017-09-29T15:48:30Z</time>
</trkpt>
<trkpt lat="53.8050628" lon="17.0150223">
<ele>172</ele>
<time>2017-09-29T15:48:36Z</time>
</trkpt>
<trkpt lat="53.8050628" lon="17.0150223">
<ele>172</ele>
<time>2017-09-29T15:48:42Z</time>
</trkpt>
<trkpt lat="53.8050628" lon="17.0150223">
<ele>172</ele>
<time>2017-09-29T15:48:48Z</time>
</trkpt>
<trkpt lat="53.8050628" lon="17.0150223">
<ele>172</ele>
<time>2017-09-29T15:50:12Z</time>
</trkpt>
<trkpt lat="53.8050628" lon="17.0150223">
<ele>172</ele>
<time>2017-09-29T15:50:24Z</time>
</trkpt>
<trkpt lat="53.8050628" lon="17.0150223">
<ele>172</ele>
<time>2017-09-29T15:50:30Z</time>
</trkpt>
<trkpt lat="53.8050628" lon="17.0150223">
<ele>172</ele>
<time>2017-09-29T15:51:48Z</time>
</trkpt>
<trkpt lat="53.8050628" lon="17.0150223">
<ele>172</ele>
<time>2017-09-29T15:51:54Z</time>
</trkpt>
<trkpt lat="53.8050628" lon="17.0150223">
<ele>172</ele>
<time>2017-09-29T15:52:06Z</time>
</trkpt>
<trkpt lat="53.8050628" lon="17.0150223">
<ele>172</ele>
<time>2017-09-29T15:52:18Z</time>
</trkpt>
<trkpt lat="53.8050628" lon="17.0150223">
<ele>172</ele>
<time>2017-09-29T15:52:42Z</time>
</trkpt>
<trkpt lat="53.8050628" lon="17.0150223">
<ele>172</ele>
<time>2017-09-29T15:52:48Z</time>
</trkpt>
<trkpt lat="53.8050628" lon="17.0150223">
<ele>172</ele>
<time>2017-09-29T15:53:00Z</time>
</trkpt>
<trkpt lat="53.8050628" lon="17.0150223">
<ele>172</ele>
<time>2017-09-29T15:53:18Z</time>
</trkpt>
<trkpt lat="53.8050628" lon="17.0150223">
<ele>172</ele>
<time>2017-09-29T15:53:42Z</time>
</trkpt>
<trkpt lat="53.8050628" lon="17.0150223">
<ele>172</ele>
<time>2017-09-29T15:55:18Z</time>
</trkpt>
<trkpt lat="53.8050628" lon="17.0150223">
<ele>172</ele>
<time>2017-09-29T15:55:48Z</time>
</trkpt>
<trkpt lat="53.8050628" lon="17.0150223">
<ele>172</ele>
<time>2017-09-29T15:55:54Z</time>
</trkpt>
<trkpt lat="53.8050628" lon="17.0150223">
<ele>172</ele>
<time>2017-09-29T15:56:06Z</time>
</trkpt>
<trkpt lat="53.8050628" lon="17.0150223">
<ele>172</ele>
<time>2017-09-29T15:56:18Z</time>
</trkpt>
<trkpt lat="53.8050628" lon="17.0150223">
<ele>172</ele>
<time>2017-09-29T15:59:48Z</time>
</trkpt>
<trkpt lat="53.8051" lon="17.015">
<ele>172</ele>
<time>2017-09-29T16:00:24Z</time>
</trkpt>
<trkpt lat="53.8051" lon="17.015">
<ele>172</ele>
<time>2017-09-29T16:00:30Z</time>
</trkpt>
<trkpt lat="53.8051" lon="17.015">
<ele>172</ele>
<time>2017-09-29T16:00:36Z</time>
</trkpt>
<trkpt lat="53.8051" lon="17.015">
<ele>172</ele>
<time>2017-09-29T16:00:42Z</time>
</trkpt>
<trkpt lat="53.8051" lon="17.015">
<ele>172</ele>
<time>2017-09-29T16:00:48Z</time>
</trkpt>
<trkpt lat="53.8051" lon="17.015">
<ele>172</ele>
<time>2017-09-29T16:00:54Z</time>
</trkpt>
<trkpt lat="53.8051" lon="17.015">
<ele>172</ele>
<time>2017-09-29T16:01:00Z</time>
</trkpt>
<trkpt lat="53.8051" lon="17.015">
<ele>172</ele>
<time>2017-09-29T16:01:06Z</time>
</trkpt>
<trkpt lat="53.8051" lon="17.015">
<ele>172</ele>
<time>2017-09-29T16:01:12Z</time>
</trkpt>
<trkpt lat="53.8051" lon="17.015">
<ele>172</ele>
<time>2017-09-29T16:01:18Z</time>
</trkpt>
<trkpt lat="53.8051" lon="17.015">
<ele>172</ele>
<time>2017-09-29T16:01:24Z</time>
</trkpt>
<trkpt lat="53.8051" lon="17.015">
<ele>172</ele>
<time>2017-09-29T16:01:30Z</time>
</trkpt>
<trkpt lat="53.8051" lon="17.015">
<ele>172</ele>
<time>2017-09-29T16:01:36Z</time>
</trkpt>
<trkpt lat="53.8051" lon="17.015">
<ele>172</ele>
<time>2017-09-29T16:01:42Z</time>
</trkpt>
<trkpt lat="53.8051" lon="17.015">
<ele>172</ele>
<time>2017-09-29T16:01:48Z</time>
</trkpt>
<trkpt lat="53.8051" lon="17.015">
<ele>172</ele>
<time>2017-09-29T16:01:54Z</time>
</trkpt>
<trkpt lat="53.8051" lon="17.015">
<ele>172</ele>
<time>2017-09-29T16:02:00Z</time>
</trkpt>
<trkpt lat="53.8051" lon="17.015">
<ele>172</ele>
<time>2017-09-29T16:02:06Z</time>
</trkpt>
<trkpt lat="53.8050628" lon="17.0150223">
<ele>172</ele>
<time>2017-09-29T16:02:12Z</time>
</trkpt>
<trkpt lat="53.8050628" lon="17.0150223">
<ele>172</ele>
<time>2017-09-29T16:02:24Z</time>
</trkpt>
<trkpt lat="53.8050628" lon="17.0150223">
<ele>172</ele>
<time>2017-09-29T16:01:00Z</time>
</trkpt>
<trkpt lat="53.8050628" lon="17.0150223">
<ele>172</ele>
<time>2017-09-29T16:04:18Z</time>
</trkpt>
<trkpt lat="53.8050628" lon="17.0150223">
<ele>172</ele>
<time>2017-09-29T16:05:48Z</time>
</trkpt>
<trkpt lat="53.8050628" lon="17.0150223">
<ele>172</ele>
<time>2017-09-29T16:05:54Z</time>
</trkpt>
<trkpt lat="53.8050628" lon="17.0150223">
<ele>172</ele>
<time>2017-09-29T16:06:00Z</time>
</trkpt>
<trkpt lat="53.8050628" lon="17.0150223">
<ele>172</ele>
<time>2017-09-29T16:06:06Z</time>
</trkpt>
<trkpt lat="53.8050628" lon="17.0150223">
<ele>172</ele>
<time>2017-09-29T16:06:18Z</time>
</trkpt>
<trkpt lat="53.8050628" lon="17.0150223">
<ele>172</ele>
<time>2017-09-29T16:06:24Z</time>
</trkpt>
<trkpt lat="53.8050628" lon="17.0150223">
<ele>172</ele>
<time>2017-09-29T16:06:36Z</time>
</trkpt>
<trkpt lat="53.8050628" lon="17.0150223">
<ele>172</ele>
<time>2017-09-29T16:06:42Z</time>
</trkpt>
<trkpt lat="53.8050628" lon="17.0150223">
<ele>172</ele>
<time>2017-09-29T16:04:48Z</time>
</trkpt>
<trkpt lat="53.8050628" lon="17.0150223">
<ele>172</ele>
<time>2017-09-29T16:07:12Z</time>
</trkpt>
<trkpt lat="53.8051" lon="17.015">
<ele>172</ele>
<time>2017-09-29T16:07:42Z</time>
</trkpt>
<trkpt lat="53.8051" lon="17.015">
<ele>172</ele>
<time>2017-09-29T16:07:48Z</time>
</trkpt>
<trkpt lat="53.8051" lon="17.015">
<ele>172</ele>
<time>2017-09-29T16:07:54Z</time>
</trkpt>
<trkpt lat="53.8051" lon="17.015">
<ele>172</ele>
<time>2017-09-29T16:08:00Z</time>
</trkpt>
<trkpt lat="53.8051" lon="17.015">
<ele>172</ele>
<time>2017-09-29T16:08:06Z</time>
</trkpt>
<trkpt lat="53.8051" lon="17.015">
<ele>172</ele>
<time>2017-09-29T16:08:12Z</time>
</trkpt>
<trkpt lat="53.8051" lon="17.015">
<ele>172</ele>
<time>2017-09-29T16:08:18Z</time>
</trkpt>
<trkpt lat="53.8051" lon="17.015">
<ele>172</ele>
<time>2017-09-29T16:08:30Z</time>
</trkpt>
<trkpt lat="53.8051" lon="17.015">
<ele>172</ele>
<time>2017-09-29T16:08:36Z</time>
</trkpt>
<trkpt lat="53.8051" lon="17.015">
<ele>172</ele>
<time>2017-09-29T16:08:42Z</time>
</trkpt>
<trkpt lat="53.8051" lon="17.015">
<ele>172</ele>
<time>2017-09-29T16:08:48Z</time>
</trkpt>
<trkpt lat="53.8051" lon="17.015">
<ele>172</ele>
<time>2017-09-29T16:08:54Z</time>
</trkpt>
<trkpt lat="53.8051" lon="17.015">
<ele>172</ele>
<time>2017-09-29T16:09:00Z</time>
</trkpt>
<trkpt lat="53.8051" lon="17.015">
<ele>172</ele>
<time>2017-09-29T16:09:06Z</time>
</trkpt>
<trkpt lat="53.8051" lon="17.015">
<ele>172</ele>
<time>2017-09-29T16:09:12Z</time>
</trkpt>
<trkpt lat="53.8051" lon="17.015">
<ele>172</ele>
<time>2017-09-29T16:09:18Z</time>
</trkpt>
<trkpt lat="53.8051" lon="17.015">
<ele>172</ele>
<time>2017-09-29T16:09:24Z</time>
</trkpt>
<trkpt lat="53.8050628" lon="17.0150223">
<ele>172</ele>
<time>2017-09-29T16:09:36Z</time>
</trkpt>
<trkpt lat="53.8050628" lon="17.0150223">
<ele>172</ele>
<time>2017-09-29T16:09:42Z</time>
</trkpt>
<trkpt lat="53.8050628" lon="17.0150223">
<ele>172</ele>
<time>2017-09-29T16:09:54Z</time>
</trkpt>
<trkpt lat="53.8050628" lon="17.0150223">
<ele>172</ele>
<time>2017-09-29T16:10:00Z</time>
</trkpt>
<trkpt lat="53.8050628" lon="17.0150223">
<ele>172</ele>
<time>2017-09-29T16:10:12Z</time>
</trkpt>
<trkpt lat="53.8050628" lon="17.0150223">
<ele>172</ele>
<time>2017-09-29T16:10:18Z</time>
</trkpt>
<trkpt lat="53.8050628" lon="17.0150223">
<ele>172</ele>
<time>2017-09-29T16:11:18Z</time>
</trkpt>
<trkpt lat="53.8050628" lon="17.0150223">
<ele>172</ele>
<time>2017-09-29T16:11:24Z</time>
</trkpt>
<trkpt lat="53.8050628" lon="17.0150223">
<ele>172</ele>
<time>2017-09-29T16:11:30Z</time>
</trkpt>
<trkpt lat="53.8050628" lon="17.0150223">
<ele>172</ele>
<time>2017-09-29T16:11:36Z</time>
</trkpt>
<trkpt lat="53.8050628" lon="17.0150223">
<ele>172</ele>
<time>2017-09-29T16:11:42Z</time>
</trkpt>
<trkpt lat="53.8050628" lon="17.0150223">
<ele>172</ele>
<time>2017-09-29T16:11:48Z</time>
</trkpt>
<trkpt lat="53.8050628" lon="17.0150223">
<ele>172</ele>
<time>2017-09-29T16:11:54Z</time>
</trkpt>
<trkpt lat="53.8050628" lon="17.0150223">
<ele>172</ele>
<time>2017-09-29T16:12:00Z</time>
</trkpt>
<trkpt lat="53.8050628" lon="17.0150223">
<ele>172</ele>
<time>2017-09-29T16:13:24Z</time>
</trkpt>
<trkpt lat="53.8051" lon="17.015">
<ele>172</ele>
<time>2017-09-29T16:13:54Z</time>
</trkpt>
<trkpt lat="53.8051" lon="17.015">
<ele>172</ele>
<time>2017-09-29T16:14:00Z</time>
</trkpt>
<trkpt lat="53.8051" lon="17.015">
<ele>172</ele>
<time>2017-09-29T16:14:06Z</time>
</trkpt>
<trkpt lat="53.8051" lon="17.015">
<ele>172</ele>
<time>2017-09-29T16:14:12Z</time>
</trkpt>
<trkpt lat="53.8051" lon="17.015">
<ele>172</ele>
<time>2017-09-29T16:14:18Z</time>
</trkpt>
<trkpt lat="53.8051" lon="17.015">
<ele>172</ele>
<time>2017-09-29T16:14:24Z</time>
</trkpt>
<trkpt lat="53.8051" lon="17.015">
<ele>172</ele>
<time>2017-09-29T16:14:36Z</time>
</trkpt>
<trkpt lat="53.8051" lon="17.015">
<ele>172</ele>
<time>2017-09-29T16:14:42Z</time>
</trkpt>
<trkpt lat="53.8051" lon="17.015">
<ele>172</ele>
<time>2017-09-29T16:14:48Z</time>
</trkpt>
<trkpt lat="53.8051" lon="17.015">
<ele>172</ele>
<time>2017-09-29T16:14:54Z</time>
</trkpt>
<trkpt lat="53.8051" lon="17.015">
<ele>172</ele>
<time>2017-09-29T16:15:00Z</time>
</trkpt>
<trkpt lat="53.8051" lon="17.015">
<ele>172</ele>
<time>2017-09-29T16:15:06Z</time>
</trkpt>
<trkpt lat="53.8051" lon="17.015">
<ele>172</ele>
<time>2017-09-29T16:15:12Z</time>
</trkpt>
<trkpt lat="53.8051" lon="17.015">
<ele>172</ele>
<time>2017-09-29T16:15:18Z</time>
</trkpt>
<trkpt lat="53.8051" lon="17.015">
<ele>172</ele>
<time>2017-09-29T16:15:24Z</time>
</trkpt>
<trkpt lat="53.8051" lon="17.015">
<ele>172</ele>
<time>2017-09-29T16:15:30Z</time>
</trkpt>
<trkpt lat="53.8051" lon="17.015">
<ele>172</ele>
<time>2017-09-29T16:15:36Z</time>
</trkpt>
<trkpt lat="53.8051" lon="17.015">
<ele>172</ele>
<time>2017-09-29T16:15:42Z</time>
</trkpt>
<trkpt lat="53.8051" lon="17.015">
<ele>172</ele>
<time>2017-09-29T16:15:48Z</time>
</trkpt>
<trkpt lat="53.8051" lon="17.015">
<ele>172</ele>
<time>2017-09-29T16:15:54Z</time>
</trkpt>
<trkpt lat="53.8051" lon="17.015">
<ele>172</ele>
<time>2017-09-29T16:16:00Z</time>
</trkpt>
<trkpt lat="53.8051" lon="17.015">
<ele>172</ele>
<time>2017-09-29T16:16:12Z</time>
</trkpt>
<trkpt lat="53.8051" lon="17.015">
<ele>172</ele>
<time>2017-09-29T16:16:18Z</time>
</trkpt>
<trkpt lat="53.8050628" lon="17.0150223">
<ele>172</ele>
<time>2017-09-29T16:16:24Z</time>
</trkpt>
<trkpt lat="53.8050628" lon="17.0150223">
<ele>172</ele>
<time>2017-09-29T16:16:31Z</time>
</trkpt>
<trkpt lat="53.8051" lon="17.015">
<ele>172</ele>
<time>2017-09-29T16:17:01Z</time>
</trkpt>
<trkpt lat="53.8051" lon="17.015">
<ele>172</ele>
<time>2017-09-29T16:17:07Z</time>
</trkpt>
<trkpt lat="53.8051" lon="17.015">
<ele>172</ele>
<time>2017-09-29T16:17:13Z</time>
</trkpt>
<trkpt lat="53.8051" lon="17.015">
<ele>172</ele>
<time>2017-09-29T16:17:31Z</time>
</trkpt>
<trkpt lat="53.8051" lon="17.015">
<ele>172</ele>
<time>2017-09-29T16:17:37Z</time>
</trkpt>
<trkpt lat="53.8051" lon="17.015">
<ele>172</ele>
<time>2017-09-29T16:17:43Z</time>
</trkpt>
<trkpt lat="53.8050628" lon="17.0150223">
<ele>172</ele>
<time>2017-09-29T16:17:49Z</time>
</trkpt>
<trkpt lat="53.8050628" lon="17.0150223">
<ele>172</ele>
<time>2017-09-29T16:18:31Z</time>
</trkpt>
<trkpt lat="53.8050628" lon="17.0150223">
<ele>172</ele>
<time>2017-09-29T16:18:07Z</time>
</trkpt>
<trkpt lat="53.8050628" lon="17.0150223">
<ele>172</ele>
<time>2017-09-29T16:18:49Z</time>
</trkpt>
<trkpt lat="53.8051" lon="17.015">
<ele>172</ele>
<time>2017-09-29T16:21:07Z</time>
</trkpt>
<trkpt lat="53.8051" lon="17.015">
<ele>172</ele>
<time>2017-09-29T16:21:13Z</time>
</trkpt>
<trkpt lat="53.8051" lon="17.015">
<ele>172</ele>
<time>2017-09-29T16:21:19Z</time>
</trkpt>
<trkpt lat="53.8050628" lon="17.0150223">
<ele>172</ele>
<time>2017-09-29T16:21:37Z</time>
</trkpt>
<trkpt lat="53.8050628" lon="17.0150223">
<ele>172</ele>
<time>2017-09-29T16:21:43Z</time>
</trkpt>
<trkpt lat="53.8051" lon="17.015">
<ele>172</ele>
<time>2017-09-29T16:22:01Z</time>
</trkpt>
<trkpt lat="53.8051" lon="17.015">
<ele>172</ele>
<time>2017-09-29T16:22:07Z</time>
</trkpt>
<trkpt lat="53.8051" lon="17.015">
<ele>172</ele>
<time>2017-09-29T16:22:13Z</time>
</trkpt>
<trkpt lat="53.8051" lon="17.015">
<ele>172</ele>
<time>2017-09-29T16:22:19Z</time>
</trkpt>
<trkpt lat="53.8050628" lon="17.0150223">
<ele>172</ele>
<time>2017-09-29T16:22:25Z</time>
</trkpt>
<trkpt lat="53.8050628" lon="17.0150223">
<ele>172</ele>
<time>2017-09-29T16:22:31Z</time>
</trkpt>
<trkpt lat="53.8050628" lon="17.0150223">
<ele>172</ele>
<time>2017-09-29T16:22:37Z</time>
</trkpt>
<trkpt lat="53.8050628" lon="17.0150223">
<ele>172</ele>
<time>2017-09-29T16:23:11Z</time>
</trkpt>
<trkpt lat="53.8050628" lon="17.0150223">
<ele>172</ele>
<time>2017-09-29T16:23:17Z</time>
</trkpt>
<trkpt lat="53.8050628" lon="17.0150223">
<ele>172</ele>
<time>2017-09-29T16:23:23Z</time>
</trkpt>
<trkpt lat="53.8050628" lon="17.0150223">
<ele>172</ele>
<time>2017-09-29T16:23:29Z</time>
</trkpt>
<trkpt lat="53.8050628" lon="17.0150223">
<ele>172</ele>
<time>2017-09-29T16:23:35Z</time>
</trkpt>
<trkpt lat="53.8050628" lon="17.0150223">
<ele>172</ele>
<time>2017-09-29T16:23:53Z</time>
</trkpt>
<trkpt lat="53.8050628" lon="17.0150223">
<ele>172</ele>
<time>2017-09-29T16:26:05Z</time>
</trkpt>
<trkpt lat="53.8050628" lon="17.0150223">
<ele>172</ele>
<time>2017-09-29T16:28:23Z</time>
</trkpt>
<trkpt lat="53.8050628" lon="17.0150223">
<ele>172</ele>
<time>2017-09-29T16:28:29Z</time>
</trkpt>
<trkpt lat="53.8050628" lon="17.0150223">
<ele>172</ele>
<time>2017-09-29T16:28:41Z</time>
</trkpt>
<trkpt lat="53.8050628" lon="17.0150223">
<ele>172</ele>
<time>2017-09-29T16:29:28Z</time>
</trkpt>
<trkpt lat="53.8050628" lon="17.0150223">
<ele>172</ele>
<time>2017-09-29T16:31:34Z</time>
</trkpt>
<trkpt lat="53.8050628" lon="17.0150223">
<ele>172</ele>
<time>2017-09-29T16:31:40Z</time>
</trkpt>
<trkpt lat="53.8050628" lon="17.0150223">
<ele>172</ele>
<time>2017-09-29T16:32:46Z</time>
</trkpt>
<trkpt lat="53.8050628" lon="17.0150223">
<ele>172</ele>
<time>2017-09-29T16:34:52Z</time>
</trkpt>
<trkpt lat="53.8050628" lon="17.0150223">
<ele>172</ele>
<time>2017-09-29T16:35:04Z</time>
</trkpt>
<trkpt lat="53.8050628" lon="17.0150223">
<ele>172</ele>
<time>2017-09-29T16:36:52Z</time>
</trkpt>
<trkpt lat="53.8050628" lon="17.0150223">
<ele>172</ele>
<time>2017-09-29T16:36:58Z</time>
</trkpt>
<trkpt lat="53.8050628" lon="17.0150223">
<ele>172</ele>
<time>2017-09-29T16:35:58Z</time>
</trkpt>
<trkpt lat="53.8050628" lon="17.0150223">
<ele>172</ele>
<time>2017-09-29T16:37:04Z</time>
</trkpt>
<trkpt lat="53.8050628" lon="17.0150223">
<ele>172</ele>
<time>2017-09-29T16:37:10Z</time>
</trkpt>
<trkpt lat="53.8050628" lon="17.0150223">
<ele>172</ele>
<time>2017-09-29T16:37:46Z</time>
</trkpt>
<trkpt lat="53.8050628" lon="17.0150223">
<ele>172</ele>
<time>2017-09-29T16:37:52Z</time>
</trkpt>
<trkpt lat="53.8050651" lon="17.0150148">
<ele>172</ele>
<time>2017-09-29T16:38:22Z</time>
</trkpt>
<trkpt lat="53.8050651" lon="17.0150148">
<ele>172</ele>
<time>2017-09-29T16:38:28Z</time>
</trkpt>
<trkpt lat="53.8050651" lon="17.0150148">
<ele>172</ele>
<time>2017-09-29T16:38:40Z</time>
</trkpt>
<trkpt lat="53.8050651" lon="17.0150148">
<ele>172</ele>
<time>2017-09-29T16:38:46Z</time>
</trkpt>
<trkpt lat="53.8050651" lon="17.0150148">
<ele>172</ele>
<time>2017-09-29T16:38:52Z</time>
</trkpt>
<trkpt lat="53.8050651" lon="17.0150148">
<ele>172</ele>
<time>2017-09-29T16:38:58Z</time>
</trkpt>
<trkpt lat="53.8050288" lon="17.0149747">
<ele>172</ele>
<time>2017-09-29T16:39:04Z</time>
</trkpt>
<trkpt lat="53.8049297" lon="17.0146924">
<ele>172</ele>
<time>2017-09-29T16:39:16Z</time>
</trkpt>
<trkpt lat="53.8050126" lon="17.0141685">
<ele>175</ele>
<time>2017-09-29T16:39:22Z</time>
</trkpt>
<trkpt lat="53.8052048" lon="17.0133598">
<ele>172</ele>
<time>2017-09-29T16:39:28Z</time>
</trkpt>
<trkpt lat="53.8056725" lon="17.0109770">
<ele>169</ele>
<time>2017-09-29T16:39:40Z</time>
</trkpt>
<trkpt lat="53.8067" lon="17.0063">
<ele>171</ele>
<time>2017-09-29T16:39:58Z</time>
</trkpt>
<trkpt lat="53.8072" lon="17.0044">
<ele>172</ele>
<time>2017-09-29T16:40:04Z</time>
</trkpt>
<trkpt lat="53.8077" lon="17.0025">
<ele>174</ele>
<time>2017-09-29T16:40:10Z</time>
</trkpt>
<trkpt lat="53.8081911" lon="17.0006208">
<ele>174</ele>
<time>2017-09-29T16:40:16Z</time>
</trkpt>
<trkpt lat="53.8086766" lon="16.9987697">
<ele>176</ele>
<time>2017-09-29T16:40:22Z</time>
</trkpt>
<trkpt lat="53.8096926" lon="16.9948729">
<ele>178</ele>
<time>2017-09-29T16:40:34Z</time>
</trkpt>
<trkpt lat="53.8102276" lon="16.9928347">
<ele>178</ele>
<time>2017-09-29T16:40:40Z</time>
</trkpt>
<trkpt lat="53.8107836" lon="16.9907002">
<ele>178</ele>
<time>2017-09-29T16:40:46Z</time>
</trkpt>
<trkpt lat="53.8113507" lon="16.9885135">
<ele>179</ele>
<time>2017-09-29T16:40:52Z</time>
</trkpt>
<trkpt lat="53.8119208" lon="16.9863032">
<ele>179</ele>
<time>2017-09-29T16:40:58Z</time>
</trkpt>
<trkpt lat="53.8125050" lon="16.9840784">
<ele>180</ele>
<time>2017-09-29T16:41:04Z</time>
</trkpt>
<trkpt lat="53.8130940" lon="16.9818282">
<ele>180</ele>
<time>2017-09-29T16:41:10Z</time>
</trkpt>
<trkpt lat="53.8136864" lon="16.9795559">
<ele>181</ele>
<time>2017-09-29T16:41:16Z</time>
</trkpt>
<trkpt lat="53.8142765" lon="16.9772739">
<ele>182</ele>
<time>2017-09-29T16:41:22Z</time>
</trkpt>
<trkpt lat="53.8148585" lon="16.9750556">
<ele>182</ele>
<time>2017-09-29T16:41:28Z</time>
</trkpt>
<trkpt lat="53.8154354" lon="16.9728723">
<ele>183</ele>
<time>2017-09-29T16:41:34Z</time>
</trkpt>
<trkpt lat="53.8159961" lon="16.9706944">
<ele>183</ele>
<time>2017-09-29T16:41:40Z</time>
</trkpt>
<trkpt lat="53.8165593" lon="16.9685239">
<ele>184</ele>
<time>2017-09-29T16:41:46Z</time>
</trkpt>
<trkpt lat="53.8171256" lon="16.9663262">
<ele>184</ele>
<time>2017-09-29T16:41:52Z</time>
</trkpt>
<trkpt lat="53.8176964" lon="16.9641011">
<ele>184</ele>
<time>2017-09-29T16:41:58Z</time>
</trkpt>
<trkpt lat="53.8182491" lon="16.9619669">
<ele>185</ele>
<time>2017-09-29T16:42:04Z</time>
</trkpt>
<trkpt lat="53.8187836" lon="16.9598836">
<ele>185</ele>
<time>2017-09-29T16:42:10Z</time>
</trkpt>
<trkpt lat="53.8193112" lon="16.9578628">
<ele>184</ele>
<time>2017-09-29T16:42:16Z</time>
</trkpt>
<trkpt lat="53.8198365" lon="16.9558716">
<ele>185</ele>
<time>2017-09-29T16:42:22Z</time>
</trkpt>
<trkpt lat="53.8203504" lon="16.9538821">
<ele>185</ele>
<time>2017-09-29T16:42:28Z</time>
</trkpt>
<trkpt lat="53.8208756" lon="16.9518869">
<ele>185</ele>
<time>2017-09-29T16:42:34Z</time>
</trkpt>
<trkpt lat="53.8213909" lon="16.9499244">
<ele>186</ele>
<time>2017-09-29T16:42:40Z</time>
</trkpt>
<trkpt lat="53.8222181" lon="16.9484621">
<ele>186</ele>
<time>2017-09-29T16:42:46Z</time>
</trkpt>
<trkpt lat="53.8232172" lon="16.9471407">
<ele>186</ele>
<time>2017-09-29T16:42:52Z</time>
</trkpt>
<trkpt lat="53.8242332" lon="16.9457666">
<ele>186</ele>
<time>2017-09-29T16:42:58Z</time>
</trkpt>
<trkpt lat="53.8252594" lon="16.9443942">
<ele>187</ele>
<time>2017-09-29T16:43:04Z</time>
</trkpt>
<trkpt lat="53.8262925" lon="16.9430132">
<ele>187</ele>
<time>2017-09-29T16:43:10Z</time>
</trkpt>
<trkpt lat="53.8273243" lon="16.9416286">
<ele>187</ele>
<time>2017-09-29T16:43:16Z</time>
</trkpt>
<trkpt lat="53.8283482" lon="16.9402484">
<ele>188</ele>
<time>2017-09-29T16:43:22Z</time>
</trkpt>
<trkpt lat="53.8293613" lon="16.9388921">
<ele>191</ele>
<time>2017-09-29T16:43:28Z</time>
</trkpt>
<trkpt lat="53.8303252" lon="16.9375954">
<ele>193</ele>
<time>2017-09-29T16:43:34Z</time>
</trkpt>
<trkpt lat="53.8312947" lon="16.9362752">
<ele>193</ele>
<time>2017-09-29T16:43:40Z</time>
</trkpt>
<trkpt lat="53.8322569" lon="16.9348929">
<ele>191</ele>
<time>2017-09-29T16:43:46Z</time>
</trkpt>
<trkpt lat="53.8331583" lon="16.9335035">
<ele>193</ele>
<time>2017-09-29T16:43:52Z</time>
</trkpt>
<trkpt lat="53.8339235" lon="16.9323257">
<ele>194</ele>
<time>2017-09-29T16:43:58Z</time>
</trkpt>
<trkpt lat="53.8345285" lon="16.9313018">
<ele>195</ele>
<time>2017-09-29T16:44:04Z</time>
</trkpt>
<trkpt lat="53.8349308" lon="16.9302326">
<ele>194</ele>
<time>2017-09-29T16:44:10Z</time>
</trkpt>
<trkpt lat="53.8352874" lon="16.9291838">
<ele>194</ele>
<time>2017-09-29T16:44:16Z</time>
</trkpt>
<trkpt lat="53.8356429" lon="16.9281735">
<ele>194</ele>
<time>2017-09-29T16:44:22Z</time>
</trkpt>
<trkpt lat="53.8360263" lon="16.9271563">
<ele>193</ele>
<time>2017-09-29T16:44:28Z</time>
</trkpt>
<trkpt lat="53.8364231" lon="16.9261081">
<ele>191</ele>
<time>2017-09-29T16:44:34Z</time>
</trkpt>
<trkpt lat="53.8367995" lon="16.9250333">
<ele>190</ele>
<time>2017-09-29T16:44:40Z</time>
</trkpt>
<trkpt lat="53.8372183" lon="16.9240133">
<ele>189</ele>
<time>2017-09-29T16:44:46Z</time>
</trkpt>
<trkpt lat="53.8375914" lon="16.9229411">
<ele>187</ele>
<time>2017-09-29T16:44:52Z</time>
</trkpt>
<trkpt lat="53.8378406" lon="16.9217202">
<ele>187</ele>
<time>2017-09-29T16:44:58Z</time>
</trkpt>
<trkpt lat="53.8381132" lon="16.9204348">
<ele>187</ele>
<time>2017-09-29T16:45:04Z</time>
</trkpt>
<trkpt lat="53.8384387" lon="16.9191551">
<ele>187</ele>
<time>2017-09-29T16:45:10Z</time>
</trkpt>
<trkpt lat="53.8387232" lon="16.9178570">
<ele>186</ele>
<time>2017-09-29T16:45:16Z</time>
</trkpt>
<trkpt lat="53.8389792" lon="16.9165194">
<ele>186</ele>
<time>2017-09-29T16:45:22Z</time>
</trkpt>
<trkpt lat="53.8392601" lon="16.9151754">
<ele>185</ele>
<time>2017-09-29T16:45:28Z</time>
</trkpt>
<trkpt lat="53.8396663" lon="16.9138871">
<ele>186</ele>
<time>2017-09-29T16:45:34Z</time>
</trkpt>
<trkpt lat="53.8402158" lon="16.9125264">
<ele>185</ele>
<time>2017-09-29T16:45:40Z</time>
</trkpt>
<trkpt lat="53.8408147" lon="16.9110018">
<ele>185</ele>
<time>2017-09-29T16:45:46Z</time>
</trkpt>
<trkpt lat="53.8414654" lon="16.9093781">
<ele>185</ele>
<time>2017-09-29T16:45:52Z</time>
</trkpt>
<trkpt lat="53.8421462" lon="16.9076512">
<ele>185</ele>
<time>2017-09-29T16:45:58Z</time>
</trkpt>
<trkpt lat="53.8428554" lon="16.9058576">
<ele>186</ele>
<time>2017-09-29T16:46:04Z</time>
</trkpt>
<trkpt lat="53.8435851" lon="16.9040047">
<ele>187</ele>
<time>2017-09-29T16:46:10Z</time>
</trkpt>
<trkpt lat="53.8443503" lon="16.9021031">
<ele>187</ele>
<time>2017-09-29T16:46:16Z</time>
</trkpt>
<trkpt lat="53.8450895" lon="16.9002049">
<ele>187</ele>
<time>2017-09-29T16:46:22Z</time>
</trkpt>
<trkpt lat="53.8458212" lon="16.8983376">
<ele>188</ele>
<time>2017-09-29T16:46:28Z</time>
</trkpt>
<trkpt lat="53.8466850" lon="16.8967176">
<ele>189</ele>
<time>2017-09-29T16:46:34Z</time>
</trkpt>
<trkpt lat="53.8477879" lon="16.8955324">
<ele>190</ele>
<time>2017-09-29T16:46:40Z</time>
</trkpt>
<trkpt lat="53.8488917" lon="16.8943032">
<ele>191</ele>
<time>2017-09-29T16:46:46Z</time>
</trkpt>
<trkpt lat="53.8499928" lon="16.8930477">
<ele>192</ele>
<time>2017-09-29T16:46:52Z</time>
</trkpt>
<trkpt lat="53.8511061" lon="16.8917942">
<ele>194</ele>
<time>2017-09-29T16:46:58Z</time>
</trkpt>
<trkpt lat="53.8522110" lon="16.8905535">
<ele>196</ele>
<time>2017-09-29T16:47:04Z</time>
</trkpt>
<trkpt lat="53.8533026" lon="16.8893289">
<ele>197</ele>
<time>2017-09-29T16:47:10Z</time>
</trkpt>
<trkpt lat="53.8544056" lon="16.8881311">
<ele>198</ele>
<time>2017-09-29T16:47:16Z</time>
</trkpt>
<trkpt lat="53.8555121" lon="16.8869151">
<ele>198</ele>
<time>2017-09-29T16:47:22Z</time>
</trkpt>
<trkpt lat="53.8566151" lon="16.8856831">
<ele>199</ele>
<time>2017-09-29T16:47:28Z</time>
</trkpt>
<trkpt lat="53.8576986" lon="16.8844563">
<ele>201</ele>
<time>2017-09-29T16:47:34Z</time>
</trkpt>
<trkpt lat="53.8587837" lon="16.8832469">
<ele>202</ele>
<time>2017-09-29T16:47:40Z</time>
</trkpt>
<trkpt lat="53.8621" lon="16.8796">
<ele>204</ele>
<time>2017-09-29T16:47:58Z</time>
</trkpt>
<trkpt lat="53.8632" lon="16.8783">
<ele>206</ele>
<time>2017-09-29T16:48:04Z</time>
</trkpt>
<trkpt lat="53.8643" lon="16.877">
<ele>208</ele>
<time>2017-09-29T16:48:10Z</time>
</trkpt>
<trkpt lat="53.8654243" lon="16.8758058">
<ele>209</ele>
<time>2017-09-29T16:48:16Z</time>
</trkpt>
<trkpt lat="53.8665300" lon="16.8745629">
<ele>210</ele>
<time>2017-09-29T16:48:22Z</time>
</trkpt>
<trkpt lat="53.8676398" lon="16.8733338">
<ele>211</ele>
<time>2017-09-29T16:48:28Z</time>
</trkpt>
<trkpt lat="53.8687528" lon="16.8721198">
<ele>210</ele>
<time>2017-09-29T16:48:34Z</time>
</trkpt>
<trkpt lat="53.8698663" lon="16.8708272">
<ele>211</ele>
<time>2017-09-29T16:48:40Z</time>
</trkpt>
<trkpt lat="53.8709837" lon="16.8696119">
<ele>211</ele>
<time>2017-09-29T16:48:46Z</time>
</trkpt>
<trkpt lat="53.8720837" lon="16.8683899">
<ele>212</ele>
<time>2017-09-29T16:48:52Z</time>
</trkpt>
<trkpt lat="53.8732153" lon="16.8671765">
<ele>211</ele>
<time>2017-09-29T16:48:58Z</time>
</trkpt>
<trkpt lat="53.8743473" lon="16.8659584">
<ele>211</ele>
<time>2017-09-29T16:49:04Z</time>
</trkpt>
<trkpt lat="53.8754765" lon="16.8647322">
<ele>212</ele>
<time>2017-09-29T16:49:10Z</time>
</trkpt>
<trkpt lat="53.8766251" lon="16.8635037">
<ele>212</ele>
<time>2017-09-29T16:49:16Z</time>
</trkpt>
<trkpt lat="53.8777778" lon="16.8622358">
<ele>212</ele>
<time>2017-09-29T16:49:22Z</time>
</trkpt>
<trkpt lat="53.8789230" lon="16.8610098">
<ele>211</ele>
<time>2017-09-29T16:49:28Z</time>
</trkpt>
<trkpt lat="53.8800488" lon="16.8597929">
<ele>211</ele>
<time>2017-09-29T16:49:34Z</time>
</trkpt>
<trkpt lat="53.8811590" lon="16.8585766">
<ele>211</ele>
<time>2017-09-29T16:49:40Z</time>
</trkpt>
<trkpt lat="53.8822603" lon="16.8574265">
<ele>210</ele>
<time>2017-09-29T16:49:46Z</time>
</trkpt>
<trkpt lat="53.8832432" lon="16.8563551">
<ele>210</ele>
<time>2017-09-29T16:49:52Z</time>
</trkpt>
<trkpt lat="53.8841371" lon="16.8554032">
<ele>211</ele>
<time>2017-09-29T16:49:58Z</time>
</trkpt>
<trkpt lat="53.8848275" lon="16.8546808">
<ele>211</ele>
<time>2017-09-29T16:50:04Z</time>
</trkpt>
<trkpt lat="53.8855083" lon="16.8539086">
<ele>211</ele>
<time>2017-09-29T16:50:10Z</time>
</trkpt>
<trkpt lat="53.8862096" lon="16.8531647">
<ele>211</ele>
<time>2017-09-29T16:50:16Z</time>
</trkpt>
<trkpt lat="53.8869462" lon="16.8523782">
<ele>211</ele>
<time>2017-09-29T16:50:22Z</time>
</trkpt>
<trkpt lat="53.8877322" lon="16.8515259">
<ele>212</ele>
<time>2017-09-29T16:50:28Z</time>
</trkpt>
<trkpt lat="53.8885601" lon="16.8506132">
<ele>213</ele>
<time>2017-09-29T16:50:34Z</time>
</trkpt>
<trkpt lat="53.8894401" lon="16.8496755">
<ele>213</ele>
<time>2017-09-29T16:50:40Z</time>
</trkpt>
<trkpt lat="53.8903103" lon="16.8487278">
<ele>214</ele>
<time>2017-09-29T16:50:46Z</time>
</trkpt>
<trkpt lat="53.8911886" lon="16.8477810">
<ele>213</ele>
<time>2017-09-29T16:50:52Z</time>
</trkpt>
<trkpt lat="53.8920584" lon="16.8468396">
<ele>214</ele>
<time>2017-09-29T16:50:58Z</time>
</trkpt>
<trkpt lat="53.8928797" lon="16.8459447">
<ele>214</ele>
<time>2017-09-29T16:51:04Z</time>
</trkpt>
<trkpt lat="53.8936387" lon="16.8451167">
<ele>212</ele>
<time>2017-09-29T16:51:10Z</time>
</trkpt>
<trkpt lat="53.8943916" lon="16.8442788">
<ele>211</ele>
<time>2017-09-29T16:51:16Z</time>
</trkpt>
<trkpt lat="53.8951197" lon="16.8436792">
<ele>211</ele>
<time>2017-09-29T16:51:22Z</time>
</trkpt>
<trkpt lat="53.8953791" lon="16.8433441">
<ele>213</ele>
<time>2017-09-29T16:51:28Z</time>
</trkpt>
<trkpt lat="53.8953747" lon="16.8426186">
<ele>215</ele>
<time>2017-09-29T16:51:34Z</time>
</trkpt>
<trkpt lat="53.8954135" lon="16.8415212">
<ele>215</ele>
<time>2017-09-29T16:51:40Z</time>
</trkpt>
<trkpt lat="53.8954278" lon="16.8403187">
<ele>212</ele>
<time>2017-09-29T16:51:46Z</time>
</trkpt>
<trkpt lat="53.8954375" lon="16.8391669">
<ele>212</ele>
<time>2017-09-29T16:51:52Z</time>
</trkpt>
<trkpt lat="53.8955787" lon="16.8382990">
<ele>207</ele>
<time>2017-09-29T16:51:58Z</time>
</trkpt>
<trkpt lat="53.8956776" lon="16.8375603">
<ele>202</ele>
<time>2017-09-29T16:52:04Z</time>
</trkpt>
<trkpt lat="53.8957328" lon="16.8373360">
<ele>199</ele>
<time>2017-09-29T16:52:10Z</time>
</trkpt>
<trkpt lat="53.8958799" lon="16.8366498">
<ele>194</ele>
<time>2017-09-29T16:52:16Z</time>
</trkpt>
<trkpt lat="53.8959048" lon="16.8357845">
<ele>195</ele>
<time>2017-09-29T16:52:22Z</time>
</trkpt>
<trkpt lat="53.8961415" lon="16.8356042">
<ele>194</ele>
<time>2017-09-29T16:52:28Z</time>
</trkpt>
<trkpt lat="53.8964354" lon="16.8354096">
<ele>192</ele>
<time>2017-09-29T16:52:34Z</time>
</trkpt>
<trkpt lat="53.8964259" lon="16.8353911">
<ele>193</ele>
<time>2017-09-29T16:52:40Z</time>
</trkpt>
<trkpt lat="53.8964052" lon="16.8351818">
<ele>193</ele>
<time>2017-09-29T16:52:46Z</time>
</trkpt>
<trkpt lat="53.8962109" lon="16.8346928">
<ele>192</ele>
<time>2017-09-29T16:52:52Z</time>
</trkpt>
<trkpt lat="53.8960005" lon="16.8338794">
<ele>191</ele>
<time>2017-09-29T16:52:58Z</time>
</trkpt>
<trkpt lat="53.8958053" lon="16.8328888">
<ele>190</ele>
<time>2017-09-29T16:53:04Z</time>
</trkpt>
<trkpt lat="53.8959578" lon="16.8319505">
<ele>190</ele>
<time>2017-09-29T16:53:10Z</time>
</trkpt>
<trkpt lat="53.8965584" lon="16.8314410">
<ele>192</ele>
<time>2017-09-29T16:53:16Z</time>
</trkpt>
<trkpt lat="53.8971103" lon="16.8308446">
<ele>196</ele>
<time>2017-09-29T16:53:22Z</time>
</trkpt>
<trkpt lat="53.8973826" lon="16.8298300">
<ele>200</ele>
<time>2017-09-29T16:53:28Z</time>
</trkpt>
<trkpt lat="53.8975755" lon="16.8287158">
<ele>203</ele>
<time>2017-09-29T16:53:34Z</time>
</trkpt>
<trkpt lat="53.8977456" lon="16.8274068">
<ele>205</ele>
<time>2017-09-29T16:53:40Z</time>
</trkpt>
<trkpt lat="53.8979474" lon="16.8258379">
<ele>207</ele>
<time>2017-09-29T16:53:46Z</time>
</trkpt>
<trkpt lat="53.8981444" lon="16.8242370">
<ele>210</ele>
<time>2017-09-29T16:53:52Z</time>
</trkpt>
<trkpt lat="53.8983437" lon="16.8225013">
<ele>212</ele>
<time>2017-09-29T16:53:58Z</time>
</trkpt>
<trkpt lat="53.8985634" lon="16.8205628">
<ele>213</ele>
<time>2017-09-29T16:54:04Z</time>
</trkpt>
<trkpt lat="53.8987943" lon="16.8185258">
<ele>213</ele>
<time>2017-09-29T16:54:10Z</time>
</trkpt>
<trkpt lat="53.8990438" lon="16.8164255">
<ele>213</ele>
<time>2017-09-29T16:54:16Z</time>
</trkpt>
<trkpt lat="53.8992936" lon="16.8142791">
<ele>212</ele>
<time>2017-09-29T16:54:22Z</time>
</trkpt>
<trkpt lat="53.8995486" lon="16.8120979">
<ele>212</ele>
<time>2017-09-29T16:54:28Z</time>
</trkpt>
<trkpt lat="53.8998109" lon="16.8098580">
<ele>212</ele>
<time>2017-09-29T16:54:34Z</time>
</trkpt>
<trkpt lat="53.9000777" lon="16.8076143">
<ele>212</ele>
<time>2017-09-29T16:54:40Z</time>
</trkpt>
<trkpt lat="53.9003573" lon="16.8053608">
<ele>209</ele>
<time>2017-09-29T16:54:46Z</time>
</trkpt>
<trkpt lat="53.9006350" lon="16.8030798">
<ele>210</ele>
<time>2017-09-29T16:54:52Z</time>
</trkpt>
<trkpt lat="53.9009071" lon="16.8007857">
<ele>208</ele>
<time>2017-09-29T16:54:58Z</time>
</trkpt>
<trkpt lat="53.9011870" lon="16.7985026">
<ele>204</ele>
<time>2017-09-29T16:55:04Z</time>
</trkpt>
<trkpt lat="53.9014570" lon="16.7962325">
<ele>202</ele>
<time>2017-09-29T16:55:10Z</time>
</trkpt>
<trkpt lat="53.9017275" lon="16.7940075">
<ele>201</ele>
<time>2017-09-29T16:55:16Z</time>
</trkpt>
<trkpt lat="53.9019802" lon="16.7917925">
<ele>203</ele>
<time>2017-09-29T16:55:22Z</time>
</trkpt>
<trkpt lat="53.9022379" lon="16.7896325">
<ele>207</ele>
<time>2017-09-29T16:55:28Z</time>
</trkpt>
<trkpt lat="53.9025052" lon="16.7874682">
<ele>206</ele>
<time>2017-09-29T16:55:34Z</time>
</trkpt>
<trkpt lat="53.9027611" lon="16.7852293">
<ele>206</ele>
<time>2017-09-29T16:55:40Z</time>
</trkpt>
<trkpt lat="53.9030260" lon="16.7829971">
<ele>206</ele>
<time>2017-09-29T16:55:46Z</time>
</trkpt>
<trkpt lat="53.9032843" lon="16.7808008">
<ele>206</ele>
<time>2017-09-29T16:55:52Z</time>
</trkpt>
<trkpt lat="53.9035389" lon="16.7786381">
<ele>207</ele>
<time>2017-09-29T16:55:58Z</time>
</trkpt>
<trkpt lat="53.9037972" lon="16.7764984">
<ele>208</ele>
<time>2017-09-29T16:56:04Z</time>
</trkpt>
<trkpt lat="53.9040598" lon="16.7743732">
<ele>209</ele>
<time>2017-09-29T16:56:10Z</time>
</trkpt>
<trkpt lat="53.9043280" lon="16.7722072">
<ele>211</ele>
<time>2017-09-29T16:56:16Z</time>
</trkpt>
<trkpt lat="53.9045836" lon="16.7700136">
<ele>211</ele>
<time>2017-09-29T16:56:22Z</time>
</trkpt>
<trkpt lat="53.9048376" lon="16.7678045">
<ele>211</ele>
<time>2017-09-29T16:56:28Z</time>
</trkpt>
<trkpt lat="53.9050934" lon="16.7655946">
<ele>211</ele>
<time>2017-09-29T16:56:34Z</time>
</trkpt>
<trkpt lat="53.9053666" lon="16.7633797">
<ele>212</ele>
<time>2017-09-29T16:56:40Z</time>
</trkpt>
<trkpt lat="53.9056465" lon="16.7611215">
<ele>212</ele>
<time>2017-09-29T16:56:46Z</time>
</trkpt>
<trkpt lat="53.9059184" lon="16.7588680">
<ele>213</ele>
<time>2017-09-29T16:56:52Z</time>
</trkpt>
<trkpt lat="53.9061866" lon="16.7565949">
<ele>212</ele>
<time>2017-09-29T16:56:58Z</time>
</trkpt>
<trkpt lat="53.9064649" lon="16.7542808">
<ele>210</ele>
<time>2017-09-29T16:57:04Z</time>
</trkpt>
<trkpt lat="53.9067312" lon="16.7520320">
<ele>209</ele>
<time>2017-09-29T16:57:10Z</time>
</trkpt>
<trkpt lat="53.9071622" lon="16.7499138">
<ele>209</ele>
<time>2017-09-29T16:57:16Z</time>
</trkpt>
<trkpt lat="53.9080569" lon="16.7482860">
<ele>212</ele>
<time>2017-09-29T16:57:22Z</time>
</trkpt>
<trkpt lat="53.9090049" lon="16.7466835">
<ele>213</ele>
<time>2017-09-29T16:57:28Z</time>
</trkpt>
<trkpt lat="53.9099455" lon="16.7450255">
<ele>214</ele>
<time>2017-09-29T16:57:34Z</time>
</trkpt>
<trkpt lat="53.9106815" lon="16.7431384">
<ele>216</ele>
<time>2017-09-29T16:57:40Z</time>
</trkpt>
<trkpt lat="53.9113127" lon="16.7411548">
<ele>216</ele>
<time>2017-09-29T16:57:46Z</time>
</trkpt>
<trkpt lat="53.9119210" lon="16.7391889">
<ele>218</ele>
<time>2017-09-29T16:57:52Z</time>
</trkpt>
<trkpt lat="53.9125354" lon="16.7372169">
<ele>217</ele>
<time>2017-09-29T16:57:58Z</time>
</trkpt>
<trkpt lat="53.9131642" lon="16.7351877">
<ele>214</ele>
<time>2017-09-29T16:58:04Z</time>
</trkpt>
<trkpt lat="53.9137904" lon="16.7331652">
<ele>212</ele>
<time>2017-09-29T16:58:10Z</time>
</trkpt>
<trkpt lat="53.9144090" lon="16.7312212">
<ele>211</ele>
<time>2017-09-29T16:58:16Z</time>
</trkpt>
<trkpt lat="53.9149767" lon="16.7292931">
<ele>209</ele>
<time>2017-09-29T16:58:22Z</time>
</trkpt>
<trkpt lat="53.9153965" lon="16.7272212">
<ele>211</ele>
<time>2017-09-29T16:58:28Z</time>
</trkpt>
<trkpt lat="53.9158136" lon="16.7251271">
<ele>208</ele>
<time>2017-09-29T16:58:34Z</time>
</trkpt>
<trkpt lat="53.9162471" lon="16.7229883">
<ele>207</ele>
<time>2017-09-29T16:58:40Z</time>
</trkpt>
<trkpt lat="53.9166648" lon="16.7208554">
<ele>206</ele>
<time>2017-09-29T16:58:46Z</time>
</trkpt>
<trkpt lat="53.9170908" lon="16.7187455">
<ele>206</ele>
<time>2017-09-29T16:58:52Z</time>
</trkpt>
<trkpt lat="53.9175278" lon="16.7166323">
<ele>207</ele>
<time>2017-09-29T16:58:58Z</time>
</trkpt>
<trkpt lat="53.9179568" lon="16.7145016">
<ele>209</ele>
<time>2017-09-29T16:59:04Z</time>
</trkpt>
<trkpt lat="53.9183797" lon="16.7123407">
<ele>209</ele>
<time>2017-09-29T16:59:10Z</time>
</trkpt>
<trkpt lat="53.9188127" lon="16.7101515">
<ele>208</ele>
<time>2017-09-29T16:59:16Z</time>
</trkpt>
<trkpt lat="53.9192617" lon="16.7079769">
<ele>207</ele>
<time>2017-09-29T16:59:22Z</time>
</trkpt>
<trkpt lat="53.9197009" lon="16.7058036">
<ele>207</ele>
<time>2017-09-29T16:59:28Z</time>
</trkpt>
<trkpt lat="53.9201281" lon="16.7036111">
<ele>207</ele>
<time>2017-09-29T16:59:34Z</time>
</trkpt>
<trkpt lat="53.9205637" lon="16.7013664">
<ele>206</ele>
<time>2017-09-29T16:59:40Z</time>
</trkpt>
<trkpt lat="53.9210374" lon="16.6991459">
<ele>200</ele>
<time>2017-09-29T16:59:46Z</time>
</trkpt>
<trkpt lat="53.9214919" lon="16.6969160">
<ele>202</ele>
<time>2017-09-29T16:59:52Z</time>
</trkpt>
<trkpt lat="53.9219219" lon="16.6947289">
<ele>204</ele>
<time>2017-09-29T16:59:58Z</time>
</trkpt>
<trkpt lat="53.9223655" lon="16.6925729">
<ele>206</ele>
<time>2017-09-29T17:00:04Z</time>
</trkpt>
<trkpt lat="53.9227922" lon="16.6903985">
<ele>206</ele>
<time>2017-09-29T17:00:10Z</time>
</trkpt>
<trkpt lat="53.9232281" lon="16.6882006">
<ele>207</ele>
<time>2017-09-29T17:00:16Z</time>
</trkpt>
<trkpt lat="53.9236887" lon="16.6859856">
<ele>207</ele>
<time>2017-09-29T17:00:22Z</time>
</trkpt>
<trkpt lat="53.9241195" lon="16.6838762">
<ele>208</ele>
<time>2017-09-29T17:00:28Z</time>
</trkpt>
<trkpt lat="53.9245626" lon="16.6818024">
<ele>206</ele>
<time>2017-09-29T17:00:34Z</time>
</trkpt>
<trkpt lat="53.9250009" lon="16.6797083">
<ele>202</ele>
<time>2017-09-29T17:00:40Z</time>
</trkpt>
<trkpt lat="53.9254305" lon="16.6776207">
<ele>199</ele>
<time>2017-09-29T17:00:46Z</time>
</trkpt>
<trkpt lat="53.9258476" lon="16.6755425">
<ele>196</ele>
<time>2017-09-29T17:00:52Z</time>
</trkpt>
<trkpt lat="53.9262612" lon="16.6735018">
<ele>193</ele>
<time>2017-09-29T17:00:58Z</time>
</trkpt>
<trkpt lat="53.9266690" lon="16.6714416">
<ele>192</ele>
<time>2017-09-29T17:01:04Z</time>
</trkpt>
<trkpt lat="53.9270887" lon="16.6693517">
<ele>191</ele>
<time>2017-09-29T17:01:10Z</time>
</trkpt>
<trkpt lat="53.9274948" lon="16.6673142">
<ele>192</ele>
<time>2017-09-29T17:01:16Z</time>
</trkpt>
<trkpt lat="53.9278834" lon="16.6654249">
<ele>192</ele>
<time>2017-09-29T17:01:22Z</time>
</trkpt>
<trkpt lat="53.9283067" lon="16.6636171">
<ele>195</ele>
<time>2017-09-29T17:01:28Z</time>
</trkpt>
<trkpt lat="53.9290213" lon="16.6620675">
<ele>197</ele>
<time>2017-09-29T17:01:34Z</time>
</trkpt>
<trkpt lat="53.9298141" lon="16.6605896">
<ele>198</ele>
<time>2017-09-29T17:01:40Z</time>
</trkpt>
<trkpt lat="53.9303655" lon="16.6588838">
<ele>200</ele>
<time>2017-09-29T17:01:46Z</time>
</trkpt>
<trkpt lat="53.9305143" lon="16.6569765">
<ele>201</ele>
<time>2017-09-29T17:01:52Z</time>
</trkpt>
<trkpt lat="53.9305286" lon="16.6550284">
<ele>199</ele>
<time>2017-09-29T17:01:58Z</time>
</trkpt>
<trkpt lat="53.9306037" lon="16.6530524">
<ele>196</ele>
<time>2017-09-29T17:02:04Z</time>
</trkpt>
<trkpt lat="53.9309303" lon="16.6511702">
<ele>190</ele>
<time>2017-09-29T17:02:10Z</time>
</trkpt>
<trkpt lat="53.9315412" lon="16.6494769">
<ele>191</ele>
<time>2017-09-29T17:02:16Z</time>
</trkpt>
<trkpt lat="53.9322255" lon="16.6479129">
<ele>193</ele>
<time>2017-09-29T17:02:22Z</time>
</trkpt>
<trkpt lat="53.9328700" lon="16.6461695">
<ele>191</ele>
<time>2017-09-29T17:02:28Z</time>
</trkpt>
<trkpt lat="53.9334580" lon="16.6442153">
<ele>190</ele>
<time>2017-09-29T17:02:34Z</time>
</trkpt>
<trkpt lat="53.9341097" lon="16.6410172">
<ele>192</ele>
<time>2017-09-29T17:02:44Z</time>
</trkpt>
<trkpt lat="53.9346563" lon="16.6393362">
<ele>191</ele>
<time>2017-09-29T17:02:50Z</time>
</trkpt>
<trkpt lat="53.9352352" lon="16.6375162">
<ele>187</ele>
<time>2017-09-29T17:02:56Z</time>
</trkpt>
<trkpt lat="53.9357837" lon="16.6357509">
<ele>185</ele>
<time>2017-09-29T17:03:02Z</time>
</trkpt>
<trkpt lat="53.9365149" lon="16.6342851">
<ele>182</ele>
<time>2017-09-29T17:03:08Z</time>
</trkpt>
<trkpt lat="53.9369347" lon="16.6325995">
<ele>180</ele>
<time>2017-09-29T17:03:14Z</time>
</trkpt>
<trkpt lat="53.9371982" lon="16.6307698">
<ele>178</ele>
<time>2017-09-29T17:03:20Z</time>
</trkpt>
<trkpt lat="53.9374959" lon="16.6290288">
<ele>176</ele>
<time>2017-09-29T17:03:26Z</time>
</trkpt>
<trkpt lat="53.9380503" lon="16.6279016">
<ele>172</ele>
<time>2017-09-29T17:03:32Z</time>
</trkpt>
<trkpt lat="53.9388955" lon="16.6271822">
<ele>169</ele>
<time>2017-09-29T17:03:38Z</time>
</trkpt>
<trkpt lat="53.9398186" lon="16.6262544">
<ele>168</ele>
<time>2017-09-29T17:03:44Z</time>
</trkpt>
<trkpt lat="53.9403040" lon="16.6246140">
<ele>170</ele>
<time>2017-09-29T17:03:50Z</time>
</trkpt>
<trkpt lat="53.9404617" lon="16.6227106">
<ele>166</ele>
<time>2017-09-29T17:03:56Z</time>
</trkpt>
<trkpt lat="53.9405774" lon="16.6208233">
<ele>167</ele>
<time>2017-09-29T17:04:02Z</time>
</trkpt>
<trkpt lat="53.9405327" lon="16.6188686">
<ele>165</ele>
<time>2017-09-29T17:04:08Z</time>
</trkpt>
<trkpt lat="53.9406940" lon="16.6169433">
<ele>162</ele>
<time>2017-09-29T17:04:14Z</time>
</trkpt>
<trkpt lat="53.9410304" lon="16.6149869">
<ele>165</ele>
<time>2017-09-29T17:04:20Z</time>
</trkpt>
<trkpt lat="53.9413417" lon="16.6129837">
<ele>164</ele>
<time>2017-09-29T17:04:26Z</time>
</trkpt>
<trkpt lat="53.9419348" lon="16.6112419">
<ele>161</ele>
<time>2017-09-29T17:04:32Z</time>
</trkpt>
<trkpt lat="53.9430494" lon="16.6102298">
<ele>163</ele>
<time>2017-09-29T17:04:38Z</time>
</trkpt>
<trkpt lat="53.9441428" lon="16.6092405">
<ele>168</ele>
<time>2017-09-29T17:04:44Z</time>
</trkpt>
<trkpt lat="53.9452024" lon="16.6081909">
<ele>169</ele>
<time>2017-09-29T17:04:50Z</time>
</trkpt>
<trkpt lat="53.9460392" lon="16.6067767">
<ele>168</ele>
<time>2017-09-29T17:04:56Z</time>
</trkpt>
<trkpt lat="53.9466938" lon="16.6050598">
<ele>169</ele>
<time>2017-09-29T17:05:02Z</time>
</trkpt>
<trkpt lat="53.9473606" lon="16.6033449">
<ele>169</ele>
<time>2017-09-29T17:05:08Z</time>
</trkpt>
<trkpt lat="53.9480314" lon="16.6016213">
<ele>170</ele>
<time>2017-09-29T17:05:14Z</time>
</trkpt>
<trkpt lat="53.9486687" lon="16.5998456">
<ele>168</ele>
<time>2017-09-29T17:05:20Z</time>
</trkpt>
<trkpt lat="53.9492729" lon="16.5982106">
<ele>164</ele>
<time>2017-09-29T17:05:26Z</time>
</trkpt>
<trkpt lat="53.9497451" lon="16.5968497">
<ele>163</ele>
<time>2017-09-29T17:05:32Z</time>
</trkpt>
<trkpt lat="53.9502358" lon="16.5953898">
<ele>159</ele>
<time>2017-09-29T17:05:38Z</time>
</trkpt>
<trkpt lat="53.9507458" lon="16.5939143">
<ele>156</ele>
<time>2017-09-29T17:05:44Z</time>
</trkpt>
<trkpt lat="53.9511243" lon="16.5925474">
<ele>158</ele>
<time>2017-09-29T17:05:50Z</time>
</trkpt>
<trkpt lat="53.9511716" lon="16.5913415">
<ele>155</ele>
<time>2017-09-29T17:05:56Z</time>
</trkpt>
<trkpt lat="53.9512993" lon="16.5905417">
<ele>153</ele>
<time>2017-09-29T17:06:02Z</time>
</trkpt>
<trkpt lat="53.9516113" lon="16.5898093">
<ele>150</ele>
<time>2017-09-29T17:06:08Z</time>
</trkpt>
<trkpt lat="53.9519402" lon="16.5890188">
<ele>150</ele>
<time>2017-09-29T17:06:14Z</time>
</trkpt>
<trkpt lat="53.9522854" lon="16.5883056">
<ele>151</ele>
<time>2017-09-29T17:06:20Z</time>
</trkpt>
<trkpt lat="53.9523895" lon="16.5880806">
<ele>152</ele>
<time>2017-09-29T17:06:26Z</time>
</trkpt>
<trkpt lat="53.9525592" lon="16.5878876">
<ele>148</ele>
<time>2017-09-29T17:06:32Z</time>
</trkpt>
<trkpt lat="53.9529800" lon="16.5880276">
<ele>151</ele>
<time>2017-09-29T17:06:38Z</time>
</trkpt>
<trkpt lat="53.9534942" lon="16.5884886">
<ele>151</ele>
<time>2017-09-29T17:06:44Z</time>
</trkpt>
<trkpt lat="53.9540839" lon="16.5886060">
<ele>150</ele>
<time>2017-09-29T17:06:50Z</time>
</trkpt>
<trkpt lat="53.9545719" lon="16.5882709">
<ele>153</ele>
<time>2017-09-29T17:06:56Z</time>
</trkpt>
<trkpt lat="53.9548036" lon="16.5880215">
<ele>152</ele>
<time>2017-09-29T17:07:02Z</time>
</trkpt>
<trkpt lat="53.9550101" lon="16.5875124">
<ele>150</ele>
<time>2017-09-29T17:07:08Z</time>
</trkpt>
<trkpt lat="53.9553606" lon="16.5867903">
<ele>148</ele>
<time>2017-09-29T17:07:14Z</time>
</trkpt>
<trkpt lat="53.9558767" lon="16.5858526">
<ele>147</ele>
<time>2017-09-29T17:07:20Z</time>
</trkpt>
<trkpt lat="53.9565995" lon="16.5851263">
<ele>148</ele>
<time>2017-09-29T17:07:26Z</time>
</trkpt>
<trkpt lat="53.9573747" lon="16.5850816">
<ele>149</ele>
<time>2017-09-29T17:07:32Z</time>
</trkpt>
<trkpt lat="53.9581717" lon="16.5853091">
<ele>150</ele>
<time>2017-09-29T17:07:38Z</time>
</trkpt>
<trkpt lat="53.9588816" lon="16.5847772">
<ele>153</ele>
<time>2017-09-29T17:07:44Z</time>
</trkpt>
<trkpt lat="53.9596790" lon="16.5840709">
<ele>156</ele>
<time>2017-09-29T17:07:50Z</time>
</trkpt>
<trkpt lat="53.9605625" lon="16.5832995">
<ele>156</ele>
<time>2017-09-29T17:07:56Z</time>
</trkpt>
<trkpt lat="53.9614203" lon="16.5823386">
<ele>155</ele>
<time>2017-09-29T17:08:02Z</time>
</trkpt>
<trkpt lat="53.9622046" lon="16.5811250">
<ele>154</ele>
<time>2017-09-29T17:08:08Z</time>
</trkpt>
<trkpt lat="53.9629990" lon="16.5798275">
<ele>154</ele>
<time>2017-09-29T17:08:14Z</time>
</trkpt>
<trkpt lat="53.9638152" lon="16.5784813">
<ele>153</ele>
<time>2017-09-29T17:08:20Z</time>
</trkpt>
<trkpt lat="53.9644984" lon="16.5767363">
<ele>152</ele>
<time>2017-09-29T17:08:26Z</time>
</trkpt>
<trkpt lat="53.9651665" lon="16.5748274">
<ele>149</ele>
<time>2017-09-29T17:08:32Z</time>
</trkpt>
<trkpt lat="53.9658595" lon="16.5728818">
<ele>144</ele>
<time>2017-09-29T17:08:38Z</time>
</trkpt>
<trkpt lat="53.9665442" lon="16.5709523">
<ele>143</ele>
<time>2017-09-29T17:08:44Z</time>
</trkpt>
<trkpt lat="53.9671019" lon="16.5691775">
<ele>147</ele>
<time>2017-09-29T17:08:50Z</time>
</trkpt>
<trkpt lat="53.9674226" lon="16.5675409">
<ele>148</ele>
<time>2017-09-29T17:08:56Z</time>
</trkpt>
<trkpt lat="53.9676811" lon="16.5661157">
<ele>150</ele>
<time>2017-09-29T17:09:02Z</time>
</trkpt>
<trkpt lat="53.9679568" lon="16.5646404">
<ele>150</ele>
<time>2017-09-29T17:09:08Z</time>
</trkpt>
<trkpt lat="53.9683722" lon="16.5632777">
<ele>148</ele>
<time>2017-09-29T17:09:14Z</time>
</trkpt>
<trkpt lat="53.9690548" lon="16.5620097">
<ele>148</ele>
<time>2017-09-29T17:09:20Z</time>
</trkpt>
<trkpt lat="53.9698348" lon="16.5607221">
<ele>146</ele>
<time>2017-09-29T17:09:26Z</time>
</trkpt>
<trkpt lat="53.9706478" lon="16.5594030">
<ele>144</ele>
<time>2017-09-29T17:09:32Z</time>
</trkpt>
<trkpt lat="53.9714351" lon="16.5579759">
<ele>143</ele>
<time>2017-09-29T17:09:38Z</time>
</trkpt>
<trkpt lat="53.9721312" lon="16.5564376">
<ele>146</ele>
<time>2017-09-29T17:09:44Z</time>
</trkpt>
<trkpt lat="53.9727648" lon="16.5548927">
<ele>149</ele>
<time>2017-09-29T17:09:50Z</time>
</trkpt>
<trkpt lat="53.9733434" lon="16.5535876">
<ele>153</ele>
<time>2017-09-29T17:09:56Z</time>
</trkpt>
<trkpt lat="53.9738460" lon="16.5527497">
<ele>153</ele>
<time>2017-09-29T17:10:02Z</time>
</trkpt>
<trkpt lat="53.9739960" lon="16.5523044">
<ele>153</ele>
<time>2017-09-29T17:10:08Z</time>
</trkpt>
<trkpt lat="53.9739055" lon="16.5517799">
<ele>152</ele>
<time>2017-09-29T17:10:14Z</time>
</trkpt>
<trkpt lat="53.9738978" lon="16.5510026">
<ele>151</ele>
<time>2017-09-29T17:10:20Z</time>
</trkpt>
<trkpt lat="53.9739221" lon="16.5500475">
<ele>150</ele>
<time>2017-09-29T17:10:26Z</time>
</trkpt>
<trkpt lat="53.9739646" lon="16.5489221">
<ele>149</ele>
<time>2017-09-29T17:10:32Z</time>
</trkpt>
<trkpt lat="53.9740086" lon="16.5478452">
<ele>150</ele>
<time>2017-09-29T17:10:38Z</time>
</trkpt>
<trkpt lat="53.9741144" lon="16.5466974">
<ele>152</ele>
<time>2017-09-29T17:10:44Z</time>
</trkpt>
<trkpt lat="53.9743920" lon="16.5454490">
<ele>152</ele>
<time>2017-09-29T17:10:50Z</time>
</trkpt>
<trkpt lat="53.9747543" lon="16.5440578">
<ele>157</ele>
<time>2017-09-29T17:10:56Z</time>
</trkpt>
<trkpt lat="53.9750041" lon="16.5425866">
<ele>163</ele>
<time>2017-09-29T17:11:02Z</time>
</trkpt>
<trkpt lat="53.9752184" lon="16.5412217">
<ele>167</ele>
<time>2017-09-29T17:11:08Z</time>
</trkpt>
<trkpt lat="53.9755139" lon="16.5402786">
<ele>170</ele>
<time>2017-09-29T17:11:14Z</time>
</trkpt>
<trkpt lat="53.9761698" lon="16.5399727">
<ele>170</ele>
<time>2017-09-29T17:11:20Z</time>
</trkpt>
<trkpt lat="53.9768430" lon="16.5396999">
<ele>168</ele>
<time>2017-09-29T17:11:26Z</time>
</trkpt>
<trkpt lat="53.9775022" lon="16.5394083">
<ele>166</ele>
<time>2017-09-29T17:11:32Z</time>
</trkpt>
<trkpt lat="53.9781358" lon="16.5391263">
<ele>165</ele>
<time>2017-09-29T17:11:38Z</time>
</trkpt>
<trkpt lat="53.9787138" lon="16.5390699">
<ele>164</ele>
<time>2017-09-29T17:11:44Z</time>
</trkpt>
<trkpt lat="53.9792508" lon="16.5389836">
<ele>165</ele>
<time>2017-09-29T17:11:50Z</time>
</trkpt>
<trkpt lat="53.9794643" lon="16.5385385">
<ele>165</ele>
<time>2017-09-29T17:11:56Z</time>
</trkpt>
<trkpt lat="53.9793924" lon="16.5378086">
<ele>160</ele>
<time>2017-09-29T17:12:02Z</time>
</trkpt>
<trkpt lat="53.9795022" lon="16.5368548">
<ele>161</ele>
<time>2017-09-29T17:12:08Z</time>
</trkpt>
<trkpt lat="53.9796473" lon="16.5357394">
<ele>162</ele>
<time>2017-09-29T17:12:14Z</time>
</trkpt>
<trkpt lat="53.9797801" lon="16.5344564">
<ele>164</ele>
<time>2017-09-29T17:12:20Z</time>
</trkpt>
<trkpt lat="53.9799299" lon="16.5329780">
<ele>166</ele>
<time>2017-09-29T17:12:26Z</time>
</trkpt>
<trkpt lat="53.9800889" lon="16.5314285">
<ele>169</ele>
<time>2017-09-29T17:12:32Z</time>
</trkpt>
<trkpt lat="53.9802390" lon="16.5299198">
<ele>172</ele>
<time>2017-09-29T17:12:38Z</time>
</trkpt>
<trkpt lat="53.9804232" lon="16.5282867">
<ele>173</ele>
<time>2017-09-29T17:12:44Z</time>
</trkpt>
<trkpt lat="53.9806097" lon="16.5265132">
<ele>175</ele>
<time>2017-09-29T17:12:50Z</time>
</trkpt>
<trkpt lat="53.9808082" lon="16.5246914">
<ele>175</ele>
<time>2017-09-29T17:12:56Z</time>
</trkpt>
<trkpt lat="53.9809981" lon="16.5228219">
<ele>177</ele>
<time>2017-09-29T17:13:02Z</time>
</trkpt>
<trkpt lat="53.9811891" lon="16.5209980">
<ele>179</ele>
<time>2017-09-29T17:13:08Z</time>
</trkpt>
<trkpt lat="53.9817039" lon="16.5175343">
<ele>182</ele>
<time>2017-09-29T17:13:21Z</time>
</trkpt>
<trkpt lat="53.9821268" lon="16.5160217">
<ele>183</ele>
<time>2017-09-29T17:13:27Z</time>
</trkpt>
<trkpt lat="53.9825299" lon="16.5144948">
<ele>184</ele>
<time>2017-09-29T17:13:33Z</time>
</trkpt>
<trkpt lat="53.9829359" lon="16.5129242">
<ele>185</ele>
<time>2017-09-29T17:13:39Z</time>
</trkpt>
<trkpt lat="53.9833674" lon="16.5113593">
<ele>186</ele>
<time>2017-09-29T17:13:45Z</time>
</trkpt>
<trkpt lat="53.9837950" lon="16.5098186">
<ele>187</ele>
<time>2017-09-29T17:13:51Z</time>
</trkpt>
<trkpt lat="53.9841983" lon="16.5083173">
<ele>186</ele>
<time>2017-09-29T17:13:57Z</time>
</trkpt>
<trkpt lat="53.9845730" lon="16.5068571">
<ele>187</ele>
<time>2017-09-29T17:14:03Z</time>
</trkpt>
<trkpt lat="53.9848907" lon="16.5053128">
<ele>186</ele>
<time>2017-09-29T17:14:09Z</time>
</trkpt>
<trkpt lat="53.9851888" lon="16.5038205">
<ele>185</ele>
<time>2017-09-29T17:14:15Z</time>
</trkpt>
<trkpt lat="53.9854753" lon="16.5024292">
<ele>183</ele>
<time>2017-09-29T17:14:21Z</time>
</trkpt>
<trkpt lat="53.9857476" lon="16.5011010">
<ele>183</ele>
<time>2017-09-29T17:14:27Z</time>
</trkpt>
<trkpt lat="53.9859538" lon="16.5001190">
<ele>183</ele>
<time>2017-09-29T17:14:33Z</time>
</trkpt>
<trkpt lat="53.9861236" lon="16.4992737">
<ele>182</ele>
<time>2017-09-29T17:14:39Z</time>
</trkpt>
<trkpt lat="53.9862065" lon="16.4988778">
<ele>179</ele>
<time>2017-09-29T17:14:45Z</time>
</trkpt>
<trkpt lat="53.9862474" lon="16.4986361">
<ele>176</ele>
<time>2017-09-29T17:14:51Z</time>
</trkpt>
<trkpt lat="53.9862557" lon="16.4985702">
<ele>176</ele>
<time>2017-09-29T17:14:57Z</time>
</trkpt>
<trkpt lat="53.9862708" lon="16.4984343">
<ele>175</ele>
<time>2017-09-29T17:15:03Z</time>
</trkpt>
<trkpt lat="53.9863158" lon="16.4982342">
<ele>175</ele>
<time>2017-09-29T17:15:09Z</time>
</trkpt>
<trkpt lat="53.9863592" lon="16.4980654">
<ele>174</ele>
<time>2017-09-29T17:15:15Z</time>
</trkpt>
<trkpt lat="53.9863983" lon="16.4978925">
<ele>173</ele>
<time>2017-09-29T17:15:21Z</time>
</trkpt>
<trkpt lat="53.9864391" lon="16.4976482">
<ele>172</ele>
<time>2017-09-29T17:15:27Z</time>
</trkpt>
<trkpt lat="53.9864816" lon="16.4973648">
<ele>171</ele>
<time>2017-09-29T17:15:33Z</time>
</trkpt>
<trkpt lat="53.9865603" lon="16.4969354">
<ele>170</ele>
<time>2017-09-29T17:15:39Z</time>
</trkpt>
<trkpt lat="53.9866536" lon="16.4965039">
<ele>171</ele>
<time>2017-09-29T17:15:45Z</time>
</trkpt>
<trkpt lat="53.9867302" lon="16.4961460">
<ele>172</ele>
<time>2017-09-29T17:15:51Z</time>
</trkpt>
<trkpt lat="53.9867993" lon="16.4957707">
<ele>172</ele>
<time>2017-09-29T17:15:57Z</time>
</trkpt>
<trkpt lat="53.9868861" lon="16.4954057">
<ele>171</ele>
<time>2017-09-29T17:16:03Z</time>
</trkpt>
<trkpt lat="53.9869339" lon="16.4951515">
<ele>172</ele>
<time>2017-09-29T17:16:09Z</time>
</trkpt>
<trkpt lat="53.9869787" lon="16.4949230">
<ele>172</ele>
<time>2017-09-29T17:16:15Z</time>
</trkpt>
<trkpt lat="53.9870753" lon="16.4944913">
<ele>173</ele>
<time>2017-09-29T17:16:21Z</time>
</trkpt>
<trkpt lat="53.9871635" lon="16.4940471">
<ele>174</ele>
<time>2017-09-29T17:16:27Z</time>
</trkpt>
<trkpt lat="53.9872676" lon="16.4935297">
<ele>173</ele>
<time>2017-09-29T17:16:33Z</time>
</trkpt>
<trkpt lat="53.9874293" lon="16.4926886">
<ele>174</ele>
<time>2017-09-29T17:16:39Z</time>
</trkpt>
<trkpt lat="53.9876428" lon="16.4917011">
<ele>176</ele>
<time>2017-09-29T17:16:45Z</time>
</trkpt>
<trkpt lat="53.9878517" lon="16.4906682">
<ele>177</ele>
<time>2017-09-29T17:16:51Z</time>
</trkpt>
<trkpt lat="53.9880673" lon="16.4896651">
<ele>177</ele>
<time>2017-09-29T17:16:57Z</time>
</trkpt>
<trkpt lat="53.9882698" lon="16.4885586">
<ele>174</ele>
<time>2017-09-29T17:17:03Z</time>
</trkpt>
<trkpt lat="53.9883984" lon="16.4874041">
<ele>170</ele>
<time>2017-09-29T17:17:09Z</time>
</trkpt>
<trkpt lat="53.9885069" lon="16.4864548">
<ele>166</ele>
<time>2017-09-29T17:17:15Z</time>
</trkpt>
<trkpt lat="53.9885755" lon="16.4857569">
<ele>162</ele>
<time>2017-09-29T17:17:21Z</time>
</trkpt>
<trkpt lat="53.9886502" lon="16.4853855">
<ele>162</ele>
<time>2017-09-29T17:17:27Z</time>
</trkpt>
<trkpt lat="53.9887227" lon="16.4854428">
<ele>162</ele>
<time>2017-09-29T17:17:33Z</time>
</trkpt>
<trkpt lat="53.9887632" lon="16.4854676">
<ele>162</ele>
<time>2017-09-29T17:17:39Z</time>
</trkpt>
<trkpt lat="53.9887632" lon="16.4854676">
<ele>162</ele>
<time>2017-09-29T17:17:45Z</time>
</trkpt>
<trkpt lat="53.9887632" lon="16.4854676">
<ele>162</ele>
<time>2017-09-29T17:17:51Z</time>
</trkpt>
<trkpt lat="53.9887632" lon="16.4854676">
<ele>162</ele>
<time>2017-09-29T17:17:57Z</time>
</trkpt>
<trkpt lat="53.9887632" lon="16.4854676">
<ele>162</ele>
<time>2017-09-29T17:18:03Z</time>
</trkpt>
<trkpt lat="" lon="">
<ele></ele>
<time>2017-09-29TZ</time>
</trkpt>
</trkseg>
</trk>
<wpt lat="" lon="">
	<name></name>
	<desc></desc>
	<cmt></cmt>
	<photoid></photoid>
	<type></type>
</wpt>
</gpx>
